     2              OBSERVATION DATA    GPS                 RINEX VERSION / TYPE
teqc 2000Jul20 Karen Wendt 20020311 22:08:30UTC             PGM / RUN BY / DATE
                                                            COMMENT
L2: 1 -> 1; 150 -> 5; 250 -> 9                              COMMENT
L2: 1 -> 1; 150 -> 5; 250 -> 9                              COMMENT
L2: 1 -> 1; 150 -> 5; 250 -> 9                              COMMENT
L2: 1 -> 1; 150 -> 5; 250 -> 9                              COMMENT
L2: 1 -> 1; 150 -> 5; 250 -> 9                              COMMENT
L2: 1 -> 1; 150 -> 5; 250 -> 9                              COMMENT
L2: 1 -> 1; 150 -> 5; 250 -> 9                              COMMENT
L2: 1 -> 1; 150 -> 5; 250 -> 9                              COMMENT
L2: 1 -> 1; 150 -> 5; 250 -> 9                              COMMENT
L2: 1 -> 1; 150 -> 5; 250 -> 9                              COMMENT
L2: 1 -> 1; 150 -> 5; 250 -> 9                              COMMENT
L2: 1 -> 1; 150 -> 5; 250 -> 9                              COMMENT
L2: 1 -> 1; 150 -> 5; 250 -> 9                              COMMENT
L2: 1 -> 1; 150 -> 5; 250 -> 9                              COMMENT
Original Marker Name: leac Leach_1956_USC&GS                COMMENT
Campaign Name: USGS Mojave 2002                             COMMENT
4-Character Station Name: LEAC                              COMMENT
6-Character Antenna Code: DMRCHT                            COMMENT
Vertical Measurement Point: BCR                             COMMENT
Vertical Offset to Rinex Ref. Point: 0.0348                 COMMENT
Radial Measurement Point: ECF                               COMMENT
Radial Offset to Rinex Ref. Point: 0.1897                   COMMENT
Antenna Height from Field Measurement: 1.1850 m             COMMENT
Additional Antenna Identification Info.:                    COMMENT
Turborogue and Ashtech Choke Ring                           COMMENT
Original XYZ: -2350717.6285 -4635385.8993 3687177.4215      COMMENT
New XYZ position is based on association with SCEC monument COMMENT
E1F4D1A8+0011. Position of that monument is believed to be  COMMENT
valid to within 1 m horizontally; vertical accuracy         COMMENT
should be no worse than 3-times this value.                 COMMENT
                                                            COMMENT
Revised Rinex header created by UCSD GPS archive for        COMMENT
GSAC on 27-Jun-2003 (2003:178) 16:08:15 GMT                 COMMENT
For assistance contact dagnew@ucsd.edu                      COMMENT
or anderson@python.ucsd.edu                                 COMMENT
                                                            COMMENT
LEACH 1956                                                  MARKER NAME
CHS US GEOLOGICAL SURVEY                                    OBSERVER / AGENCY
LP019992809 ASHTECH Z-XII3 CD00                             REC # / TYPE / VERS
CR619992805 DORNE-MARGOL. TYPE T                            ANT # / TYPE
 -2350730.9317 -4635350.8497  3687158.5859                  APPROX POSITION XYZ
        1.1349        0.0000        0.0000                  ANTENNA: DELTA H/E/N
     1     1     0                                          WAVELENGTH FACT L1/2
     5    C1    L1    L2    P1    P2                        # / TYPES OF OBSERV
    30                                                      INTERVAL
  2002     3     7     0     1    0.000000                  TIME OF FIRST OBS
  2002     3     7    23    59   30.000000                  TIME OF LAST OBS
                                                            END OF HEADER
 02  3  7  0  1  0.0000000  0  9G 6G23G17G30G22G15G26G10G18
  20280500.828   -15995207.28949 -12449690.11048  20280500.452    20280510.866
  20555218.479   -25563034.82049 -19641032.78348  20555217.779    20555228.529
  21336422.748   -24036187.29949 -18716606.71247  21336422.062    21336434.138
  23329656.141    12332509.32249   9785424.05246  23329656.245    23329673.213
  23704821.428    -6722473.95849  -5235649.54545  23704820.485    23704838.436
  22007854.556   -18968580.10849 -14518417.50047  22007853.750    22007867.529
  22447693.598   -16785047.49049 -13059880.00446  22447693.466    22447709.101
  22977417.116     2724170.83949   2139072.19646  22977416.066    22977431.053
  22289302.541   -14340420.89249 -10589576.00647  22289301.918    22289315.436
 02  3  7  0  1 30.0000000  0  9G 6G23G17G30G22G15G26G10G18
  20282470.810   -15984855.08649 -12441623.46248  20282470.448    20282480.857
  20556309.354   -25557302.11349 -19636565.71348  20556308.654    20556319.370
  21329312.486   -24073551.67549 -18745721.74847  21329311.805    21329323.872
  23349203.355    12435229.66349   9865465.63846  23349203.402    23349220.472
  23696558.098    -6765897.52449  -5269485.95245  23696557.145    23696575.111
  21996746.247   -19026954.15649 -14563903.63947  21996745.430    21996759.184
  22435484.937   -16849203.45449 -13109871.46246  22435484.827    22435500.342
  22995774.307     2820637.93949   2214241.22246  22995773.217    22995788.220
  22272407.865   -14429202.12349 -10658755.97947  22272407.254    22272420.739
 02  3  7  0  2  0.0000000  0  9G 6G23G17G30G22G15G26G10G18
  20284528.228   -15974043.27349 -12433198.68248  20284527.854    20284538.279
  20557493.476   -25551079.58649 -19631716.96848  20557492.784    20557503.483
  21322234.335   -24110747.42849 -18774705.38847  21322233.645    21322245.709
  23368765.713    12538029.55149   9945569.20846  23368765.770    23368782.901
  23688391.914    -6808810.92149  -5302924.84445  23688390.958    23688408.812
  21985670.590   -19085156.40149 -14609255.90147  21985669.798    21985683.556
  22423358.141   -16912929.34949 -13159527.80846  22423358.053    22423373.488
  23014169.260     2917303.48149   2289564.88146  23014168.163    23014183.195
  22255572.963   -14517669.35549 -10727691.28347  22255572.338    22255585.796
 02  3  7  0  2 30.0000000  0  9G 6G23G17G30G22G15G26G10G18
  20286673.039   -15962772.22649 -12424416.05648  20286672.669    20286683.099
  20558770.385   -25544369.44349 -19626488.26848  20558769.680    20558780.361
  21315188.012   -24147775.74349 -18803558.55747  21315187.323    21315199.394
  23388342.430    12640904.96849  10025731.63646  23388342.507    23388359.745
  23680322.862    -6851213.91049  -5335966.02245  23680321.824    23680339.667
  21974627.458   -19143187.87449 -14654475.09447  21974626.673    21974640.428
  22411313.554   -16976223.23649 -13208847.53546  22411313.471    22411328.820
  23032601.259     3014163.68749   2365040.23046  23032600.162    23032615.190
  22238797.978   -14605821.77549 -10796381.29047  22238797.341    22238810.799
 02  3  7  0  3  0.0000000  0  9G 6G23G17G30G22G15G26G10G18
  20288905.544   -15951040.36649 -12415274.35548  20288905.173    20288915.605
  20560140.039   -25537171.74649 -19620879.65348  20560139.332    20560150.007
  21308173.722   -24184635.96049 -18832280.73847  21308173.019    21308185.095
  23407933.026    12743853.77249  10105951.24246  23407933.165    23407950.603
  23672351.241    -6893104.58049  -5368607.98245  23672350.203    23672367.957
  21963616.959   -19201047.85849 -14699560.66547  21963616.125    21963629.893
  22399351.943   -17039081.14849 -13257827.54746  22399351.882    22399367.145
  23051069.960     3111216.80149   2440665.89846  23051068.876    23051083.919
  22222083.311   -14693657.02249 -10864824.14847  22222082.703    22222096.126
 02  3  7  0  3 30.0000000  0  9G 6G23G17G30G22G15G26G10G18
  20291225.827   -15938847.40049 -12405773.34848  20291225.447    20291235.867
  20561602.167   -25529488.06249 -19614892.34548  20561601.470    20561612.158
  21301191.272   -24221328.63349 -18860872.36347  21301190.573    21301202.627
  23427537.046    12846872.76849  10186225.53746  23427537.183    23427554.766
  23664477.173    -6934482.38149  -5400850.30845  23664476.124    23664493.947
  21952639.032   -19258736.73349 -14744512.91347  21952638.195    21952651.943
  22387473.734   -17101500.51049 -13306465.82846  22387473.655    22387488.902
  23069574.802     3208459.67049   2516439.44946  23069573.716    23069588.714
  22205429.285   -14781173.75749 -10933018.80947  22205428.682    22205442.084
 02  3  7  0  4  0.0000000  0  9G 6G23G17G30G22G15G26G10G18
  20293633.998   -15926192.24049 -12395912.19748  20293633.620    20293644.016
  20563156.606   -25521319.27849 -19608527.03848  20563155.903    20563166.601
  21294240.758   -24257853.64849 -18889333.34447  21294240.064    21294252.089
  23447153.945    12949959.19949  10266552.37046  23447154.063    23447171.685
  23656700.936    -6975345.81849  -5432691.84445  23656699.898    23656717.730
  21941693.724   -19316254.30349 -14789331.67647  21941692.873    21941706.576
  22375679.637   -17163477.79449 -13354759.64046  22375679.570    22375694.799
  23088115.275     3305890.05949   2592359.09246  23088114.221    23088129.202
  22188836.298   -14868369.78749 -11000963.57447  22188835.689    22188849.091
 02  3  7  0  4 30.0000000  0  9G 6G23G17G30G22G15G26G10G18
  20296130.263   -15913074.44649 -12385690.55348  20296129.892    20296140.271
  20564803.101   -25512666.73149 -19601784.77348  20564802.404    20564813.088
  21287322.028   -24294211.61349 -18917664.16247  21287321.324    21287333.315
  23466783.064    13053109.78349  10346929.20746  23466783.164    23466800.819
  23649022.795    -7015694.09449  -5464131.95445  23649021.763    23649039.555
  21930780.902   -19373600.81849 -14834017.15047  21930780.047    21930793.772
  22363970.270   -17225010.33349 -13402706.88046  22363970.146    22363985.393
  23106690.920     3403505.14649   2668422.67946  23106689.871    23106704.896
  22172304.595   -14955243.70349 -11068657.33647  22172303.984    22172317.348
 02  3  7  0  5  0.0000000  0  9G 6G23G17G30G22G15G26G10G18
  20298714.732   -15899492.92249 -12375107.55748  20298714.352    20298724.714
  20566541.507   -25503531.28249 -19594666.22148  20566540.810    20566551.480
  21280435.148   -24330402.12449 -18945864.50547  21280434.452    21280446.399
  23486423.921    13156322.17549  10427354.20146  23486424.026    23486441.720
  23641442.856    -7055525.90549  -5495169.61345  23641441.881    23641459.641
  21919900.740   -19430775.80449 -14878568.97047  21919899.889    21919913.650
  22352346.193   -17286094.67249 -13450304.88046  22352346.063    22352361.237
  23125301.273     3501302.73049   2744628.45146  23125300.198    23125315.305
  22155834.564   -15041793.55149 -11136098.58347  22155833.966    22155847.260
 02  3  7  0  5 30.0000000  0  9G 6G23G17G30G22G15G26G10G18
  20301387.443   -15885447.67949 -12364163.22648  20301387.062    20301397.447
  20568371.477   -25493914.66449 -19587172.73348  20568370.773    20568381.445
  21273580.025   -24366425.93849 -18973934.95447  21273579.328    21273591.239
  23506075.901    13259592.79649  10507824.56446  23506075.972    23506093.695
  23633961.403    -7094840.74549  -5525804.45345  23633960.459    23633978.200
  21909053.174   -19487779.79349 -14922987.55047  21909052.319    21909066.048
  22340807.862   -17346728.39549 -13497551.75146  22340807.741    22340822.796
  23143945.714     3599279.57549   2820973.90646  23143944.660    23143959.841
  22139426.419   -15128018.16949 -11203286.40047  22139425.835    22139439.021
 02  3  7  0  6  0.0000000  0  9G 6G23G17G30G22G15G26G10G18
  20304148.652   -15870937.28549 -12352856.44348  20304148.281    20304158.688
  20570292.933   -25483817.22449 -19579304.58348  20570292.233    20570302.918
  21266756.715   -24402282.51449 -19001875.09147  21266756.011    21266767.898
  23525738.512    13362919.47049  10588338.61046  23525738.560    23525756.289
  23626578.696    -7133636.75149  -5556035.02545  23626577.751    23626595.432
  21898238.308   -19544611.82849 -14967272.14947  21898237.476    21898251.192
  22329356.001   -17406907.74349 -13544444.55746  22329355.899    22329370.875
  23162623.942     3697433.82049   2897457.60146  23162622.870    23162638.143
  22123080.599   -15213915.23649 -11270218.98847  22123080.021    22123093.137
 02  3  7  0  6 30.0000000  0  9G 6G23G17G30G22G15G26G10G18
  20306998.387   -15855961.84049 -12341187.27748  20306998.018    20307008.439
  20572305.546   -25473240.82449 -19571063.21148  20572304.840    20572315.527
  21259965.075   -24437972.58249 -19029685.48447  21259964.363    21259976.253
  23545411.127    13466298.73749  10668893.64646  23545411.201    23545428.906
  23619294.775    -7171913.70049  -5585861.13345  23619293.843    23619311.422
  21887456.022   -19601272.77349 -15011423.43447  21887455.190    21887468.856
  22317991.035   -17466630.39949 -13590981.50346  22317990.937    22318005.848
  23181335.272     3795762.14749   2974076.92946  23181334.216    23181349.531
  22106797.300   -15299483.88649 -11336895.66047  22106796.703    22106809.768
 02  3  7  0  7  0.0000000  0  9G 6G23G17G30G22G15G26G10G18
  20309936.756   -15840520.51849 -12329155.08648  20309936.384    20309946.813
  20574409.109   -25462186.55049 -19562449.47348  20574408.393    20574419.088
  21253205.118   -24473496.14449 -19057366.13147  21253204.413    21253216.302
  23565093.237    13569727.77949  10749487.46146  23565093.295    23565110.979
  23612109.817    -7209670.64549  -5615282.04445  23612108.887    23612126.318
  21876706.326   -19657762.51849 -15055441.32047  21876705.482    21876719.106
  22306713.555   -17525893.29949 -13637160.19246  22306713.454    22306728.313
  23200079.272     3894261.88149   3050829.83546  23200078.190    23200093.581
  22090576.796   -15384722.41549 -11403315.09547  22090576.213    22090589.210
 02  3  7  0  7 30.0000000  0  9G 6G23G17G30G22G15G26G10G18
  20312964.053   -15824612.13549 -12316758.96148  20312963.678    20312974.116
  20576603.466   -25450654.97449 -19553463.81048  20576602.754    20576613.458
  21246476.872   -24508852.94149 -19084916.83047  21246476.171    21246488.044
  23584784.440    13673204.54549  10830118.45746  23584784.433    23584802.188
  23605024.136    -7246905.81149  -5644296.38945  23605023.153    23605040.622
  21865989.291   -19714080.58649 -15099325.43547  21865988.442    21866002.013
  22295524.211   -17584692.81949 -13682977.80746  22295524.090    22295538.968
  23218855.504     3992931.20649   3127714.87746  23218854.471    23218869.859
  22074419.572   -15469628.22549 -11469475.26647  22074418.988    22074431.948
 02  3  7  0  8  0.0000000  0  9G 6G23G17G30G22G15G26G10G18
  20316080.109   -15808237.09949 -12303999.21748  20316079.751    20316090.204
  20578888.263   -25438648.19849 -19544107.86548  20578887.543    20578898.234
  21239780.231   -24544043.76349 -19112338.20947  21239779.507    21239791.393
  23604483.865    13776724.97349  10910783.46945  23604483.875    23604501.697
  23598037.803    -7283619.15949  -5672904.12045  23598036.829    23598054.206
  21855304.708   -19770227.90049 -15143076.49247  21855303.878    21855317.416
  22284423.433   -17643026.99649 -13728432.81346  22284423.295    22284438.169
  23237663.365     4091766.68649   3204729.39046  23237662.341    23237677.723
  22058325.884   -15554200.81949 -11535375.80047  22058325.289    22058338.154
 02  3  7  0  8 30.0000000  0  9G 6G23G17G30G22G15G26G10G18
  20319285.285   -15791393.73149 -12290874.52948  20319284.912    20319295.406
  20581263.415   -25426166.53749 -19534381.87748  20581262.698    20581273.382
  21233115.324   -24579067.89249 -19139629.69547  21233114.611    21233126.487
  23624191.236    13880287.17749  10991481.03045  23624191.233    23624209.174
  23591151.050    -7319808.90749  -5701103.85445  23591150.086    23591167.455
  21844652.816   -19826203.37849 -15186693.66047  21844652.002    21844665.529
  22273411.917   -17700891.85449 -13773522.11746  22273411.798    22273426.673
  23256502.572     4190766.75449   3281872.15846  23256501.529    23256516.966
  22042296.084   -15638437.50749 -11601014.58947  22042295.467    22042308.252
 02  3  7  0  9  0.0000000  0  9G 6G23G17G30G22G15G26G10G18
  20322579.651   -15774081.83549 -12277384.76648  20322579.281    20322589.787
  20583728.671   -25413211.54049 -19524287.06548  20583727.962    20583738.622
  21226482.086   -24613925.63349 -19166791.53347  21226481.393    21226493.217
  23643905.979    13983888.10549  11072208.75845  23643905.944    23643924.035
  23584364.026    -7355474.50949  -5728895.16145  23584363.105    23584380.408
  21834033.632   -19882007.07949 -15230176.97747  21834032.824    21834046.308
  22262490.247   -17758284.75249 -13818243.66946  22262490.129    22262504.953
  23275372.601     4289928.91249   3359141.21046  23275371.575    23275387.043
  22026330.362   -15722337.03849 -11666390.66747  22026329.740    22026342.495
 02  3  7  0  9 30.0000000  0  9G 6G23G17G30G22G15G26G10G18
  20325963.138   -15756301.45249 -12263529.93648  20325962.779    20325973.274
  20586283.622   -25399785.10849 -19513824.89248  20586282.903    20586293.565
  21219880.408   -24648617.73349 -19193824.29747  21219879.713    21219891.502
  23663627.466    14087524.41749  11152964.07045  23663627.431    23663645.624
  23577676.833    -7390615.70849  -5756277.84645  23577675.885    23577693.205
  21823447.023   -19937639.75049 -15273527.01647  21823446.213    21823459.639
  22251658.868   -17815203.49249 -13862595.73946  22251658.747    22251673.492
  23294272.834     4389249.76449   3436533.92946  23294271.761    23294287.305
  22010428.995   -15805898.55249 -11731503.34847  22010428.378    22010441.084
 02  3  7  0 10  0.0000000  0  9G 6G23G17G30G22G15G26G10G18
  20329435.947   -15738051.66049 -12249309.33648  20329435.595    20329446.106
  20588928.076   -25385888.22649 -19502996.13748  20588927.362    20588938.035
  21213310.244   -24683144.09449 -19220727.91447  21213309.551    21213321.307
  23683355.261    14191193.42649  11233744.84545  23683355.214    23683373.413
  23571089.681    -7425231.20349  -5783250.90545  23571088.675    23571106.140
  21812893.003   -19993101.11549 -15316743.57847  21812892.199    21812905.583
  22240918.259   -17871644.73549 -13906575.74346  22240918.153    22240932.867
  23313202.843     4488727.06049   3514048.54546  23313201.766    23313217.378
  21994592.377   -15889119.81849 -11796350.90347  21994591.761    21994604.416
 02  3  7  0 10 30.0000000  0  9G 6G23G17G30G22G15G26G10G18
  20332998.213   -15719331.86649 -12234722.50348  20332997.858    20333008.381
  20591661.899   -25371521.79949 -19491801.50548  20591661.180    20591671.881
  21206771.648   -24717504.49349 -19247502.21047  21206770.978    21206782.677
  23703088.751    14294892.51449  11314549.06745  23703088.773    23703107.031
  23564602.791    -7459319.91149  -5809813.45745  23564601.716    23564619.214
  21802371.649   -20048390.66749 -15359826.26247  21802370.843    21802384.196
  22230269.118   -17927605.56449 -13950181.40846  22230269.025    22230283.712
  23332162.226     4588358.55749   3591683.32846  23332161.091    23332176.789
  21978820.787   -15971999.20449 -11860932.06447  21978820.180    21978832.794
 02  3  7  0 11  0.0000000  0  9G 6G23G17G30G22G15G26G10G18
  20336650.047   -15700141.40349 -12219768.91848  20336649.700    20336660.229
  20594484.858   -25356687.10749 -19480241.99048  20594484.125    20594494.827
  21200264.622   -24751699.04049 -19274147.27247  21200263.943    21200275.635
  23722827.502    14398619.06749  11395374.68245  23722827.578    23722845.743
  23558216.231    -7492881.13049  -5835964.99845  23558215.128    23558232.675
  21791883.087   -20103508.24149 -15402774.93647  21791882.274    21791895.591
  22219712.067   -17983082.78449 -13993410.24946  22219711.954    22219726.563
  23351150.431     4688141.84049   3669436.37446  23351149.346    23351165.034
  21963114.551   -16054535.07249 -11925245.55247  21963113.953    21963126.553
 02  3  7  0 11 30.0000000  0  9G 6G23G17G30G22G15G26G10G18
  20340391.393   -15680480.64249 -12204448.86148  20340391.030    20340401.566
  20597396.438   -25341386.52749 -19468319.43748  20597395.720    20597406.401
  21193788.969   -24785728.53149 -19300663.71247  21193788.286    21193799.969
  23742570.692    14502369.13249  11476218.61145  23742570.750    23742588.988
  23551929.974    -7525914.97649  -5861705.56745  23551928.949    23551946.507
  21781426.965   -20158455.05049 -15445590.54047  21781426.153    21781439.477
  22209247.355   -18038074.76649 -14036260.97846  22209247.219    22209261.737
  23370166.880     4788073.22249   3747304.83246  23370165.820    23370181.475
  21947473.825   -16136726.60149 -11989290.71947  21947473.221    21947485.857
 02  3  7  0 12  0.0000000  0  9G 6G23G17G30G22G15G26G10G18
  20344222.598   -15660347.63349 -12188760.81748  20344222.248    20344232.775
  20600396.709   -25325619.89749 -19456033.73348  20600395.993    20600406.685
  21187344.948   -24819591.90649 -19327050.71447  21187344.257    21187355.926
  23762318.154    14606141.51849  11557079.95446  23762318.179    23762336.462
  23545744.633    -7558419.12749  -5887033.39845  23545743.561    23545761.106
  21771003.687   -20213229.48749 -15488271.83347  21771002.868    21771016.159
  22198875.759   -18092577.02549 -14078730.11246  22198875.639    22198890.128
  23389211.342     4888151.86549   3825288.03546  23389210.296    23389225.953
  21931899.179   -16218571.00249 -12053065.41647  21931898.573    21931911.183
 02  3  7  0 12 30.0000000  0 10G 6G23G17G30G22G15G21G26G10G18
  20348143.496   -15639743.23449 -12172705.46348  20348143.144    20348153.663
  20603485.154   -25309389.88349 -19443386.94448  20603484.435    20603495.105
  21180932.264   -24853290.49449 -19353309.31347  21180931.576    21180943.270
  23782069.016    14709931.78949  11637955.22246  23782069.055    23782087.361
  23539659.895    -7590394.38549  -5911949.10945  23539658.823    23539676.347
  21760612.889   -20267833.05049 -15530819.97247  21760612.092    21760625.347
  24869222.741    -4727309.74559  -1968976.01745  24869221.886    24869246.604
  22188597.669   -18146588.28849 -14120816.66746  22188597.554    22188611.969
  23408283.053     4988373.83249   3903382.91746  23408282.014    23408297.660
  21916390.679   -16300068.04449 -12116569.44247  21916390.069    21916402.659
 02  3  7  0 13  0.0000000  0 10G 6G23G17G30G22G15G21G26G10G18
  20352153.095   -15618672.93149 -12156287.06648  20352152.738    20352163.253
  20606660.429   -25292703.68849 -19430384.68948  20606659.706    20606670.369
  21174549.788   -24886830.21749 -19379444.11747  21174549.105    21174560.813
  23801821.728    14813731.68749  11718837.99846  23801821.761    23801840.098
  23533674.867    -7621845.69649  -5936456.55445  23533673.777    23533691.375
  21750253.562   -20322271.35049 -15573239.33247  21750252.753    21750265.971
  24851319.192    -4821392.15349  -2042286.59645  24851318.401    24851342.915
  22178412.380   -18200111.48149 -14162522.91346  22178412.245    22178426.688
  23427380.520     5088731.01949   3981583.17546  23427379.472    23427395.196
  21900947.464   -16381222.01449 -12179806.13747  21900946.860    21900959.425
 02  3  7  0 13 30.0000000  0 10G 6G23G17G30G22G15G21G26G10G18
  20356253.283   -15597126.39149 -12139497.57348  20356252.919    20356263.420
  20609924.083   -25275553.02149 -19417020.50848  20609923.357    20609934.009
  21168199.427   -24920201.39049 -19405447.58547  21168198.731    21168210.464
  23821577.469    14917547.71349  11799733.33246  23821577.495    23821595.911
  23527791.565    -7652762.67049  -5960547.61745  23527790.450    23527807.979
  21739927.555   -20376534.79149 -15615522.42847  21739926.712    21739939.923
  24833442.127    -4915335.21149  -2115488.57945  24833441.347    24833465.838
  22168322.348   -18253134.11649 -14203839.11746  22168322.230    22168336.665
  23446505.046     5189230.50049   4059894.30346  23446503.973    23446519.737
  21885571.703   -16462021.61849 -12242766.71047  21885571.105    21885583.617
 02  3  7  0 14  0.0000000  0 10G 6G23G17G30G22G15G21G26G10G18
  20360443.745   -15575105.46649 -12122338.42848  20360443.378    20360453.864
  20613275.451   -25257941.38249 -19403297.12948  20613274.727    20613285.388
  21161880.767   -24953406.07449 -19431321.31847  21161880.075    21161891.792
  23841335.387    15021375.23949  11880637.62746  23841335.367    23841353.873
  23522009.619    -7683146.80049  -5984223.49045  23522008.552    23522025.881
  21729634.428   -20430625.22649 -15657670.71147  21729633.598    21729646.807
  24815591.371    -5009139.71349  -2188582.60845  24815590.675    24815615.153
  22158327.725   -18305655.48449 -14244764.72146  22158327.609    22158342.010
  23465655.756     5289867.50249   4138312.58646  23465654.705    23465670.517
  21870263.266   -16542467.51549 -12305451.67647  21870262.642    21870275.092
 02  3  7  0 14 30.0000000  0 10G 6G23G17G30G22G15G21G26G10G18
  20364724.499   -15552610.07349 -12104809.56548  20364724.145    20364734.625
  20616714.205   -25239870.30549 -19389215.74748  20616713.476    20616724.162
  21155593.659   -24986444.91349 -19457065.82048  21155592.978    21155604.653
  23861094.974    15125211.13949  11961548.44846  23861094.967    23861113.406
  23516329.172    -7712997.72049  -6007483.86545  23516328.075    23516345.353
  21719374.200   -20484542.80649 -15699684.30447  21719373.351    21719386.572
  24797767.314    -5102804.39149  -2261567.67345  24797766.544    24797790.840
  22148428.958   -18357673.18649 -14285297.87146  22148428.862    22148443.238
  23484832.165     5390639.69449   4216836.21246  23484831.100    23484846.927
  21855022.332   -16622558.66249 -12367860.21047  21855021.694    21855034.084
 02  3  7  0 15  0.0000000  0 10G 6G23G17G30G22G15G21G26G10G18
  20369095.636   -15529639.62849 -12086910.52448  20369095.259    20369105.757
  20620240.227   -25221340.90149 -19374777.23248  20620239.505    20620250.189
  21149338.196   -25019317.48349 -19482680.76548  21149337.518    21149349.168
  23880855.627    15229052.97749  12042463.89746  23880855.607    23880874.078
  23510750.394    -7742314.44349  -6030327.98245  23510749.257    23510766.484
  21709146.893   -20538287.39349 -15741563.10147  21709146.071    21709159.230
  24779970.121    -5196327.61649  -2334442.50445  24779969.314    24779993.589
  22138626.600   -18409184.29849 -14325436.27446  22138626.508    22138640.819
  23504033.891     5491544.80749   4295463.40646  23504032.787    23504048.681
  21839849.241   -16702293.16149 -12429990.84047  21839848.608    21839860.956
 02  3  7  0 15 30.0000000  0 10G 6G23G17G30G22G15G21G26G10G18
  20373556.868   -15506195.59549 -12068642.45248  20373556.510    20373567.021
  20623852.778   -25202356.66349 -19359984.30448  20623852.054    20623862.708
  21143114.054   -25052025.69449 -19508167.63848  21143113.367    21143124.982
  23900616.411    15332895.97949  12123380.23845  23900616.407    23900634.956
  23505272.994    -7771098.23649  -6052756.82545  23505271.899    23505288.979
  21698952.155   -20591860.72549 -15783308.45547  21698951.329    21698964.451
  24762199.634    -5289710.19249  -2407207.73145  24762198.957    24762223.144
  22128920.898   -18460187.70049 -14365179.04746  22128920.777    22128935.033
  23523260.061     5592578.45749   4374190.76046  23523258.986    23523274.949
  21824743.901   -16781671.41649 -12491843.88247  21824743.275    21824755.594
 02  3  7  0 16  0.0000000  0 10G 6G23G17G30G22G15G21G26G10G18
  20378108.560   -15482276.36049 -12050004.09848  20378108.189    20378118.730
  20627551.872   -25182917.80649 -19344837.12648  20627551.144    20627561.788
  21136921.356   -25084568.43349 -19533525.56148  21136920.654    21136932.267
  23920377.192    15436738.87249  12204296.48645  23920377.187    23920395.915
  23499897.324    -7799347.17149  -6074768.89345  23499896.260    23499913.218
  21688790.299   -20645261.29349 -15824919.17647  21688789.484    21688802.581
  24744456.564    -5382948.94749  -2479860.90145  24744455.870    24744479.909
  22119312.521   -18510679.52649 -14404523.17746  22119312.419    22119326.607
  23542510.478     5693739.52049   4453017.39846  23542509.430    23542525.431
  21809706.951   -16860690.45549 -12553417.01447  21809706.345    21809718.645
 02  3  7  0 16 30.0000000  0 10G 6G23G17G30G22G15G21G26G10G18
  20382750.581   -15457882.27949 -12030995.74248  20382750.236    20382760.790
  20631337.029   -25163026.54849 -19329337.43548  20631336.313    20631346.918
  21130760.010   -25116946.29249 -19558755.00448  21130759.310    21130770.934
  23940137.240    15540577.93649  12285209.76145  23940137.287    23940156.094
  23494623.300    -7827061.43249  -6096364.31645  23494622.301    23494639.197
  21678661.178   -20698489.66449 -15866395.71847  21678660.366    21678673.463
  24726741.051    -5476042.96549  -2552401.28845  24726740.464    24726764.443
  22109801.852   -18560657.99549 -14443467.29346  22109801.723    22109815.882
  23561784.574     5795025.00649   4531940.97146  23561783.516    23561799.531
  21794738.430   -16939349.79149 -12614709.85647  21794737.827    21794750.110
 02  3  7  0 17  0.0000000  0 10G 6G23G17G30G22G15G21G26G10G18
  20387483.100   -15433012.75549 -12011616.90948  20387482.739    20387493.330
  20635208.115   -25142683.99649 -19313486.08748  20635207.393    20635217.986
  21124630.000   -25149159.29149 -19583855.98948  21124629.303    21124640.952
  23959896.149    15644410.79349  12366118.19245  23959896.198    23959915.073
  23489451.274    -7854240.33049  -6117542.58745  23489450.302    23489467.045
  21668564.861   -20751545.73449 -15907738.00747  21668564.075    21668577.162
  24709053.331    -5568990.91049  -2624827.84445  24709052.709    24709076.731
  22100389.417   -18610120.12349 -14482009.05546  22100389.289    22100403.410
  23581081.930     5896432.70149   4610959.78446  23581080.887    23581097.001
  21779838.802   -17017647.37849 -12675720.81947  21779838.202    21779850.448
 02  3  7  0 17 30.0000000  0 10G 6G23G17G30G22G15G21G26G10G18
  20392305.930   -15407668.51849 -11991868.16548  20392305.571    20392316.180
  20639164.556   -25121892.63549 -19297285.01748  20639163.834    20639174.420
  21118531.222   -25181208.36049 -19608829.23648  21118530.536    21118542.184
  23979653.138    15748233.54249  12447018.75845  23979653.231    23979672.190
  23484381.000    -7880884.34749  -6138304.06845  23484379.972    23484396.715
  21658501.165   -20804430.28249 -15948946.63647  21658500.363    21658513.485
  24691393.454    -5661792.36549  -2697140.25245  24691392.955    24691416.732
  22091075.538   -18659064.34249 -14520147.26046  22091075.437    22091089.485
  23600401.833     5997958.97549   4690070.99045  23600400.753    23600416.927
  21765008.058   -17095583.08849 -12736449.78847  21765007.449    21765019.612
 02  3  7  0 18  0.0000000  0 10G 6G23G17G30G22G15G21G26G10G18
  20397219.498   -15381847.52949 -11971747.92848  20397219.129    20397229.747
  20643206.493   -25100652.05449 -19280733.91448  20643205.766    20643216.364
  21112463.951   -25213091.81749 -19633673.43948  21112463.256    21112474.914
  23999408.025    15852045.31849  12527910.74545  23999408.165    23999427.214
  23479412.984    -7906991.12249  -6158646.92345  23479411.991    23479428.714
  21648470.389   -20857141.88549 -15990020.51347  21648469.576    21648482.690
  24673762.028    -5754444.38549  -2769336.19745  24673761.471    24673785.334
  22081861.062   -18707486.20549 -14557878.41947  22081860.976    22081874.964
  23619744.250     6099603.31349   4769274.19045  23619743.182    23619759.417
  21750246.765   -17173153.79349 -12796894.35347  21750246.128    21750258.214
 02  3  7  0 18 30.0000000  0 10G 6G23G17G30G22G15G21G26G10G18
  20402223.531   -15355551.41349 -11951257.46848  20402223.165    20402233.786
  20647333.221   -25078965.82649 -19263835.54848  20647332.489    20647343.108
  21106427.806   -25244811.66749 -19658390.15348  21106427.125    21106438.797
  24019159.968    15955841.56749  12608790.64845  24019160.120    24019179.362
  23474546.928    -7932562.20549  -6178572.34946  23474545.931    23474562.626
  21638472.255   -20909682.07649 -16030960.82047  21638471.418    21638484.506
  24656159.043    -5846947.15249  -2841415.83445  24656158.487    24656182.214
  22072746.152   -18755385.03049 -14595202.02147  22072746.046    22072760.008
  23639108.280     6201361.70749   4848566.27645  23639107.197    23639123.595
  21735554.817   -17250359.83949 -12857054.75747  21735554.199    21735566.236
 02  3  7  0 19  0.0000000  0 10G 6G23G17G30G22G15G21G26G10G18
  20407318.272   -15328778.38749 -11930395.38948  20407317.908    20407328.550
  20651544.758   -25056833.98549 -19246589.95648  20651544.054    20651554.668
  21100423.106   -25276366.43249 -19682978.23348  21100422.431    21100434.104
  24038908.641    16059620.75049  12689657.23645  24038908.769    24038928.061
  23469783.113    -7957595.61049  -6198078.79946  23469782.118    23469798.801
  21628506.975   -20962049.49949 -16071766.51047  21628506.147    21628519.206
  24638584.972    -5939297.82649  -2913376.93345  24638584.444    24638607.937
  22063731.452   -18802756.86349 -14632114.98747  22063731.357    22063745.304
  23658493.829     6303232.91649   4927946.27545  23658492.775    23658509.197
  21720932.771   -17327198.51349 -12916928.89847  21720932.162    21720944.142
 02  3  7  0 19 30.0000000  0 10G 6G23G17G30G22G15G21G26G10G18
  20412503.620   -15301529.29349 -11909162.34248  20412503.248    20412513.882
  20655840.555   -25034259.19949 -19228999.20948  20655839.840    20655850.493
  21094449.626   -25307757.13349 -19707438.47448  21094448.937    21094460.592
  24058653.468    16163379.21149  12770507.69545  24058653.590    24058672.892
  23465121.533    -7982091.99549  -6217166.81046  23465120.555    23465137.180
  21618574.406   -21014244.99449 -16112438.23447  21618573.563    21618586.602
  24621039.863    -6031495.94049  -2985219.11145  24621039.400    24621062.828
  22054817.303   -18849600.23649 -14668616.16947  22054817.228    22054831.149
  23677900.283     6405213.86949   5007411.79445  23677899.241    23677915.686
  21706380.728   -17403669.46749 -12976516.50747  21706380.116    21706392.007
 02  3  7  0 20  0.0000000  0 10G 6G23G17G30G22G15G21G26G10G18
  20417779.752   -15273803.03549 -11887557.48048  20417779.386    20417790.012
  20660220.609   -25011241.94549 -19211063.67748  20660219.907    20660230.552
  21088507.532   -25338982.83749 -19731770.14748  21088506.860    21088518.489
  24078393.998    16267115.33949  12851340.73045  24078394.174    24078413.443
  23460562.427    -8006049.89749  -6235835.19946  23460561.452    23460578.089
  21608674.743   -21066267.52649 -16152975.18547  21608673.927    21608686.901
  24603524.297    -6123539.14649  -3056940.57345  24603523.815    24603547.132
  22046004.474   -18895911.55649 -14704702.77047  22046004.399    22046018.282
  23697327.243     6507302.81149   5086961.45245  23697326.232    23697342.744
  21691899.116   -17479770.27449 -13035815.68447  21691898.501    21691910.319
 02  3  7  0 20 30.0000000  0 10G 6G23G17G30G22G15G21G26G10G18
  20423146.467   -15245600.83649 -11865581.76448  20423146.100    20423156.726
  20664684.264   -24987785.17549 -19192785.66448  20664683.557    20664694.216
  21082596.554   -25370044.94749 -19755974.34748  21082595.873    21082607.509
  24098129.515    16370824.92049  12932153.10345  24098129.682    24098148.975
  23456105.621    -8029470.38749  -6254084.83546  23456104.587    23456121.211
  21598807.805   -21118118.25449 -16193378.26947  21598807.007    21598819.951
  24586038.174    -6215427.65349  -3128541.48345  24586037.591    24586060.809
  22037293.122   -18941689.64549 -14740373.87047  22037293.020    22037306.864
  23716774.030     6609495.82949   5166592.21845  23716773.020    23716789.534
  21677487.959   -17555500.89849 -13094826.40847  21677487.348    21677499.115
 02  3  7  0 21  0.0000000  0 10G 6G23G17G30G22G15G21G26G10G18
  20428604.168   -15216920.54149 -11843233.50648  20428603.802    20428614.406
  20669231.710   -24963888.33449 -19174164.73748  20669230.989    20669241.668
  21076717.095   -25400941.50349 -19780049.54848  21076716.403    21076728.056
  24117859.917    16474507.25749  13012944.24545  24117860.012    24117879.443
  23451751.466    -8052351.21049  -6271913.96346  23451750.461    23451767.064
  21588973.932   -21169795.07049 -16233645.83447  21588973.115    21588986.076
  24568582.040    -6307158.43749  -3200019.48045  24568581.426    24568604.646
  22028684.025   -18986930.17149 -14775626.10047  22028683.910    22028697.707
  23736240.611     6711792.73349   5246303.92045  23736239.613    23736256.163
  21663147.816   -17630858.17649 -13153546.21647  21663147.225    21663158.935
 02  3  7  0 21 30.0000000  0 10G 6G23G17G30G22G15G21G26G10G18
  20434152.445   -15187764.23049 -11820514.33048  20434152.081    20434162.689
  20673862.101   -24939555.38449 -19155203.98848  20673861.384    20673872.085
  21070868.699   -25431674.87549 -19803997.59848  21070867.992    21070879.654
  24137584.131    16578157.36249  13093710.27645  24137584.267    24137603.673
  23447499.627    -8074694.20649  -6289323.99846  23447498.625    23447515.360
  21579172.768   -21221300.18849 -16273779.60847  21579171.960    21579184.904
  24551155.902    -6398731.61749  -3271374.65745  24551155.220    24551178.315
  22020177.216   -19031632.90349 -14810459.27847  22020177.129    22020190.904
  23755726.119     6814189.22149   5326093.22345  23755725.083    23755741.748
  21648878.559   -17705843.06949 -13211975.85747  21648877.964    21648889.632
 02  3  7  0 22  0.0000000  0 10G 6G23G17G30G22G15G21G26G10G18
  20439791.650   -15158130.13949 -11797422.86348  20439791.287    20439801.858
  20678575.434   -24914786.52849 -19135903.57448  20678574.731    20678585.417
  21065051.652   -25462243.39349 -19827817.19348  21065050.959    21065062.582
  24157301.940    16681773.94349  13174450.18845  24157302.057    24157321.510
  23443350.543    -8096497.44249  -6306313.45146  23443349.567    23443366.331
  21569404.585   -21272632.10749 -16313778.42447  21569403.753    21569416.686
  24533760.159    -6490144.64249  -3342605.05345  24533759.493    24533782.486
  22011773.536   -19075793.88349 -14844870.31947  22011773.447    22011787.229
  23775230.422     6916684.41749   5405959.44445  23775229.421    23775246.054
  21634680.734   -17780452.62949 -13270113.03247  21634680.133    21634691.761
 02  3  7  0 22 30.0000000  0 10G 6G23G17G30G22G15G21G26G10G18
  20445521.728   -15128018.56549 -11773959.32948  20445521.360    20445531.918
  20683371.369   -24889583.64249 -19116264.95048  20683370.660    20683381.377
  21059265.918   -25492647.50549 -19851508.67348  21059265.224    21059276.813
  24177012.900    16785354.27449  13255161.84145  24177013.022    24177032.517
  23439304.100    -8117761.21449  -6322882.54646  23439303.118    23439319.955
  21559669.273   -21323791.28049 -16353642.63647  21559668.452    21559681.303
  24516395.223    -6581396.34649  -3413709.74845  24516394.624    24516417.282
  22003473.353   -19119411.05349 -14878857.61147  22003473.243    22003487.019
  23794752.937     7019275.40049   5485900.29845  23794751.916    23794768.642
  21620554.485   -17854686.03249 -13327957.09747  21620553.882    21620565.483
 02  3  7  0 23  0.0000000  0 10G 6G23G17G30G22G15G21G26G10G18
  20451342.663   -15097429.51749 -11750123.73748  20451342.300    20451352.862
  20688249.529   -24863948.53449 -19096289.53148  20688248.813    20688259.525
  21053511.432   -25522887.35449 -19875072.15248  21053510.748    21053522.287
  24196716.322    16888895.10749  13335842.70445  24196716.472    24196735.974
  23435360.383    -8138485.26149  -6339031.07946  23435359.358    23435376.223
  21549966.851   -21374777.59249 -16393372.14647  21549966.029    21549978.819
  24499061.073    -6672486.13649  -3484688.29645  24499060.384    24499082.963
  21995277.132   -19162482.13549 -14912419.38347  21995277.017    21995290.728
  23814293.336     7121960.11149   5565914.19145  23814292.328    23814309.150
  21606500.026   -17928541.97349 -13385507.04047  21606499.422    21606511.023
 02  3  7  0 23 30.0000000  0 10G 6G23G17G30G22G15G21G26G10G18
  20457254.384   -15066363.24349 -11725916.28448  20457254.018    20457264.574
  20693209.629   -24837883.12749 -19075978.82048  20693208.920    20693219.602
  21047788.207   -25552963.08749 -19898507.75148  21047787.520    21047799.023
  24216411.759    16992393.74549  13416490.69045  24216411.867    24216431.427
  23431519.383    -8158669.64449  -6354759.11046  23431518.358    23431535.148
  21540297.303   -21425591.14349 -16432967.04047  21540296.483    21540309.246
  24481757.856    -6763412.85349  -3555539.78545  24481757.223    24481779.663
  21987185.193   -19205005.04149 -14945554.01247  21987185.069    21987198.756
  23833851.011     7224735.53949   5645998.77845  23833850.009    23833866.807
  21592517.662   -18002019.36149 -13442762.01547  21592517.052    21592528.631
 02  3  7  0 24  0.0000000  0 10G 6G23G17G30G22G15G21G26G10G18
  20463257.063   -15034819.05249 -11701336.43348  20463256.712    20463267.261
  20698251.428   -24811388.41549 -19055333.58548  20698250.719    20698261.384
  21042096.248   -25582874.23749 -19921815.10148  21042095.570    21042107.049
  24236098.718    17095848.18349  13497104.24545  24236098.828    24236118.416
  23427781.211    -8178313.62149  -6370066.04446  23427780.165    23427797.004
  21530660.734   -21476231.40749 -16472426.90247  21530659.904    21530672.623
  24464486.094    -6854174.40249  -3626262.58845  24464485.360    24464507.664
  21979198.106   -19246976.85949 -14978259.22047  21979198.018    21979211.678
  23853425.733     7327600.18549   5726152.89545  23853424.658    23853441.453
  21578607.623   -18075116.58549 -13499720.75947  21578607.022    21578618.567
 02  3  7  0 24 30.0000000  0 10G 6G23G17G30G22G15G21G26G10G18
  20469350.584   -15002797.67049 -11676384.73848  20469350.224    20469360.765
  20703374.410   -24784466.97849 -19034355.83948  20703373.693    20703384.311
  21036435.522   -25612621.57449 -19944994.79948  21036434.829    21036446.283
  24255776.550    17199254.76249  13577680.48645  24255776.655    24255796.355
  23424145.737    -8197417.74849  -6384952.31646  23424144.742    23424161.540
  21521056.978   -21526699.22449 -16511752.38247  21521056.143    21521068.810
  24447245.946    -6944770.32249  -3696856.33345  24447245.235    24447267.342
  21971316.211   -19288395.96549 -15010533.74447  21971316.135    21971329.742
  23873016.749     7430550.97349   5806374.12345  23873015.675    23873032.507
  21564769.997   -18147833.22549 -13556382.95047  21564769.381    21564780.901
 02  3  7  0 25  0.0000000  0 10G 6G23G17G30G22G15G21G26G10G18
  20475535.209   -14970297.26249 -11651059.77848  20475534.852    20475545.389
  20708578.657   -24757118.64149 -19013045.44848  20708577.950    20708588.525
  21030806.305   -25642203.24749 -19968045.41048  21030805.606    21030817.042
  24275445.147    17302612.63149  13658218.78345  24275445.208    24275465.038
  23420613.381    -8215980.05249  -6399416.39746  23420612.368    23420629.125
  21511486.412   -21576992.48849 -16550941.84947  21511485.588    21511498.172
  24430037.969    -7035197.16749  -3767318.34745  24430037.278    24430059.240
  21963540.316   -19329258.36349 -15042374.46347  21963540.208    21963553.753
  23892623.972     7533587.35449   5886662.05745  23892622.941    23892639.814
  21551005.431   -18220166.08949 -13612746.10147  21551004.810    21551016.272
 02  3  7  0 25 30.0000000  0 10G 6G23G17G30G22G15G21G26G10G18
  20481810.492   -14937320.63449 -11625363.73548  20481810.138    20481820.692
  20713863.286   -24729347.71049 -18991405.76548  20713862.561    20713873.131
  21025208.069   -25671621.94949 -19990969.03348  21025207.382    21025218.779
  24295103.435    17405916.63049  13738715.09345  24295103.469    24295123.481
  23417183.705    -8234003.06249  -6413460.25346  23417182.652    23417199.383
  21501948.600   -21627113.82749 -16589997.34747  21501947.771    21501960.325
  24412861.858    -7125456.27749  -3837649.66745  24412861.179    24412883.074
  21955870.228   -19369564.47649 -15073781.70947  21955870.088    21955883.614
  23912246.633     7636704.23849   5967012.69845  23912245.627    23912262.492
  21537313.612   -18292116.64249 -13668811.34747  21537312.979    21537324.396
 02  3  7  0 26  0.0000000  0 10G 6G23G17G30G22G15G21G26G10G18
  20488176.770   -14903865.63749 -11599294.94148  20488176.411    20488187.000
  20719228.393   -24701153.84649 -18969436.52748  20719227.677    20719238.218
  21019641.269   -25700875.57349 -20013764.02148  21019640.586    21019651.958
  24314751.406    17509166.07649  13819168.90945  24314751.367    24314771.584
  23413857.113    -8251484.53149  -6427082.13346  23413856.055    23413872.685
  21492443.919   -21677060.86049 -16628917.01747  21492443.101    21492455.651
  24395718.290    -7215544.39349  -3907847.74645  24395717.687    24395739.373
  21948306.828   -19409309.84449 -15104752.01247  21948306.704    21948320.214
  23931884.585     7739901.65649   6047426.11045  23931883.631    23931900.463
  21523695.136   -18363681.69849 -13724576.20847  21523694.507    21523705.865
 02  3  7  0 26 30.0000000  0 10G 6G23G17G30G22G15G21G26G10G18
  20494633.955   -14869932.89849 -11572853.87448  20494633.590    20494644.198
  20724673.575   -24672539.45949 -18947139.60448  20724672.838    20724683.359
  21014105.808   -25729964.61349 -20036430.76048  21014105.118    21014116.471
  24334388.309    17612357.69549  13899577.66245  24334388.363    24334408.660
  23410633.445    -8268425.14749  -6440282.56146  23410632.377    23410648.932
  21482972.363   -21726834.13649 -16667701.29047  21482971.528    21482984.050
  24378607.408    -7305460.77249  -3977912.02445  24378606.823    24378628.376
  21940850.448   -19448493.04849 -15135284.24847  21940850.325    21940863.764
  23951537.342     7843176.62649   6127899.95745  23951536.356    23951553.267
  21510150.080   -18434860.75349 -13780040.28247  21510149.454    21510160.798
 02  3  7  0 27  0.0000000  0 10G 6G23G17G30G22G15G21G26G10G18
  20501181.992   -14835522.74849 -11546040.80748  20501181.647    20501192.264
  20730198.396   -24643506.39249 -18924516.44448  20730197.673    20730208.172
  21008601.578   -25758889.43949 -20058969.54248  21008600.878    21008612.234
  24354013.666    17715488.54849  13979939.04145  24354013.707    24354034.121
  23407512.572    -8284824.98149  -6453061.60446  23407511.567    23407528.017
  21473533.845   -21776433.70749 -16706350.21647  21473533.013    21473545.461
  24361529.397    -7395204.61549  -4047841.86545  24361528.766    24361550.251
  21933501.415   -19487111.95149 -15165376.78147  21933501.283    21933514.727
  23971204.447     7946526.92949   6208432.48645  23971203.391    23971220.389
  21496678.745   -18505652.77549 -13835202.77747  21496678.109    21496689.440
 02  3  7  0 27 30.0000000  0 10G 6G23G17G30G22G15G21G26G10G18
  20507820.929   -14800635.01949 -11518855.59748  20507820.581    20507831.215
  20735802.545   -24614056.23949 -18901568.27748  20735801.823    20735812.319
  21003128.586   -25787649.83349 -20081380.18648  21003127.887    21003139.242
  24373627.040    17818556.25049  14060251.20445  24373627.068    24373647.594
  23404494.697    -8300683.85349  -6465419.11146  23404493.607    23404510.120
  21464128.400   -21825859.56549 -16744863.77947  21464127.564    21464139.953
  24344484.436    -7484774.50149  -4117636.17145  24344483.736    24344505.167
  21926260.241   -19525164.28449 -15195027.82647  21926260.106    21926273.500
  23990885.325     8049949.99749   6289021.72945  23990884.306    23990901.357
  21483281.318   -18576056.32249 -13890062.55947  21483280.684    21483291.986
 02  3  7  0 28  0.0000000  0 10G 6G23G17G30G22G15G21G26G10G18
  20514550.721   -14765269.96149 -11491298.43548  20514550.362    20514561.005
  20741485.726   -24584190.90249 -18878296.59048  20741485.009    20741495.501
  20997686.900   -25816245.83949 -20103662.73948  20997686.194    20997697.557
  24393227.778    17921557.90349  14140511.91945  24393227.859    24393248.522
  23401579.621    -8316001.89949  -6477355.17946  23401578.525    23401595.064
  21454755.976   -21875111.71449 -16783241.98147  21454755.142    21454767.507
  24327472.758    -7574169.48449  -4187294.20145  24327472.032    24327493.509
  21919127.262   -19562648.13649 -15224235.89147  21919127.114    21919140.473
  24010579.738     8153443.88649   6369666.15545  24010578.742    24010595.805
  21469957.965   -18646070.46349 -13944618.90747  21469957.338    21469968.626
 02  3  7  0 28 30.0000000  0 10G 6G23G17G30G22G15G21G26G10G18
  20521371.393   -14729427.42949 -11463369.21148  20521371.030    20521381.679
  20747247.640   -24553911.76449 -18854702.46248  20747246.920    20747257.436
  20992276.599   -25844677.05849 -20125816.88948  20992275.890    20992287.272
  24412815.554    18024491.52749  14220719.60345  24412815.540    24412836.464
  23398767.604    -8330778.82849  -6488869.60446  23398766.541    23398783.027
  21445416.621   -21924189.69249 -16821484.46247  21445415.798    21445428.183
  24310494.687    -7663387.85849  -4256814.63345  24310494.006    24310515.297
  21912102.933   -19599560.92949 -15252998.98047  21912102.797    21912116.088
  24030287.274     8257006.60549   6450364.20745  24030286.269    24030303.413
  21456708.971   -18715693.86949 -13998870.78847  21456708.360    21456719.641
 02  3  7  0 29  0.0000000  0 10G 6G23G17G30G22G15G21G26G10G18
  20528282.793   -14693107.83549 -11435068.26148  20528282.436    20528293.108
  20753087.934   -24523220.75249 -18830787.39248  20753087.217    20753097.760
  20986897.590   -25872943.62949 -20147842.74148  20986896.884    20986908.307
  24432389.760    18127353.96549  14300871.81745  24432389.768    24432410.893
  23396058.571    -8345014.68849  -6499962.41946  23396057.517    23396074.013
  21436110.480   -21973093.38749 -16859591.14947  21436109.650    21436122.047
  24293550.462    -7752428.36449  -4326196.47645  24293549.766    24293571.129
  21905187.600   -19635900.65849 -15281315.53247  21905187.464    21905200.695
  24050007.428     8360635.79649   6531114.06045  24050006.407    24050023.594
  21443534.541   -18784925.48849 -14052817.37547  21443533.921    21443545.154
 02  3  7  0 29 30.0000000  0 10G 6G23G17G30G22G15G21G26G10G18
  20535285.007   -14656311.20849 -11406395.59348  20535284.628    20535295.301
  20759006.315   -24492119.46249 -18806552.62348  20759005.609    20759016.167
  20981549.929   -25901045.58749 -20169740.32648  20981549.246    20981560.635
  24451950.110    18230142.99549  14380966.84045  24451950.096    24451971.345
  23393452.443    -8358709.63449  -6510633.73846  23393451.351    23393467.914
  21426837.542   -22021822.80949 -16897562.04447  21426836.700    21426849.072
  24276640.356    -7841289.71249  -4395438.73645  24276639.593    24276660.889
  21898381.651   -19671665.35349 -15309184.00247  21898381.526    21898394.736
  24069739.803     8464329.42049   6611914.14545  24069738.707    24069755.987
  21430434.847   -18853764.23049 -14106457.82447  21430434.239    21430445.441
 02  3  7  0 30  0.0000000  0 10G 6G23G17G30G22G15G21G26G10G18
  20542377.994   -14619037.56349 -11377351.22748  20542377.608    20542388.274
  20765002.405   -24460609.75949 -18781999.60748  20765001.708    20765012.249
  20976233.653   -25928982.68149 -20191509.45448  20976232.956    20976244.306
  24471495.945    18332855.83249  14461002.47845  24471496.015    24471517.348
  23390949.221    -8371863.77749  -6520883.65446  23390948.164    23390964.739
  21417597.789   -22070377.70849 -16935396.94847  21417596.936    21417609.298
  24259764.653    -7929970.80849  -4464540.54445  24259763.965    24259785.034
  21891685.561   -19706852.89249 -15336602.75347  21891685.442    21891698.608
  24089483.980     8568085.07549   6692762.54845  24089482.897    24089500.264
  21417410.134   -18922208.98549 -14159791.27847  21417409.546    21417420.705
 02  3  7  0 30 30.0000000  0 10G 6G23G17G30G22G15G21G26G10G18
  20549561.718   -14581286.89349 -11347935.14848  20549561.345    20549572.034
  20771075.908   -24428693.44949 -18757129.75148  20771075.194    20771085.757
  20970948.807   -25956754.83049 -20213150.05048  20970948.095    20970959.413
  24491026.872    18435489.84249  14540976.70045  24491026.894    24491048.179
  23388548.947    -8384477.02349  -6530712.10746  23388547.925    23388564.481
  21408391.217   -22118758.19549 -16973095.94147  21408390.380    21408402.697
  24242923.378    -8018470.79449  -4533501.23545  24242922.695    24242943.746
  21885099.745   -19741461.18149 -15363570.14247  21885099.601    21885112.750
  24109239.525     8671900.83149   6773657.79345  24109238.481    24109255.918
  21404460.611   -18990258.63949 -14212816.85847  21404460.021    21404471.158
 02  3  7  0 31  0.0000000  0 10G 6G23G17G30G22G15G21G26G10G18
  20556836.086   -14543059.75849 -11318147.80048  20556835.719    20556846.441
  20777226.332   -24396372.58749 -18731944.65948  20777225.626    20777236.199
  20965695.249   -25984362.30049 -20234662.32248  20965694.542    20965705.828
  24510542.292    18538042.35949  14620887.40945  24510542.244    24510563.669
  23386251.542    -8396549.88049  -6540119.47346  23386250.496    23386267.014
  21399217.805   -22166964.35749 -17010659.09547  21399216.950    21399229.279
  24226116.791    -8106788.71949  -4602320.06745  24226116.069    24226136.976
  21878624.426   -19775488.65149 -15390084.94647  21878624.314    21878637.449
  24129006.019     8775774.02349   6854597.79245  24129004.977    24129022.467
  21391586.430   -19057912.27449 -14265533.85247  21391585.833    21391596.982
 02  3  7  0 31 30.0000000  0 10G 6G23G17G30G22G15G21G26G10G18
  20564201.249   -14504355.46749 -11287988.64448  20564200.880    20564211.639
  20783453.629   -24363647.88049 -18706444.88348  20783452.895    20783463.495
  20960473.199   -26011804.14149 -20256045.53748  20960472.507    20960483.778
  24530041.764    18640511.85149  14700733.43245  24530041.785    24530063.269
  23384057.123    -8408081.52349  -6549105.12446  23384056.075    23384072.617
  21390077.812   -22214994.80749 -17048085.33447  21390076.958    21390089.307
  24209345.396    -8194921.62849  -4670994.73345  24209344.750    24209365.437
  21872260.248   -19808932.14949 -15416144.71647  21872260.119    21872273.255
  24148783.232     8879703.62349   6935581.75345  24148782.246    24148799.772
  21378787.983   -19125168.17349 -14317940.92547  21378787.384    21378798.522
 02  3  7  0 32  0.0000000  0 10G 6G23G17G30G22G15G21G26G10G18
  20571656.867   -14465176.03649 -11257459.25348  20571656.508    20571667.280
  20789757.052   -24330523.08849 -18680633.35148  20789756.331    20789766.953
  20955282.424   -26039081.78649 -20277300.81048  20955281.720    20955292.970
  24549524.570    18742893.68049  14780511.13645  24549524.627    24549546.191
  23381965.291    -8419073.85349  -6557670.52946  23381964.273    23381980.803
  21380970.933   -22262851.25949 -17085375.99047  21380970.093    21380982.431
  24192609.006    -8282870.19649  -4739525.74245  24192608.396    24192628.983
  21866007.257   -19841791.54649 -15441749.34447  21866007.138    21866020.205
  24168570.434     8983685.57449   7016606.50145  24168569.468    24168587.008
  21366065.159   -19192026.57649 -14370038.26647  21366064.541    21366075.647
 02  3  7  0 32 30.0000000  0 10G 6G23G17G30G22G15G21G26G10G18
  20579203.143   -14425520.31649 -11226558.72648  20579202.784    20579213.557
  20796136.517   -24296998.60549 -18654510.37048  20796135.795    20796146.446
  20950123.093   -26066194.00949 -20298427.18448  20950122.382    20950133.629
  24568990.604    18845187.09349  14860219.94945  24568990.671    24569012.154
  23379976.382    -8429525.65649  -6565814.74046  23379975.330    23379991.843
  21371897.536   -22310531.98249 -17122529.71547  21371896.694    21371908.990
  24175908.182    -8370631.90549  -4807911.15445  24175907.638    24175928.169
  21859866.032   -19874063.55049 -15466896.26247  21859865.930    21859878.942
  24188367.485     9087719.21949   7097671.54745  24188366.382    24188384.142
  21353418.384   -19258485.35149 -14421824.20547  21353417.767    21353428.840
 02  3  7  0 33  0.0000000  0 10G 6G23G17G30G22G15G21G26G10G18
  20586839.886   -14385389.15349 -11195287.72748  20586839.527    20586850.287
  20802591.625   -24263076.80849 -18628077.79648  20802590.906    20802601.538
  20944995.197   -26093141.19349 -20319424.96248  20944994.482    20945005.739
  24588439.183    18947388.62549  14939857.17745  24588439.167    24588460.819
  23378090.133    -8439437.68949  -6573538.35946  23378089.076    23378105.597
  21362857.467   -22358037.67949 -17159547.06247  21362856.632    21362868.883
  24159243.039    -8458206.13649  -4876150.47645  24159242.435    24159263.030
  21853836.850   -19905746.73249 -15491584.36047  21853836.734    21853849.749
  24208173.876     9191801.70849   7178774.64145  24208172.711    24208190.447
  21340847.744   -19324544.06649 -14473298.41647  21340847.129    21340858.167
 02  3  7  0 33 30.0000000  0 10G 6G23G17G30G22G15G21G26G10G18
  20594567.170   -14344782.17649 -11163645.96148  20594566.818    20594577.569
  20809122.092   -24228758.89149 -18601336.56248  20809121.365    20809132.005
  20939898.817   -26119922.56949 -20340293.53848  20939898.100    20939909.399
  24607869.968    19049496.36349  15019421.31445  24607869.976    24607891.709
  23376306.624    -8448809.64349  -6580841.14546  23376305.561    23376322.107
  21353850.820   -22405367.63549 -17196427.45947  21353849.967    21353862.191
  24142613.998    -8545591.31849  -4944242.49045  24142613.407    24142633.908
  21847920.146   -19936838.86349 -15515811.90647  21847920.030    21847933.051
  24227989.175     9295931.63849   7259914.68745  24227988.062    24228005.886
  21328353.558   -19390201.01249 -14524459.55747  21328352.929    21328363.930
 02  3  7  0 34  0.0000000  0 10G 6G23G17G30G22G15G21G26G10G18
  20602384.806   -14303700.39449 -11131634.21948  20602384.446    20602395.178
  20815727.457   -24194047.47449 -18574288.69948  20815726.732    20815737.373
  20934833.829   -26146538.88849 -20361033.48948  20934833.127    20934844.452
  24627282.248    19151507.05549  15098909.80745  24627282.207    24627304.087
  23374625.638    -8457642.69849  -6587724.00646  23374624.564    23374641.174
  21344877.489   -22452522.50749 -17233171.42647  21344876.649    21344888.849
  24126021.062    -8632786.82649  -5012186.71445  24126020.354    24126040.806
  21842116.159   -19967338.52549 -15539577.78747  21842116.058    21842129.060
  24247812.983     9400106.13949   7341089.49345  24247811.939    24247829.627
  21315935.901   -19455456.10549 -14575307.57147  21315935.255    21315946.201
 02  3  7  0 34 30.0000000  0 10G 6G23G17G30G22G15G21G26G10G18
  20610292.752   -14262144.00249 -11099252.65848  20610292.381    20610303.108
  20822407.424   -24158944.10749 -18546935.42648  20822406.698    20822417.351
  20929800.324   -26172989.75849 -20381644.52548  20929799.621    20929810.982
  24646675.539    19253418.52849  15178320.99345  24646675.522    24646697.337
  23373047.253    -8465936.67449  -6594186.81646  23373046.197    23373062.854
  21335937.550   -22499501.90749 -17269778.66747  21335936.699    21335948.893
  24109464.371    -8719791.35049  -5079982.10145  24109463.676    24109484.032
  21836425.298   -19997243.87749 -15562880.57047  21836425.177    21836438.173
  24267644.899     9504323.39649   7422297.58745  24267643.939    24267661.637
  21303594.908   -19520308.08449 -14625841.47147  21303594.279    21303605.183
 02  3  7  0 35  0.0000000  0 10G 6G23G17G30G22G15G21G26G10G18
  20618291.094   -14220112.59849 -11066500.95948  20618290.724    20618301.466
  20829161.726   -24123449.99649 -18519277.68048  20829161.002    20829171.626
  20924798.470   -26199274.38049 -20402126.01948  20924797.774    20924809.147
  24666049.591    19355228.73349  15257653.29345  24666049.578    24666071.706
  23371571.601    -8473691.35849  -6600229.40346  23371570.578    23371587.161
  21327031.221   -22546304.61249 -17306248.22847  21327030.354    21327042.519
  24092944.317    -8806603.70149  -5147627.74745  24092943.593    24092963.958
  21830848.021   -20026552.28849 -15585718.20047  21830847.928    21830860.869
  24287484.731     9608582.03449   7503537.98045  24287483.695    24287501.458
  21291330.904   -19584755.28249 -14676059.95647  21291330.269    21291341.173
 02  3  7  0 35 30.0000000  0  9G 6G23G17G22G15G21G26G10G18
  20626379.836   -14177606.01349 -11033378.98248  20626379.475    20626390.223
  20835990.117   -24087566.69749 -18491316.66748  20835989.385    20836000.028
  20919828.378   -26225392.32749 -20422477.63748  20919827.685    20919839.023
  23370198.564    -8480906.60949  -6605851.64346  23370197.499    23370214.134
  21318158.597   -22592930.26549 -17342579.82547  21318157.727    21318169.850
  24076461.098    -8893221.88349  -5215122.08845  24076460.414    24076480.669
  21825384.725   -20055261.75649 -15608089.12247  21825384.641    21825397.561
  24307332.117     9712880.31549   7584809.24845  24307331.135    24307348.821
  21279144.173   -19648796.36049 -14725961.98147  21279143.556    21279154.437
 02  3  7  0 36  0.0000000  0  9G 6G23G17G22G15G21G26G10G18
  20634559.167   -14134623.53949 -10999886.18448  20634558.792    20634569.572
  20842892.393   -24051294.86949 -18463052.90848  20842891.676    20842902.295
  20914890.285   -26251342.22249 -20442698.30448  20914889.583    20914900.885
  23368928.335    -8487581.61149  -6611052.93146  23368927.288    23368943.875
  21309319.966   -22639377.36349 -17378772.29047  21309319.105    21309331.186
  24060015.465    -8979643.33849  -5282463.13745  24060014.738    24060034.894
  21820035.997   -20083369.34349 -15629991.04747  21820035.904    21820048.800
  24327186.914     9817217.36149   7666110.73745  24327186.039    24327203.561
  21267035.089   -19712429.49549 -14775546.12747  21267034.479    21267045.335
 02  3  7  0 36 30.0000000  0  9G 6G23G17G22G15G21G26G10G18
  20642828.257   -14091169.21649 -10966025.71448  20642827.888    20642838.681
  20849867.584   -24014640.09449 -18434490.75048  20849866.857    20849877.489
  20909983.465   -26277127.62549 -20462790.79648  20909982.760    20909994.021
  23367760.111    -8493720.51649  -6615836.47946  23367759.057    23367775.688
  21300514.588   -22685649.57649 -17414828.48747  21300513.721    21300525.804
  24043606.607    -9065871.01349  -5349653.19345  24043605.959    24043625.943
  21814801.414   -20110876.96749 -15651425.47347  21814801.308    21814814.173
  24347048.019     9921587.28649   7747437.83045  24347047.060    24347064.613
  21255003.211   -19775657.09449 -14824814.27647  21255002.588    21255013.400
 02  3  7  0 37  0.0000000  0  9G 6G23G17G22G15G21G26G10G18
  20651187.046   -14047243.56249 -10931797.96948  20651186.671    20651197.490
  20856915.267   -23977604.25349 -18405631.65348  20856914.548    20856925.169
  20905107.953   -26302748.43549 -20482755.02848  20905107.255    20905118.503
  23366693.912    -8499323.53449  -6620202.44446  23366692.855    23366709.475
  21291742.533   -22731746.61549 -17450748.18747  21291741.674    21291753.744
  24027234.884    -9151903.36449  -5416691.04845  24027234.163    24027254.142
  21809681.296   -20137782.77049 -15672390.93747  21809681.202    21809694.086
  24366914.958    10025988.18149   7828789.07645  24366913.936    24366931.543
  21243048.643   -19838478.30249 -14873765.75747  21243048.024    21243058.787
 02  3  7  0 37 30.0000000  0  9G 6G23G17G22G15G21G26G10G18
  20659635.925   -14002844.47149 -10897201.31648  20659635.552    20659646.437
  20864035.559   -23940186.79449 -18376475.19348  20864034.839    20864045.456
  20900264.309   -26328201.96149 -20502588.90848  20900263.609    20900274.829
  23365729.987    -8504388.79949  -6624149.38646  23365728.972    23365745.593
  21283004.327   -22777665.87349 -17486529.35847  21283003.463    21283015.544
  24010901.052    -9237736.95849  -5483574.02545  24010900.400    24010920.206
  21804676.512   -20164082.70349 -15692884.29947  21804676.457    21804689.251
  24386787.890    10130420.39349   7910164.70945  24386786.919    24386804.492
  21231172.032   -19900889.81649 -14922397.99647  21231171.416    21231182.115
 02  3  7  0 38  0.0000000  0  9G 6G23G17G22G15G21G26G10G18
  20668174.412   -13957974.41249 -10862237.66848  20668174.051    20668184.958
  20871227.746   -23902391.65849 -18347024.44348  20871227.040    20871237.654
  20895452.083   -26353490.16449 -20522293.95948  20895451.390    20895462.604
  23364867.973    -8508918.67949  -6627679.15446  23364866.949    23364883.549
  21274299.572   -22823409.29649 -17522173.52147  21274298.710    21274310.791
  23994604.950    -9323372.29549  -5550302.53145  23994604.352    23994624.033
  21799786.967   -20189777.23749 -15712905.91647  21799786.882    21799799.660
  24406666.014    10234879.81649   7991561.56345  24406665.057    24406682.647
  21219373.190   -19962892.82749 -14970711.91747  21219372.554    21219383.221
 02  3  7  0 38 30.0000000  0  9G 6G23G17G22G15G21G26G10G18
  20676802.714   -13912632.61849 -10826906.43748  20676802.338    20676813.249
  20878491.699   -23864219.53549 -18317279.93548  20878490.971    20878501.585
  20890671.623   -26378611.62549 -20541869.08048  20890670.929    20890682.122
  23364107.975    -8512912.61549  -6630791.29446  23364106.975    23364123.514
  21265628.548   -22868975.50849 -17557679.60547  21265627.722    21265639.777
  23978346.889    -9408807.55349  -5616875.11845  23978346.266    23978365.896
  21795013.148   -20214863.60349 -15732453.64247  21795013.067    21795025.809
  24426549.222    10339366.06049   8072979.31745  24426548.202    24426565.898
  21207652.429   -20024485.42149 -15018706.03647  21207651.788    21207662.430
 02  3  7  0 39  0.0000000  0  9G 6G23G17G22G15G21G26G10G18
  20685520.618   -13866819.87249 -10791208.23248  20685520.252    20685531.148
  20885826.911   -23825672.65449 -18287243.40948  20885826.164    20885836.803
  20885922.850   -26403566.58949 -20561314.46348  20885922.137    20885933.314
  23363449.892    -8516371.28249  -6633486.35746  23363448.831    23363465.350
  21256991.224   -22914364.59949 -17593047.67047  21256990.392    21257002.440
  23962127.093    -9494042.07649  -5683291.29745  23962126.525    23962145.948
  21790355.262   -20239340.48049 -15751526.44047  21790355.191    21790367.863
  24446436.987    10443876.55349   8154415.96045  24446436.004    24446453.761
  21196009.890   -20085666.94449 -15066379.83947  21196009.248    21196019.881
 02  3  7  0 39 30.0000000  0  9G 6G23G17G22G15G21G26G10G18
  20694328.183   -13820536.05549 -10755142.96248  20694327.825    20694338.700
  20893233.209   -23786752.25049 -18256915.82748  20893232.476    20893243.109
  20881205.877   -26428354.30349 -20580629.51548  20881205.163    20881216.320
  23362893.551    -8519294.64749  -6635764.28246  23362892.526    23362909.018
  21248387.785   -22959575.64349 -17628277.00247  21248386.948    21248399.009
  23945945.786    -9579074.22849  -5749549.79645  23945945.227    23945964.518
  21785813.868   -20263205.62649 -15770122.57247  21785813.775    21785826.390
  24466329.123    10548409.79349   8235870.33045  24466328.103    24466345.948
  21184445.841   -20146435.86149 -15113732.13347  21184445.214    21184455.848
 02  3  7  0 40  0.0000000  0  9G 6G23G17G22G15G21G26G10G18
  20703225.141   -13773782.34749 -10718711.54148  20703224.776    20703235.636
  20900710.062   -23747460.98649 -18226299.26948  20900709.340    20900719.981
  20876520.650   -26452975.27549 -20599814.64048  20876519.936    20876531.077
  23362438.868    -8521684.02349  -6637626.11746  23362437.811    23362454.325
  21239818.158   -23004609.14449 -17663367.99347  21239817.331    21239829.399
  23929803.176    -9663903.24149  -5815649.99745  23929802.593    23929821.793
  21781388.992   -20286458.40149 -15788241.53047  21781388.859    21781401.474
  24486225.047    10652963.03849   8317340.30445  24486223.979    24486241.841
  21172960.347   -20206792.23549 -15160762.96847  21172959.725    21172970.356
 02  3  7  0 40 30.0000000  0  9G 6G23G17G22G15G21G26G10G18
  20712211.492   -13726558.95349 -10681914.12648  20712211.125    20712221.980
  20908257.245   -23707800.50449 -18195395.00848  20908256.515    20908267.139
  20871867.227   -26477428.86849 -20618869.33648  20871866.528    20871877.649
  23362085.725    -8523539.47449  -6639071.91446  23362084.665    23362101.137
  21231282.352   -23049464.77249 -17698320.37947  21231281.510    21231293.561
  23913699.401    -9748527.98549  -5881591.03145  23913698.771    23913717.837
  21777080.930   -20309096.87749 -15805881.82047  21777080.801    21777093.411
  24506124.501    10757534.82649   8398824.70545  24506123.414    24506141.350
  21161553.584   -20266734.80349 -15207471.35147  21161552.952    21161563.581
 02  3  7  0 41  0.0000000  0  9G 6G23G17G22G15G21G26G10G18
  20721287.172   -13678866.11449 -10644750.92148  20721286.812    20721297.637
  20915874.305   -23667772.49749 -18164204.36948  20915873.582    20915884.197
  20867245.775   -26501714.76749 -20637793.36648  20867245.067    20867256.180
  23361834.145    -8524861.38449  -6640101.96146  23361833.120    23361849.614
  21222780.533   -23094141.80949 -17733133.61047  21222779.695    21222791.745
  23897634.732    -9832947.25149  -5947371.95845  23897634.053    23897652.992
  21772890.158   -20331119.20649 -15823041.99747  21772890.022    21772902.657
  24526027.136    10862123.30449   8480322.10245  24526026.035    24526043.934
  21150225.725   -20326262.56149 -15253856.51547  21150225.104    21150235.728
 02  3  7  0 41 30.0000000  0  9G 6G23G17G22G15G21G26G10G18
  20730452.056   -13630704.53349 -10607222.45948  20730451.707    20730462.521
  20923560.955   -23627378.97949 -18132728.91448  20923560.221    20923570.833
  20862656.217   -26525832.81949 -20656586.60348  20862655.494    20862666.605
  23361683.916    -8525650.51149  -6640716.86346  23361682.814    23361699.466
  21214312.744   -23138640.13049 -17767807.57747  21214311.908    21214323.927
  23881609.301    -9917160.16549  -6012992.08845  23881608.626    23881627.531
  21768816.826   -20352524.15449 -15839721.10147  21768816.692    21768829.369
  24545932.598    10966726.66749   8561831.12145  24545931.515    24545949.388
  21138976.926   -20385374.78649 -15299917.88847  21138976.311    21138986.938
 02  3  7  0 42  0.0000000  0  9G 6G23G17G22G15G21G26G10G18
  20739705.984   -13582075.23749 -10569329.53948  20739705.601    20739716.438
  20931316.732   -23586622.25649 -18100970.44348  20931316.011    20931326.593
  20858098.579   -26549783.25549 -20675249.22348  20858097.849    20858108.935
  23361634.898    -8525907.89849  -6640917.42546  23361633.798    23361650.447
  21205878.945   -23182959.84749 -17802342.36547  21205878.106    21205890.075
  23865623.340   -10001165.74249  -6078450.66045  23865622.694    23865641.509
  21764861.196   -20373310.57749 -15855918.22847  21764861.070    21764873.781
  24565840.401    11071342.49149   8643349.84245  24565839.273    24565857.158
  21127807.323   -20444071.01549 -15345655.10747  21127806.704    21127817.315
 02  3  7  0 42 30.0000000  0  9G 6G23G17G22G15G21G26G10G18
  20749048.890   -13532978.16149 -10531072.12448  20749048.513    20749059.385
  20939141.348   -23545503.67849 -18068930.00848  20939140.615    20939151.191
  20853572.976   -26573565.29849 -20693780.63648  20853572.252    20853583.308
  23361687.042    -8525633.55249  -6640703.65046  23361685.922    23361702.633
  21197479.257   -23227100.35049 -17836737.50547  21197478.421    21197490.342
  23849677.042   -10084962.65049  -6143746.63746  23849676.363    23849695.116
  21761023.648   -20393476.59949 -15871631.93447  21761023.547    21761036.230
  24585750.299    11175969.42749   8724877.21445  24585749.150    24585767.118
  21116717.120   -20502349.99349 -15391067.20047  21116716.502    21116727.083
 02  3  7  0 43  0.0000000  0  9G 6G23G17G22G15G21G26G10G18
  20758480.561   -13483414.45849 -10492451.10348  20758480.193    20758491.074
  20947034.326   -23504025.75449 -18036609.56748  20947033.610    20947044.198
  20849079.396   -26597179.12749 -20712180.97348  20849078.663    20849089.718
  23361840.162    -8524828.55049  -6640076.37846  23361839.105    23361855.849
  21189113.604   -23271061.91649 -17870993.20947  21189112.782    21189124.666
  23833770.523   -10168550.12749  -6208879.41445  23833769.845    23833788.672
  21757304.316   -20413021.38449 -15886861.55647  21757304.222    21757316.851
  24605661.715    11280604.73549   8806411.11045  24605660.516    24605678.670
  21105706.365   -20560211.56949 -15436154.04547  21105705.734    21105716.279
 02  3  7  0 43 30.0000000  0  9G 6G23G17G22G15G21G26G10G18
  20768001.089   -13433384.07749 -10453466.43048  20768000.712    20768011.587
  20954995.493   -23462189.60849 -18004009.98948  20954994.769    20955005.362
  20844617.936   -26620624.02149 -20730449.66848  20844617.202    20844628.246
  23362094.212    -8523493.07549  -6639035.74946  23362093.149    23362109.961
  21180782.215   -23314843.49249 -17905108.65747  21180781.390    21180793.227
  23817904.190   -10251926.56749  -6273847.75546  23817903.529    23817922.350
  21753703.630   -20431942.79049 -15901605.42847  21753703.515    21753716.135
  24625574.521    11385247.49149   8887950.81145  24625573.381    24625591.540
  21094775.300   -20617654.42549 -15480914.61248  21094774.671    21094785.180
 02  3  7  0 44  0.0000000  0  9G 6G23G17G22G15G21G26G10G18
  20777610.188   -13382887.84949 -10414118.76348  20777609.830    20777620.715
  20963024.408   -23419997.54849 -17971133.07748  20963023.681    20963034.260
  20840188.663   -26643899.95449 -20748586.72048  20840187.938    20840198.938
  23362449.095    -8521628.04249  -6637582.47846  23362448.024    23362464.883
  21172485.083   -23358445.07649 -17939083.85147  21172484.234    21172496.046
  23802078.255   -10335091.07649  -6338650.94745  23802077.495    23802096.327
  21750221.740   -20450239.88249 -15915862.82447  21750221.635    21750234.246
  24645488.161    11489895.45849   8969494.56045  24645487.115    24645505.509
  21083923.984   -20674678.06549 -15525348.52748  21083923.354    21083933.822
 02  3  7  0 44 30.0000000  0  9G 6G23G17G22G15G21G26G10G18
  20787307.700   -13331927.39649 -10374409.36348  20787307.327    20787318.221
  20971120.475   -23377452.36549 -17937981.00248  20971119.746    20971130.336
  20835791.402   -26667007.51549 -20766592.57748  20835790.682    20835801.652
  23362904.433    -8519235.10249  -6635717.83946  23362903.359    23362920.250
  21164222.085   -23401867.23349 -17972919.22647  21164221.235    21164233.033
  23786292.672   -10418043.38949  -6403288.80145  23786292.003    23786310.692
  21746858.781   -20467912.10849 -15929633.30747  21746858.673    21746871.238
  24665402.348    11594546.06449   9051040.36845  24665401.347    24665420.078
  21073152.410   -20731282.57949 -15569455.84748  21073151.791    21073162.237
 02  3  7  0 45  0.0000000  0  9G 6G23G17G22G15G21G26G10G18
  20797093.545   -13280502.65449 -10334338.17648  20797093.172    20797104.072
  20979283.469   -23334555.48149 -17904554.87248  20979282.755    20979293.339
  20831426.404   -26689945.62849 -20784466.40148  20831425.684    20831436.629
  23363460.225    -8516314.20649  -6633441.81046  23363459.174    23363476.034
  21155993.339   -23445109.06449 -18006614.08147  21155992.491    21156004.293
  23770547.698   -10500782.41949  -6467760.46745  23770547.093    23770565.562
  21743615.062   -20484957.60749 -15942915.43747  21743614.949    21743627.477
  24685317.052    11699198.21549   9132587.37445  24685316.111    24685334.738
  21062460.919   -20787466.54149 -15613235.46848  21062460.312    21062470.699
 02  3  7  0 45 30.0000000  0  9G 6G23G17G22G15G21G26G10G18
  20806967.493   -13228614.82949 -10293906.14647  20806967.106    20806978.030
  20987512.946   -23291309.39649 -17870856.63348  20987512.228    20987522.814
  20827093.542   -26712714.86049 -20802208.63148  20827092.824    20827103.764
  23364116.294    -8512866.82449  -6630755.53046  23364115.260    23364132.077
  21147798.884   -23488170.87349 -18040168.65547  21147798.054    21147809.831
  23754843.571   -10583307.29449  -6532065.26945  23754842.975    23754861.244
  21740490.779   -20501375.70549 -15955708.67947  21740490.682    21740503.172
  24705231.618    11803849.54749   9214133.77345  24705230.634    24705249.370
  21051849.445   -20843229.89449 -15656687.34148  21051848.818    21051859.214
 02  3  7  0 46  0.0000000  0  9G 6G23G17G22G15G21G26G10G18
  20816929.440   -13176264.61249 -10253113.81647  20816929.070    20816939.999
  20995808.535   -23247715.95549 -17836887.72048  20995807.815    20995818.405
  20822792.839   -26735314.94249 -20819819.05748  20822792.131    20822803.065
  23364872.448    -8508893.68149  -6627659.58646  23364871.376    23364888.175
  21139638.757   -23531052.41849 -18073582.76147  21139637.923    21139649.703
  23739180.302   -10665617.05249  -6596202.44045  23739179.699    23739197.905
  21737486.053   -20517165.22449 -15968012.12547  21737485.962    21737498.419
  24725145.728    11908497.84549   9295677.83245  24725144.688    24725163.344
  21041318.069   -20898572.04349 -15699811.00548  21041317.449    21041327.852
 02  3  7  0 46 30.0000000  0  9G 6G23G17G22G15G21G26G10G18
  20826979.344   -13123452.25349 -10211961.37747  20826978.962    20826989.911
  21004169.924   -23203776.61349 -17802649.27448  21004169.216    21004179.788
  20818524.528   -26757744.91749 -20837296.93348  20818523.816    20818534.735
  23365728.572    -8504395.08349  -6624154.13746  23365727.493    23365744.288
  21131513.046   -23573752.90749 -18106855.78647  21131512.219    21131524.013
  23723558.247   -10747710.05749  -6660170.72645  23723557.683    23723575.801
  21734601.319   -20532324.44049 -15979824.43147  21734601.219    21734613.631
  24745059.036    12013142.07549   9377218.72145  24745057.993    24745076.410
  21030867.101   -20953491.73749 -15742605.48248  21030866.484    21030876.892
 02  3  7  0 47  0.0000000  0  8G 6G23G17G22G15G21G26G18
  20837117.868   -13070174.23049 -10170446.08547  20837117.484    20837128.429
  21012597.602   -23159489.11449 -17768139.53748  21012596.872    21012607.447
  20814289.512   -26780000.22449 -20854638.70148  20814288.798    20814299.652
  23366685.365    -8499367.58649  -6620236.58546  23366684.221    23366700.978
  21123422.722   -23616267.49949 -18139983.95647  21123421.889    21123433.678
  23707978.467   -10829581.17349  -6723966.10145  23707977.929    23707995.935
  21731837.633   -20546847.84349 -15991141.30147  21731837.502    21731849.813
  21020497.453   -21007984.17849 -15785067.03448  21020496.843    21020507.265
 02  3  7  0 47 30.0000000  0  8G 6G23G17G22G15G21G26G18
  20847343.484   -13016438.37149 -10128574.03347  20847343.105    20847354.070
  21021089.743   -23114862.54949 -17733365.59248  21021089.003    21021099.610
  20810086.370   -26802087.86549 -20871849.82048  20810085.647    20810096.482
  23367741.238    -8493819.09949  -6615913.06946  23367740.070    23367756.748
  21115366.428   -23658603.29049 -18172972.80247  21115365.597    21115377.383
  23692439.755   -10911236.58149  -6787593.40845  23692439.206    23692457.166
  21729193.689   -20560741.55249 -16001967.50047  21729193.582    21729205.838
  21010207.896   -21062055.59249 -15827200.51448  21010207.286    21010217.715
 02  3  7  0 48  0.0000000  0  8G 6G23G17G22G15G21G26G18
  20857656.564   -12962242.91249 -10086343.85647  20857656.185    20857667.159
  21029646.514   -23069896.42649 -17698327.06048  21029645.769    21029656.390
  20805915.650   -26824004.96849 -20888928.05948  20805914.925    20805925.747
  23368896.525    -8487748.16849  -6611182.45446  23368895.400    23368911.976
  21107344.672   -23700757.57449 -18205820.21547  21107343.830    21107355.600
  23676942.714   -10992672.95749  -6851050.04246  23676942.125    23676960.046
  21726670.266   -20574001.91749 -16012300.19047  21726670.149    21726682.390
  20999999.049   -21115703.10849 -15869003.68348  20999998.444    21000008.833
 02  3  7  0 48 30.0000000  0  8G 6G23G17G22G15G21G26G18
  20868056.686   -12907590.07449 -10043757.28047  20868056.305    20868067.290
  21038267.278   -23024594.03549 -17663026.50247  21038266.541    21038277.170
  20801777.157   -26845752.68549 -20905874.31348  20801776.430    20801787.253
  23370150.708    -8481157.04149  -6606046.49046  23370149.662    23370166.213
  21099357.331   -23742731.21449 -18238526.86947  21099356.470    21099368.198
  23661487.377   -11073890.28749  -6914335.98146  23661486.814    23661504.615
  21724267.271   -20586629.28549 -16022139.63447  21724267.143    21724279.403
  20989870.705   -21168927.56349 -15910477.19548  20989870.085    20989880.433
 02  3  7  0 49  0.0000000  0  8G 6G23G17G22G15G21G26G18
  20878544.016   -12852479.03149 -10000813.67047  20878543.635    20878554.622
  21046951.888   -22978955.88249 -17627464.31347  21046951.159    21046961.826
  20797671.191   -26867329.19049 -20922687.15848  20797670.473    20797681.356
  23371503.981    -8474045.08849  -6600504.68946  23371502.945    23371519.548
  21091404.630   -23784522.43349 -18271091.37547  21091403.795    21091415.477
  23646074.248   -11154886.16849  -6977449.37446  23646073.684    23646091.357
  21721985.194   -20598621.21849 -16031483.94147  21721985.083    21721997.387
  20979823.288   -21221726.77349 -15951619.34548  20979822.671    20979832.976
 02  3  7  0 49 30.0000000  0  8G 6G23G17G22G15G21G26G18
  20889118.313   -12796910.79649  -9957513.80147  20889117.944    20889128.929
  21055700.050   -22932983.94749 -17591642.02947  21055699.313    21055710.010
  20793597.900   -26888734.19349 -20939366.35648  20793597.202    20793608.117
  23372956.174    -8466413.45649  -6594557.95146  23372955.169    23372971.735
  21083486.736   -23826130.88449 -18303513.46347  21083485.897    21083497.576
  23630703.228   -11235660.59049  -7040390.21046  23630702.596    23630720.235
  21719824.249   -20609976.60749 -16040332.23747  21719824.139    21719836.474
  20969856.897   -21274100.21049 -15992429.72048  20969856.271    20969866.521
 02  3  7  0 50  0.0000000  0  9G 6G23G17G29G22G15G21G26G18
  20899779.345   -12740886.92249  -9913858.88747  20899778.984    20899789.963
  21064511.210   -22886681.14249 -17555561.92847  21064510.473    21064521.166
  20789557.125   -26909968.22949 -20955912.32948  20789556.420    20789567.368
  24450322.823    -4177223.88149  -2976836.69145  24450322.245    24450345.347
  23374507.063    -8458263.77549  -6588207.53046  23374506.046    23374522.492
  21075603.542   -23867557.17449 -18335793.61147  21075602.694    21075614.339
  23615374.333   -11316213.19249  -7103158.19046  23615373.688    23615391.330
  21717784.443   -20620695.45549 -16048684.52647  21717784.321    21717796.667
  20959971.407   -21326048.38149 -16032908.71748  20959970.774    20959981.000
 02  3  7  0 50 30.0000000  0  9G 6G23G17G29G22G15G21G26G18
  20910525.340   -12684416.40049  -9869855.93847  20910524.975    20910535.966
  21073383.384   -22840057.43449 -17519231.77747  21073382.661    21073393.344
  20785547.443   -26931039.04349 -20972331.10848  20785546.735    20785557.692
  24430353.419    -4282161.67349  -3058605.78345  24430352.839    24430375.790
  23376154.779    -8449605.28749  -6581460.65146  23376153.735    23376170.144
  21067753.517   -23908809.01049 -18367937.82047  21067752.658    21067764.311
  23600086.408   -11396550.58649  -7165758.48646  23600085.751    23600103.387
  21715864.481   -20630784.75649 -16056546.25047  21715864.370    21715876.705
  20950165.409   -21377578.70849 -16073062.12248  20950164.793    20950174.988
 02  3  7  0 51  0.0000000  0  9G 6G23G17G29G22G15G21G26G18
  20921358.577   -12627487.55149  -9825495.85147  20921358.215    20921369.183
  21082318.651   -22793102.51649 -17482643.54547  21082317.915    21082328.600
  20781571.258   -26951933.89549 -20988612.78048  20781570.558    20781581.511
  24410376.600    -4387138.34049  -3140405.16845  24410376.099    24410398.814
  23377901.468    -8440426.42049  -6574308.27646  23377900.396    23377916.770
  21059939.095   -23949873.70649 -18399936.21647  21059938.258    21059949.895
  23584841.995   -11476659.55949  -7228180.78746  23584841.324    23584858.853
  21714066.836   -20640231.22449 -16063907.07547  21714066.735    21714079.038
  20940441.461   -21428677.97549 -16112879.63948  20940440.845    20940450.997
 02  3  7  0 51 30.0000000  0  9G 6G23G17G29G22G15G21G26G18
  20932278.681   -12570102.33849  -9780780.15947  20932278.305    20932289.278
  21091316.324   -22745819.42049 -17445799.59647  21091315.596    21091326.254
  20777628.445   -26972653.43949 -21004757.84648  20777627.738    20777638.685
  24390392.745    -4492152.66649  -3222233.90645  24390392.343    24390414.650
  23379746.799    -8430729.20549  -6566752.01546  23379745.769    23379762.118
  21052160.212   -23990751.82649 -18431789.23047  21052159.353    21052170.980
  23569640.982   -11556540.34649  -7290425.28446  23569640.258    23569657.806
  21712391.472   -20649034.97149 -16070767.07547  21712391.364    21712403.632
  20930799.430   -21479346.96849 -16152361.87948  20930798.820    20930808.892
 02  3  7  0 52  0.0000000  0  9G 6G23G17G29G22G15G21G26G18
  20943284.934   -12512264.43049  -9735711.71647  20943284.566    20943295.570
  21100375.585   -22698212.82449 -17408703.56647  21100374.854    21100385.501
  20773718.513   -26993200.10149 -21020768.19648  20773717.804    20773728.764
  24370401.626    -4597204.39649  -3304091.79745  24370401.233    24370423.230
  23381689.999    -8420517.57349  -6558794.89846  23381688.963    23381705.386
  21044416.316   -24031445.90849 -18463498.83647  21044415.455    21044427.087
  23554483.063   -11636194.80749  -7352493.43446  23554482.321    23554499.793
  21710838.096   -20657197.87649 -16077127.71647  21710837.970    21710850.211
  20921238.869   -21529587.87649 -16191510.54748  20921238.268    20921248.279
 02  3  7  0 52 30.0000000  0  9G 6G23G17G29G22G15G21G26G18
  20954377.624   -12453972.02849  -9690289.12047  20954377.256    20954388.319
  21109496.554   -22650281.99149 -17371354.88447  21109495.820    21109506.450
  20769842.047   -27013570.91949 -21036641.52748  20769841.348    20769852.312
  24350404.348    -4702288.54149  -3385974.95145  24350403.917    24350425.816
  23383731.381    -8409789.82049  -6550435.61846  23383730.341    23383746.839
  21036708.082   -24071952.79449 -18495062.57147  21036707.221    21036718.826
  23539368.849   -11715619.40449  -7414382.45346  23539368.185    23539385.454
  21709407.348   -20664716.29749 -16082986.16647  21709407.240    21709419.442
  20911760.380   -21579397.39849 -16230323.06748  20911759.770    20911769.763
 02  3  7  0 53  0.0000000  0  9G 6G23G17G29G22G15G21G26G18
  20965556.260   -12395227.99849  -9644514.60747  20965555.908    20965567.006
  21118678.445   -22602030.81449 -17333756.58247  21118677.703    21118688.312
  20765998.777   -27033767.24049 -21052378.88048  20765998.069    20766009.042
  24330401.071    -4807404.24949  -3467882.72445  24330400.665    24330422.566
  23385870.379    -8398549.02249  -6541676.55746  23385869.399    23385885.842
  21029035.137   -24112274.17049 -18526481.75547  21029034.273    21029045.845
  23524298.188   -11794815.13749  -7476093.13746  23524297.528    23524314.737
  21708099.009   -20671591.51149 -16088343.41747  21708098.886    21708111.045
  20902363.637   -21628777.24149 -16268800.77548  20902363.015    20902373.000
 02  3  7  0 53 30.0000000  0  9G 6G23G17G29G22G15G21G26G18
  20976820.325   -12336035.24849  -9598390.44647  20976819.970    20976831.074
  21127920.518   -22553463.43449 -17295911.89347  21127919.766    21127930.380
  20762188.373   -27053790.87649 -21067981.67748  20762187.676    20762198.628
  24310391.952    -4912550.82249  -3549814.58245  24310391.447    24310413.365
  23388106.482    -8386798.30249  -6532520.16246  23388105.491    23388121.894
  21021397.160   -24152411.74049 -18557757.71847  21021396.300    21021407.875
  23509270.954   -11873782.65249  -7537626.00346  23509270.261    23509287.424
  21706912.810   -20677824.78549 -16093200.45647  21706912.697    21706924.869
  20893048.351   -21677728.96649 -16306944.89048  20893047.734    20893057.727
 02  3  7  0 54  0.0000000  0  9G 6G23G17G29G22G15G21G26G18
  20988169.953   -12276392.79949  -9551915.86847  20988169.583    20988180.729
  21137222.748   -22504580.01249 -17257820.92847  21137221.996    21137232.611
  20758411.289   -27073639.66049 -21083448.21948  20758410.581    20758421.515
  24290377.768    -5017723.79949  -3631767.02345  24290377.343    24290399.087
  23390439.839    -8374536.81749  -6522965.76046  23390438.806    23390455.214
  21013794.646   -24192363.01949 -18588888.51847  21013793.783    21013805.350
  23494287.597   -11952519.69349  -7598979.27146  23494286.924    23494303.976
  21705849.283   -20683413.55749 -16097555.28847  21705849.163    21705861.339
  20883814.972   -21726250.30749 -16344753.63448  20883814.356    20883824.351
 02  3  7  0 54 30.0000000  0  9G 6G23G17G29G22G15G21G26G18
  20999604.759   -12216302.53949  -9505092.35047  20999604.386    20999615.567
  21146584.563   -22455383.33249 -17219485.87747  21146583.815    21146594.440
  20754667.352   -27093314.04749 -21098778.86948  20754666.643    20754677.526
  24270358.966    -5122921.26849  -3713738.57345  24270358.561    24270380.218
  23392869.915    -8361766.74249  -6513015.06646  23392868.924    23392885.290
  21006227.409   -24232128.73349 -18619874.73047  21006226.542    21006238.130
  23479348.010   -12031026.42849  -7660153.08846  23479347.337    23479364.364
  21704908.360   -20688357.81649 -16101407.90047  21704908.235    21704920.407
  20874663.435   -21774341.47949 -16382227.18848  20874662.812    20874672.808
 02  3  7  0 55  0.0000000  0  9G 6G23G17G29G22G15G21G26G18
  21011124.668   -12155765.26749  -9457920.51847  21011124.291    21011135.471
  21156005.673   -22405875.08249 -17180908.04547  21156004.923    21156015.565
  20750956.775   -27112813.25649 -21113973.02148  20750956.052    20750966.904
  24250336.024    -5228140.24749  -3795726.90345  24250335.613    24250357.161
  23395396.657    -8348488.97649  -6502668.76146  23395395.625    23395411.968
  20998695.621   -24271708.16749 -18650715.79047  20998694.766    20998706.340
  23464452.496   -12109301.63449  -7721146.50346  23464451.879    23464468.829
  21704090.230   -20692656.78249 -16104757.69447  21704090.121    21704102.273
  20865593.896   -21822001.81649 -16419365.03348  20865593.271    20865603.265
 02  3  7  0 55 30.0000000  0  9G 6G23G17G29G22G15G21G26G18
  21022729.371   -12094782.40849  -9410401.46647  21022729.007    21022740.193
  21165485.600   -22356057.78549 -17142089.39247  21165484.850    21165495.504
  20747279.474   -27132137.45149 -21129030.79448  20747278.768    20747289.617
  24230309.415    -5333378.73649  -3877730.44645  24230308.997    24230330.390
  23398019.612    -8334705.11849  -6491928.09746  23398018.569    23398034.957
  20991199.287   -24311101.37549 -18681411.73247  20991198.436    20991209.975
  23449601.252   -12187344.71849  -7781959.05146  23449600.580    23449617.508
  21703394.958   -20696310.09849 -16107604.37747  21703394.832    21703406.999
  20856606.335   -21869231.36549 -16456167.19048  20856605.713    20856615.700
 02  3  7  0 56  0.0000000  0  9G 6G23G17G29G22G15G21G26G18
  21034418.791   -12033354.38649  -9362535.53547  21034418.435    21034429.616
  21175024.099   -22305932.67949 -17103030.88447  21175023.356    21175034.002
  20743635.676   -27151285.67949 -21143951.45248  20743634.950    20743645.816
  24210279.722    -5438633.17949  -3959746.43145  24210279.353    24210300.767
  23400738.832    -8320415.62149  -6480793.43946  23400737.776    23400754.156
  20983738.636   -24350307.21449 -18711961.67147  20983737.791    20983749.303
  23434794.414   -12265154.37449  -7842589.70646  23434793.731    23434810.574
  21702822.812   -20699316.53349 -16109946.99847  21702822.689    21702834.860
  20847700.927   -21916029.27749 -16492633.01048  20847700.298    20847710.262
 02  3  7  0 56 30.0000000  0  9G 6G23G17G29G22G15G21G26G18
  21046192.508   -11971483.21149  -9314324.29447  21046192.154    21046203.341
  21184620.575   -22255502.86649 -17063734.94447  21184619.843    21184630.502
  20740025.238   -27170258.47249 -21158735.41548  20740024.520    20740035.372
  24190247.389    -5543902.00049  -4041773.63845  24190246.931    24190268.215
  23403553.746    -8305622.95249  -6469266.70346  23403552.708    23403569.103
  20976313.506   -24389326.23849 -18742366.04347  20976312.671    20976324.135
  23420031.865   -12342731.12749  -7903038.88546  23420031.210    23420047.996
  21702373.677   -20701676.57549 -16111785.93747  21702373.550    21702385.711
  20838877.577   -21962396.19049 -16528762.98848  20838876.946    20838886.877
 02  3  7  0 57  0.0000000  0  9G 6G23G17G29G22G15G21G26G18
  21058050.455   -11909169.56549  -9265768.26647  21058050.105    21058061.329
  21194274.783   -22204769.87549 -17024202.76347  21194274.039    21194284.697
  20736448.357   -27189054.97849 -21173382.00948  20736447.646    20736458.494
  24170212.918    -5649181.93049  -4123809.49445  24170212.561    24170233.649
  23406464.319    -8290327.82249  -6457348.43946  23406463.233    23406479.693
  20968924.091   -24428157.65849 -18772624.22447  20968923.247    20968934.684
  23405313.983   -12420073.40649  -7963305.37246  23405313.279    23405329.966
  21702047.746   -20703389.22749 -16113120.42247  21702047.615    21702059.720
  20830136.349   -22008331.34249 -16564556.53148  20830135.717    20830145.614
 02  3  7  0 57 30.0000000  0  9G 6G23G17G29G22G15G21G26G18
  21069992.383   -11846414.34049  -9216868.15547  21069992.038    21070003.305
  21203986.286   -22153735.68549 -16984435.88247  21203985.546    21203996.196
  20732905.083   -27207674.68849 -21187890.83948  20732904.379    20732915.241
  24150176.842    -5754470.38249  -4205852.00645  24150176.451    24150197.549
  23409470.254    -8274531.52449  -6445039.66346  23409469.152    23409485.598
  20961570.415   -24466801.15649 -18802735.97147  20961569.568    20961580.989
  23390640.764   -12497180.57549  -8023388.64746  23390640.068    23390656.674
  21701845.130   -20704453.88849 -16113949.98547  21701845.005    21701857.104
  20821477.416   -22053834.24249 -16600013.25648  20821476.782    20821486.637
 02  3  7  0 58  0.0000000  0  9G 6G23G17G29G22G15G21G26G18
  21082018.046   -11783219.33049  -9167625.35247  21082017.713    21082029.020
  21213754.599   -22102402.94049 -16944436.35647  21213753.854    21213764.506
  20729395.418   -27226117.95249 -21202262.17348  20729394.709    20729405.601
  24130139.610    -5859765.27449  -4287899.53545  24130139.193    24130160.097
  23412571.114    -8258235.96649  -6432341.84946  23412570.025    23412586.577
  20954252.483   -24505256.82149 -18832701.35947  20954251.634    20954263.046
  23376012.424   -12574052.06349  -8083288.28246  23376011.765    23376028.318
  21701765.812   -20704870.73049 -16114274.74647  21701765.670    21701777.718
  20812900.700   -22098905.06649 -16635133.30048  20812900.059    20812909.862
 02  3  7  0 58 30.0000000  0  9G 6G23G17G29G22G15G21G26G18
  21094127.487   -11719584.01449  -9118039.46147  21094127.160    21094138.494
  21223579.603   -22050772.09949 -16904204.54447  21223578.862    21223589.565
  20725919.739   -27244382.58849 -21216494.31948  20725919.025    20725929.910
  24110101.940    -5965062.09949  -4369948.58445  24110101.665    24110122.387
  23415767.060    -8241440.89949  -6419254.81346  23415765.983    23415782.590
  20946970.686   -24543522.69949 -18862518.85947  20946969.835    20946981.223
  23361429.422   -12650685.55249  -8143002.46446  23361428.700    23361445.247
  21701810.118   -20704637.65449 -16114093.08247  21701809.990    21701822.036
  20804406.442   -22143542.22249 -16669915.42048  20804405.800    20804415.581
 02  3  7  0 59  0.0000000  0  9G 6G23G17G29G22G15G21G26G18
  21106320.112   -11655511.58349  -9068112.96647  21106319.759    21106331.131
  21233460.614   -21998847.12449 -16863743.53947  21233459.892    21233470.613
  20722477.787   -27262470.15549 -21230588.49648  20722477.068    20722487.942
  24090064.019    -6070360.19649  -4451998.60745  24090063.697    24090084.393
  23419057.497    -8224149.53949  -6405781.06346  23419056.415    23419073.034
  20939724.694   -24581600.30649 -18892189.65747  20939723.861    20939735.238
  23346891.287   -12727082.56549  -8202532.38646  23346890.614    23346907.127
  21701977.758   -20703756.18749 -16113406.18447  21701977.653    21701989.700
  20795994.416   -22187747.20049 -16704360.77948  20795993.783    20796003.563
 02  3  7  0 59 30.0000000  0  9G 6G23G17G29G22G15G21G26G18
  21118595.902   -11591002.22049  -9017846.00447  21118595.551    21118606.949
  21243397.364   -21946629.13949 -16823054.21347  21243396.623    21243407.373
  20719069.749   -27280379.39449 -21244543.71448  20719069.027    20719079.891
  24070026.571    -6175655.95349  -4534046.80945  24070026.198    24070046.866
  23422442.174    -8206362.44849  -6391921.02646  23422441.092    23422457.905
  20932514.819   -24619488.20649 -18921712.62047  20932514.002    20932525.347
  23332398.578   -12803241.14149  -8261876.50646  23332397.907    23332414.351
  21702269.099   -20702224.97049 -16112212.97947  21702269.002    21702281.060
  20787664.858   -22231519.02149 -16738468.61648  20787664.230    20787673.986
 02  3  7  1  0  0.0000000  0  9G 6G23G17G29G22G15G21G26G18
  21130954.655   -11526056.89649  -8967239.32747  21130954.295    21130965.715
  21253389.490   -21894120.23149 -16782138.18847  21253388.745    21253399.516
  20715695.729   -27298109.82249 -21258359.59148  20715695.013    20715705.855
  24049990.052    -6280946.66949  -4616091.07145  24049989.650    24050010.295
  23425921.011    -8188081.11249  -6377675.86046  23425919.933    23425936.793
  20925341.100   -24657186.17949 -18951087.58547  20925340.269    20925351.597
  23317951.440   -12879160.68249  -8321034.36546  23317950.749    23317967.096
  21702684.148   -20700043.87149 -16110513.36747  21702684.035    21702696.040
  20779417.847   -22274857.18549 -16772238.53548  20779417.209    20779426.948
 02  3  7  1  0 30.0000000  0  9G 6G23G17G29G22G15G21G26G18
  21143396.415   -11460675.33249  -8916292.72947  21143396.051    21143407.447
  21263436.896   -21841320.74249 -16740995.74947  21263436.149    21263446.926
  20712356.104   -27315659.55549 -21272034.67848  20712355.385    20712366.219
  24029955.302    -6386228.03649  -4698128.05845  24029954.920    24029975.434
  23429493.967    -8169305.13549  -6363045.25346  23429492.940    23429509.772
  20918203.854   -24694692.16549 -18980312.95647  20918203.020    20918214.343
  23303550.207   -12954838.63649  -8380003.96046  23303549.538    23303565.811
  21703223.246   -20697210.66249 -16108305.62847  21703223.131    21703235.088
  20771253.640   -22317759.87749 -16805669.13548  20771253.011    20771262.732
 02  3  7  1  1  0.0000000  0  9G 6G23G17G29G22G15G21G26G18
  21155920.075   -11394863.38349  -8865010.76347  21155919.712    21155931.107
  21273538.383   -21788237.24149 -16699631.99347  21273537.646    21273548.400
  20709050.125   -27333032.55249 -21285572.04648  20709049.393    20709060.220
  24009921.991    -6491501.91149  -4780159.19645  24009921.528    24009942.034
  23433159.943    -8150040.65049  -6348033.99046  23433158.951    23433175.735
  20911102.427   -24732010.25549 -19009391.92047  20911101.596    20911112.901
  23289194.119   -13030279.47249  -8438788.81246  23289193.467    23289209.627
  21703885.572   -20693729.86949 -16105593.28047  21703885.483    21703897.393
  20763171.478   -22360231.65749 -16838763.95948  20763170.846    20763180.532
 02  3  7  1  1 30.0000000  0  9G 6G23G17G29G22G15G21G26G18
  21168525.977   -11328619.27749  -8813392.04847  21168525.605    21168537.030
  21283694.097   -21734868.72849 -16658046.15747  21283693.356    21283704.081
  20705778.390   -27350225.50949 -21298969.12248  20705777.678    20705788.466
  23989891.173    -6596762.56449  -4862180.02645  23989890.705    23989911.128
  23436919.130    -8130286.04549  -6332640.81446  23436918.089    23436934.861
  20904037.444   -24769136.81949 -19038321.63847  20904036.597    20904047.912
  23274884.000   -13105479.00949  -8497385.62046  23274883.334    23274899.444
  21704671.832   -20689598.15749 -16102373.72147  21704671.708    21704683.616
  20755171.964   -22402269.25249 -16871520.45648  20755171.324    20755180.970
 02  3  7  1  2  0.0000000  0  9G 6G23G17G29G22G15G21G26G18
  21181213.887   -11261943.97149  -8761437.34547  21181213.511    21181224.954
  21293903.686   -21681217.15549 -16616239.75247  21293902.938    21293913.637
  20702541.103   -27367237.50649 -21312225.20248  20702540.380    20702551.175
  23969863.428    -6702006.99949  -4944188.23245  23969863.070    23969883.166
  23440771.369    -8110042.67349  -6316866.78046  23440770.342    23440787.052
  20897008.920   -24806071.51749 -19067101.85247  20897008.073    20897019.412
  23260619.974   -13180436.05249  -8555793.47946  23260619.288    23260635.386
  21705581.980   -20684815.04549 -16098646.57947  21705581.839    21705593.748
  20747255.118   -22443872.19849 -16903938.26548  20747254.495    20747264.146
 02  3  7  1  2 30.0000000  0  9G 6G23G17G29G22G15G21G26G18
  21193983.561   -11194839.08349  -8709147.89947  21193983.181    21193994.661
  21304166.655   -21627285.10349 -16574214.79747  21304165.893    21304176.546
  20699338.151   -27384068.97749 -21325340.61348  20699337.437    20699348.241
  23949839.199    -6807233.05349  -5026182.10245  23949838.832    23949858.889
  23444716.185    -8089312.52349  -6300713.43446  23444715.162    23444731.881
  20890016.902   -24842814.40849 -19095732.60147  20890016.063    20890027.430
  23246402.131   -13255150.50349  -8614012.30846  23246401.472    23246417.492
  21706616.009   -20679380.83749 -16094412.09547  21706615.893    21706627.759
  20739420.873   -22485040.87749 -16936017.68548  20739420.258    20739429.905
 02  3  7  1  3  0.0000000  0  9G 6G23G17G29G22G15G21G26G18
  21206834.720   -11127305.99149  -8656524.78547  21206834.354    21206845.856
  21314482.568   -21573074.63649 -16531972.90147  21314481.801    21314492.471
  20696169.648   -27400719.37449 -21338314.92348  20696168.930    20696179.719
  23929818.931    -6912438.19449  -5108159.69645  23929818.572    23929838.569
  23448753.339    -8068097.26649  -6284182.09146  23448752.336    23448768.990
  20883061.452   -24879365.19649 -19124213.66047  20883060.608    20883071.976
  23232230.405   -13329622.48749  -8672042.20746  23232229.722    23232245.744
  21707773.969   -20673295.63049 -16089670.33647  21707773.841    21707785.719
  20731669.333   -22525775.39649 -16967758.80148  20731668.695    20731678.315
 02  3  7  1  3 30.0000000  0  9G 6G23G17G29G22G15G21G26G18
  21219767.164   -11059345.77049  -8603568.84347  21219766.781    21219778.316
  21324851.142   -21518587.56049 -16489515.47047  21324850.383    21324861.057
  20693035.767   -27417187.99849 -21351147.59248  20693035.050    20693045.839
  23909803.277    -7017619.29149  -5190118.56745  23909802.939    23909822.754
  23452882.557    -8046398.12449  -6267273.69846  23452881.608    23452898.226
  20876142.727   -24915722.97749 -19152544.32747  20876141.888    20876153.270
  23218105.028   -13403850.83449  -8729882.26046  23218104.381    23218120.361
  21709055.874   -20666558.77949 -16084420.80247  21709055.763    21709067.656
  20724000.443   -22566075.19749 -16999161.17748  20723999.814    20724009.417
 02  3  7  1  4  0.0000000  0  9G 6G23G17G29G22G15G21G26G18
  21232780.642   -10990959.81549  -8550281.15747  21232780.272    21232791.799
  21335271.951   -21463825.80349 -16446843.99747  21335271.209    21335281.878
  20689936.492   -27433474.49449 -21363838.33548  20689935.786    20689946.593
  23889792.690    -7122773.71849  -5272056.67545  23889792.372    23889812.212
  23457103.545    -8024216.86749  -6249989.63746  23457102.566    23457119.195
  20869260.738   -24951887.44349 -19180724.35247  20869259.912    20869271.307
  23204026.247   -13477834.50049  -8787531.65546  23204025.588    23204041.513
  21710461.764   -20659170.53349 -16078663.68447  21710461.630    21710473.536
  20716414.287   -22605940.42349 -17030224.92248  20716413.665    20716423.233
 02  3  7  1  4 30.0000000  0  9G 6G23G17G29G22G15G21G26G18
  21245874.800   -10922149.84749  -8496663.07247  21245874.427    21245885.971
  21345744.558   -21408791.81449 -16403960.39847  21345743.829    21345754.521
  20686871.964   -27449578.55849 -21376386.92648  20686871.267    20686882.074
  23869787.662    -7227899.13349  -5353972.18145  23869787.331    23869807.072
  23461415.875    -8001555.31149  -6232331.31046  23461414.961    23461431.544
  20862415.680   -24987858.32149 -19208753.53747  20862414.841    20862426.216
  23189994.075   -13551573.14249  -8844990.12646  23189993.382    23190009.278
  21711991.639   -20651130.97649 -16072399.04547  21711991.521    21712003.397
  20708910.833   -22645371.17849 -17060950.12448  20708910.220    20708919.752
 02  3  7  1  5  0.0000000  0  9G 6G23G17G29G22G15G21G26G18
  21259049.533   -10852916.44149  -8442715.03147  21259049.156    21259060.725
  21356268.711   -21353487.20749 -16360865.92247  21356267.963    21356278.676
  20683842.315   -27465499.39349 -21388792.73848  20683841.604    20683852.391
  23849788.843    -7332992.19249  -5435862.49145  23849788.536    23849807.977
  23465819.460    -7978414.55549  -6214299.57946  23465818.492    23465835.132
  20855607.572   -25023634.87149 -19236631.29647  20855606.734    20855618.071
  23176008.706   -13625066.11649  -8902257.16746  23176008.014    23176023.839
  21713645.596   -20642439.47249 -16065626.39847  21713645.466    21713657.289
  20701490.197   -22684366.65349 -17091336.13848  20701489.587    20701499.103
 02  3  7  1  5 30.0000000  0  9G 6G23G17G29G22G15G21G26G18
  21272304.279   -10783262.41549  -8388439.24747  21272303.900    21272315.538
  21366843.711   -21297915.26049 -16317563.13747  21366842.972    21366853.698
  20680847.369   -27481237.81449 -21401056.42448  20680846.648    20680857.414
  23829796.461    -7438051.56049  -5517726.55845  23829796.176    23829815.486
  23470313.718    -7954797.62249  -6195896.79846  23470312.760    23470329.338
  20848836.310   -25059217.98149 -19264358.32647  20848835.462    20848846.768
  23162069.929   -13698314.15349  -8959333.34746  23162069.223    23162084.973
  21715423.332   -20633097.41349 -16058346.83047  21715423.205    21715434.973
  20694152.101   -22722928.34749 -17121384.14648  20694151.477    20694161.002
 02  3  7  1  6  0.0000000  0  9G 6G23G17G29G22G15G21G26G18
  21285639.101   -10713187.56749  -8333835.54647  21285638.719    21285650.379
  21377469.515   -21242076.37249 -16274052.34447  21377468.756    21377479.534
  20677887.545   -27496791.73649 -21413176.33848  20677886.837    20677897.590
  23809811.239    -7543072.89249  -5599561.00045  23809810.942    23809830.142
  23474898.520    -7930704.39749  -6177122.88346  23474897.526    23474914.098
  20842102.233   -25094605.30549 -19291932.79047  20842101.393    20842112.684
  23148178.155   -13771314.70949  -9016216.68846  23148177.471    23148193.184
  21717325.110   -20623103.40049 -16050559.24747  21717324.959    21717336.715
  20686896.856   -22761054.73249 -17151092.95448  20686896.230    20686905.731
 02  3  7  1  6 30.0000000  0  9G 6G23G17G29G22G15G21G26G18
  21299053.696   -10642693.84549  -8278905.44947  21299053.322    21299064.952
  21388145.583   -21185973.23749 -16230335.65047  21388144.845    21388155.637
  20674962.825   -27512161.12149 -21425152.46148  20674962.112    20674972.840
  23789833.721    -7648053.90549  -5681364.03445  23789833.412    23789852.541
  23479573.530    -7906137.31349  -6157979.71646  23479572.490    23479589.058
  20835405.387   -25129797.39849 -19319355.12547  20835404.530    20835415.795
  23134333.453   -13844068.02949  -9072907.38446  23134332.785    23134348.464
  21719350.792   -20612457.94549 -16042264.05347  21719350.647    21719362.435
  20679724.379   -22798746.15149 -17180462.83048  20679723.755    20679733.239
 02  3  7  1  7  0.0000000  0  9G 6G23G17G29G22G15G21G26G18
  21312547.726   -10571782.73549  -8223650.11247  21312547.350    21312558.989
  21398871.598   -21129607.97749 -16186414.69747  21398870.860    21398881.635
  20672073.241   -27527345.89549 -21436984.72748  20672072.522    20672083.239
  23769864.396    -7752992.20949  -5763133.81545  23769864.096    23769883.148
  23484338.364    -7881098.15449  -6138468.70946  23484337.391    23484353.869
  20828745.738   -25164793.82349 -19346624.99247  20828744.870    20828756.122
  23120535.964   -13916573.50449  -9129404.95546  23120535.317    23120550.918
  21721500.378   -20601161.33549 -16033461.46147  21721500.268    21721512.098
  20672634.595   -22836002.93449 -17209494.02148  20672633.963    20672643.422
 02  3  7  1  7 30.0000000  0  9G 6G23G17G29G22G15G21G26G18
  21326121.016   -10500454.91149  -8168070.07147  21326120.654    21326132.274
  21409647.219   -21072981.88249 -16142290.49447  21409646.470    21409657.243
  20669219.098   -27542344.44449 -21448671.87348  20669218.388    20669229.103
  23749903.932    -7857883.99149  -5844867.34945  23749903.614    23749922.432
  23489192.914    -7855587.71549  -6118590.45846  23489191.950    23489208.339
  20822123.601   -25199593.18449 -19373741.30647  20822122.744    20822133.946
  23106785.923   -13988829.49449  -9185708.11046  23106785.276    23106800.807
  21723774.075   -20589212.74349 -16024150.83047  21723773.954    21723785.784
  20665627.715   -22872824.03649 -17238185.72648  20665627.094    20665636.541
 02  3  7  1  8  0.0000000  0  9G 6G23G17G29G22G15G21G26G18
  21339772.949   -10428713.94949  -8112168.09847  21339772.593    21339784.227
  21420471.695   -21016098.94549 -16097966.15347  21420470.956    21420481.730
  20666400.025   -27557158.49849 -21460215.26248  20666399.330    20666410.034
  23729952.439    -7962728.47949  -5926564.02845  23729952.087    23729970.776
  23494136.382    -7829609.97749  -6098348.09946  23494135.388    23494151.814
  20815538.711   -25234196.89649 -19400705.17348  20815537.833    20815548.990
  23093083.049   -14060837.77449  -9241818.26946  23093082.382    23093097.894
  21726171.403   -20576614.45449 -16014333.93747  21726171.295    21726183.064
  20658703.361   -22909211.44149 -17266539.48048  20658702.728    20658712.178
 02  3  7  1  8 30.0000000  0  9G 6G23G17G29G22G15G21G26G18
  21353503.464   -10356559.97749  -8055944.29847  21353503.097    21353514.731
  21431344.898   -20958959.87249 -16053442.22547  21431344.149    21431354.943
  20663616.455   -27571786.18749 -21471613.43148  20663615.747    20663626.464
  23710010.743    -8067521.84749  -6008220.88045  23710010.322    23710028.806
  23499168.685    -7803165.12649  -6077741.73946  23499167.675    23499184.116
  20808991.353   -25268603.19749 -19427515.21548  20808990.486    20809001.603
  23079427.668   -14132596.43849  -9297733.90546  23079426.985    23079442.479
  21728692.619   -20563365.34849 -16004009.92847  21728692.509    21728704.242
  20651861.730   -22945163.86349 -17294554.29048  20651861.114    20651870.572
 02  3  7  1  9  0.0000000  0  9G 6G23G17G29G22G15G21G26G18
  21367312.406   -10283993.91549  -7999399.38647  21367312.018    21367323.683
  21442266.540   -20901566.47349 -16008720.11747  21442265.788    21442276.580
  20660868.477   -27586226.60749 -21482865.68148  20660867.779    20660878.494
  23690079.354    -8172260.77449  -6089835.30545  23690078.940    23690097.337
  23504289.667    -7776254.66949  -6056772.57746  23504288.629    23504305.092
  20802481.701   -25302811.35749 -19454170.86548  20802480.842    20802491.938
  23065820.019   -14204104.46949  -9353454.26646  23065819.346    23065834.786
  21731337.694   -20549465.31549 -15993178.70847  21731337.568    21731349.285
  20645102.979   -22980681.07849 -17322229.97648  20645102.363    20645111.821
 02  3  7  1  9 30.0000000  0  9G 6G23G17G29G22G15G21G26G18
  21381199.463   -10211017.44849  -7942534.67647  21381199.074    21381210.711
  21453236.107   -20843920.98449 -15963801.57847  21453235.364    21453246.162
  20658156.202   -27600479.54649 -21493971.84848  20658155.507    20658166.221
  23670158.792    -8276942.66449  -6171405.29145  23670158.371    23670176.621
  23509498.763    -7748880.62349  -6035442.17446  23509497.763    23509514.168
  20796009.788   -25336821.11549 -19480671.91847  20796008.933    20796020.028
  23052260.087   -14275361.62049  -9408979.12446  23052259.413    23052274.811
  21734106.560   -20534914.82849 -15981840.64347  21734106.441    21734118.115
  20638426.936   -23015763.56049 -17349566.90748  20638426.325    20638435.789
 02  3  7  1 10  0.0000000  0  9G 6G23G17G29G22G15G21G26G18
  21395164.176   -10137632.73649  -7885351.86947  21395163.776    21395175.416
  21464253.218   -20786025.99849 -15918688.62547  21464252.467    21464263.239
  20655479.665   -27614544.94949 -21504931.88148  20655478.959    20655489.638
  23650249.517    -8381565.46849  -6252929.21845  23650249.104    23650267.225
  23514795.595    -7721045.37349  -6013752.39646  23514794.616    23514811.073
  20789575.624   -25370632.54549 -19507018.42647  20789574.777    20789585.833
  23038747.943   -14346367.75549  -9464308.38846  23038747.268    23038762.656
  21736999.042   -20519714.72149 -15969996.38447  21736998.919    21737010.576
  20631833.574   -23050411.75249 -17376565.42648  20631832.959    20631842.411
 02  3  7  1 10 30.0000000  0  9G 6G23G17G29G22G15G21G26G18
  21409206.411   -10063840.34849  -7827851.39647  21409206.015    21409217.677
  21475317.607   -20727882.36149 -15873381.91847  21475316.857    21475327.610
  20652839.077   -27628421.26549 -21515744.57548  20652838.358    20652849.048
  23630352.207    -8486125.14549  -6334403.96845  23630351.789    23630369.789
  23520180.147    -7692749.56749  -5991703.74546  23520179.139    23520195.575
  20783179.536   -25404243.92849 -19533209.05348  20783178.685    20783189.721
  23025283.807   -14417121.41449  -9519440.92946  23025283.129    23025298.493
  21740015.271   -20503864.13549 -15957645.25147  21740015.151    21740026.817
  20625323.046   -23084624.61549 -17403224.73248  20625322.436    20625331.877
 02  3  7  1 11  0.0000000  0  9G 6G23G17G29G22G15G21G26G18
  21423325.620    -9989643.51349  -7770035.76147  21423325.250    21423336.954
  21486428.622   -20669493.90349 -15827884.43747  21486427.875    21486438.618
  20650234.234   -27642109.64449 -21526410.82048  20650233.531    20650244.205
  23610467.094    -8590621.05349  -6415829.01045  23610466.714    23610484.546
  23525651.607    -7663996.83949  -5969299.04746  23525650.571    23525667.036
  20776821.293   -25437656.57549 -19559244.82248  20776820.456    20776831.462
  23011867.545   -14487623.79749  -9574377.66246  23011866.856    23011882.132
  21743154.870   -20487365.22349 -15944788.92447  21743154.767    21743166.451
  20618894.948   -23118404.27149 -17429546.46748  20618894.337    20618903.767
 02  3  7  1 11 30.0000000  0  9G 6G23G17G29G22G15G21G26G18
  21437521.895    -9915042.02349  -7711904.80947  21437521.543    21437533.273
  21497586.119   -20610861.13049 -15782196.58247  21497585.361    21497596.068
  20647665.531   -27655608.28049 -21536929.21648  20647664.819    20647675.483
  23590594.902    -8695048.67249  -6497200.84345  23590594.482    23590612.285
  23531209.913    -7634787.70249  -5946538.71546  23531208.923    23531225.405
  20770501.260   -25470868.44449 -19585124.14048  20770500.412    20770511.397
  22998499.440   -14557873.05549  -9629117.16746  22998498.761    22998513.916
  21746418.100   -20470216.97349 -15931426.62947  21746417.978    21746429.691
  20612549.539   -23151749.33549 -17455529.56448  20612548.929    20612558.330
 02  3  7  1 12  0.0000000  0  9G 6G23G17G29G22G15G21G26G18
  21451794.724    -9840038.09749  -7653460.26147  21451794.372    21451806.119
  21508789.598   -20551986.66249 -15736320.39347  21508788.835    21508799.515
  20645132.982   -27668916.84949 -21547299.51048  20645132.282    20645142.935
  23570736.147    -8799405.73149  -6578517.67045  23570735.780    23570753.433
  23536854.660    -7605124.46049  -5923424.54546  23536853.635    23536870.069
  20764219.423   -25503879.41749 -19610846.92448  20764218.581    20764229.537
  22985179.512   -14627869.23249  -9683659.46846  22985178.862    22985193.881
  21749804.689   -20452420.22949 -15917559.01447  21749804.554    21749816.267
  20606286.708   -23184660.34049 -17481174.43248  20606286.095    20606295.478
 02  3  7  1 12 30.0000000  0  9G 6G23G17G29G22G15G21G26G18
  21466143.868    -9764633.20849  -7594703.28247  21466143.488    21466155.237
  21520038.665   -20492872.48049 -15690257.41247  21520037.888    21520048.589
  20642636.685   -27682034.98749 -21557521.41248  20642635.971    20642646.614
  23550891.389    -8903689.43749  -6659777.35245  23550891.018    23550908.571
  23542585.489    -7575009.01749  -5899958.00746  23542584.438    23542600.814
  20757975.893   -25536689.10349 -19636412.85648  20757975.053    20757985.998
  22971907.693   -14697612.55249  -9738004.74046  22971907.060    22971921.985
  21753314.600   -20433975.41149 -15903186.40447  21753314.474    21753326.127
  20600106.523   -23217137.30249 -17506481.08548  20600105.914    20600115.259
 02  3  7  1 13  0.0000000  0  9G 6G23G17G29G22G15G21G26G18
  21480569.060    -9688828.77149  -7535634.95747  21480568.681    21480580.403
  21531332.981   -20433520.43649 -15644009.08947  21531332.229    21531342.929
  20640176.742   -27694961.97749 -21567594.36648  20640176.023    20640186.670
  23531061.117    -9007896.95849  -6740977.65845  23531060.736    23531078.154
  23548402.011    -7544443.06649  -5876140.42946  23548400.981    23548417.367
  20751770.851   -25569296.76649 -19661821.37048  20751769.999    20751780.927
  22958684.332   -14767101.14949  -9792151.50746  22958683.675    22958698.570
  21756947.818   -20414882.78449 -15888309.01347  21756947.708    21756959.345
  20594008.880   -23249180.42049 -17531449.67748  20594008.255    20594017.578
 02  3  7  1 13 30.0000000  0  9G 6G23G17G29G22G15G21G26G18
  21495069.826    -9612627.18149  -7476257.17647  21495069.453    21495081.147
  21542672.076   -20373933.14649 -15597577.45547  21542671.329    21542682.012
  20637753.143   -27707697.92049 -21577518.44948  20637752.431    20637763.090
  23511245.766    -9112026.20449  -6822116.96945  23511245.464    23511262.699
  23554303.776    -7513429.21349  -5851973.82446  23554302.786    23554319.089
  20745604.152   -25601702.70749 -19687072.70148  20745603.298    20745614.212
  22945509.315   -14836335.44649  -9846100.12546  22945508.645    22945523.491
  21760704.086   -20395143.47249 -15872927.71147  21760703.958    21760715.580
  20587993.604   -23280790.49049 -17556080.83048  20587992.989    20588002.279
 02  3  7  1 14  0.0000000  0 10G 6G23G17G29G22G15G21G26G18G 3
  21509646.123    -9536028.52549  -7416569.99647  21509645.742    21509657.451
  21554055.844   -20314111.13149 -15550962.91647  21554055.098    21554065.810
  20635366.315   -27720240.74549 -21587292.05548  20635365.604    20635376.252
  23491446.111    -9216072.88849  -6903191.93345  23491445.791    23491462.952
  23560290.696    -7481967.91449  -5827458.58346  23560289.671    23560306.040
  20739476.209   -25633904.89049 -19712165.25648  20739475.350    20739486.265
  22932383.085   -14905313.57749  -9899849.13246  22932382.402    22932397.182
  21764583.490   -20374756.73149 -15857041.91347  21764583.363    21764594.976
  20582061.015   -23311966.21349 -17580373.53148  20582060.396    20582069.645
  24638467.495    -4321280.99659  -2822444.57045  24638466.744    24638485.423
 02  3  7  1 14 30.0000000  0 10G 6G23G17G29G22G15G21G26G18G 3
  21524296.690    -9459039.44849  -7356578.58947  21524296.320    21524308.034
  21565482.883   -20254061.53949 -15504171.04847  21565482.137    21565492.886
  20633015.403   -27732594.90949 -21596918.64748  20633014.701    20633025.342
  23471661.743    -9320039.17549  -6984204.24545  23471661.397    23471678.424
  23566361.407    -7450066.21549  -5802600.16146  23566360.379    23566376.848
  20733386.252   -25665907.72049 -19737102.46848  20733385.396    20733396.296
  22919304.640   -14974040.42449  -9953402.33746  22919303.966    22919318.701
  21768585.101   -20353728.00849 -15840655.86547  21768584.992    21768596.583
  20576210.134   -23342712.66249 -17604331.73648  20576209.507    20576218.727
  24619182.244    -4422624.86849  -2901413.59745  24619181.575    24619200.054
 02  3  7  1 15  0.0000000  0 10G 6G23G17G29G22G15G21G26G18G 3
  21539022.447    -9381655.39349  -7296279.41047  21539022.075    21539033.832
  21576954.005   -20193780.22849 -15457198.61947  21576953.266    21576964.042
  20630701.615   -27744753.79349 -21606393.07248  20630700.913    20630711.562
  23451894.416    -9423916.10649  -7065146.95245  23451894.092    23451910.932
  23572516.669    -7417720.05649  -5777395.41046  23572515.667    23572532.143
  20727335.495   -25697704.40949 -19761879.05148  20727334.645    20727345.517
  22906275.249   -15042509.48449 -10006754.66446  22906274.606    22906289.236
  21772709.944   -20332051.72949 -15823765.21947  21772709.837    21772721.459
  20570442.027   -23373023.99849 -17627950.89448  20570441.400    20570450.600
  24599921.315    -4523841.00449  -2980283.08445  24599920.730    24599939.022
 02  3  7  1 15 30.0000000  0 10G 6G23G17G29G22G15G21G26G18G 3
  21553822.816    -9303879.18049  -7235674.65147  21553822.439    21553834.203
  21588468.619   -20133270.42949 -15410048.15447  21588467.885    21588478.719
  20628424.898   -27756717.89149 -21615715.72048  20628424.199    20628434.838
  23432144.329    -9527702.17849  -7146018.86445  23432143.995    23432160.690
  23578755.984    -7384932.45249  -5751846.68146  23578754.997    23578771.469
  20721323.908   -25729295.57749 -19786495.49748  20721323.067    20721333.882
  22893294.898   -15110721.10949 -10059906.39346  22893294.233    22893308.828
  21776957.637   -20309729.73949 -15806371.42947  21776957.536    21776969.208
  20564756.416   -23402901.66549 -17651232.13248  20564755.796    20564764.980
  24580685.002    -4624928.26449  -3059052.13645  24580684.387    24580702.455
 02  3  7  1 16  0.0000000  0 10G 6G23G17G29G22G15G21G26G18G 3
  21568697.338    -9225713.40149  -7174766.33347  21568696.982    21568708.756
  21600026.137   -20072535.11649 -15362721.95947  21600025.423    21600036.290
  20626185.173   -27768487.67349 -21624886.94448  20626184.460    20626195.119
  23412411.892    -9631395.49149  -7226818.48845  23412411.526    23412428.127
  23585078.760    -7351706.49349  -5725956.37346  23585077.741    23585094.325
  20715351.276   -25760681.78349 -19810952.22948  20715350.421    20715361.206
  22880363.293   -15178676.09749 -10112858.14046  22880362.625    22880377.199
  21781327.902   -20286763.77449 -15788475.83447  21781327.800    21781339.468
  20559153.103   -23432346.98549 -17674176.47348  20559152.495    20559161.679
  24561473.343    -4725885.43049  -3137719.79545  24561472.746    24561490.737
 02  3  7  1 16 30.0000000  0 10G 6G23G17G29G22G15G21G26G18G 3
  21583645.836    -9147158.74449  -7113554.99147  21583645.483    21583657.281
  21611626.448   -20011575.05649 -15315220.63847  21611625.723    21611636.629
  20623982.668   -27780061.51149 -21633905.49348  20623981.964    20623992.627
  23392697.730    -9734992.37449  -7307542.99245  23392697.374    23392713.953
  23591484.739    -7318043.04249  -5699725.15946  23591483.695    23591500.354
  20709417.958   -25791861.37149 -19835247.96548  20709417.109    20709427.857
  22867480.743   -15246373.28949 -10165609.00846  22867480.074    22867494.696
  21785820.795   -20263153.32149 -15770078.04147  21785820.700    21785832.373
  20553632.231   -23461359.31849 -17696783.42848  20553631.607    20553640.792
  24542287.113    -4826708.99849  -3216283.30645  24542286.519    24542304.513
 02  3  7  1 17  0.0000000  0 10G 6G23G17G29G22G15G21G26G18G 3
  21598667.879    -9068217.93449  -7052042.75247  21598667.503    21598679.337
  21623268.957   -19950393.45549 -15267546.68447  21623268.233    21623279.155
  20621817.440   -27791439.81449 -21642771.68248  20621816.733    20621827.376
  23373002.285    -9838490.93749  -7388190.87245  23373001.949    23373018.509
  23597973.374    -7283945.32249  -5673155.57146  23597972.314    23597988.971
  20703523.901   -25822834.78549 -19859383.04648  20703523.049    20703533.775
  22854647.252   -15313812.93149 -10218159.18146  22854646.578    22854661.204
  21790435.993   -20238900.14649 -15751179.43147  21790435.865    21790447.597
  20548193.505   -23489939.69649 -17719053.79748  20548192.872    20548202.065
  24523126.485    -4927397.75949  -3294741.76245  24523125.863    24523143.843
 02  3  7  1 17 30.0000000  0 10G 6G23G17G29G22G15G21G26G18G 3
  21613763.182    -8988892.06549  -6990230.46947  21613762.813    21613774.658
  21634953.354   -19888991.53749 -15219701.05347  21634952.634    21634963.568
  20619689.681   -27802621.17949 -21651484.40448  20619688.976    20619699.621
  23353326.159    -9941887.68949  -7468759.43345  23353325.859    23353342.450
  23604544.475    -7249414.67349  -5646248.63546  23604543.364    23604559.975
  20697669.287   -25853600.81649 -19883356.52748  20697668.432    20697679.154
  22841862.951   -15380993.90749 -10270507.79146  22841862.298    22841876.939
  21795173.479   -20214004.29449 -15731780.02547  21795173.375    21795185.080
  20542837.072   -23518087.65449 -17740987.21548  20542836.440    20542845.636
  24503992.147    -5027948.53549  -3373092.69945  24503991.620    24504009.399
 02  3  7  1 18  0.0000000  0 10G 6G23G17G29G22G15G21G26G18G 3
  21628931.251    -8909183.65549  -6928120.10747  21628930.883    21628942.723
  21646679.180   -19827372.08249 -15171685.91447  21646678.437    21646689.411
  20617599.344   -27813605.94649 -21660043.92848  20617598.653    20617609.278
  23333669.850   -10045180.62949  -7549247.10645  23333669.547    23333686.078
  23611197.301    -7214453.91149  -5619006.54446  23611196.239    23611212.817
  20691854.106   -25884159.65149 -19907168.56048  20691853.268    20691863.952
  22829127.755   -15447916.73649 -10322655.25346  22829127.084    22829141.754
  21800033.003   -20188467.31349 -15711881.04247  21800032.871    21800044.565
  20537562.674   -23545804.55849 -17762584.74948  20537562.042    20537571.239
  24484884.308    -5128360.00549  -3451335.09045  24484883.768    24484901.522
 02  3  7  1 18 30.0000000  0 10G 6G23G17G29G22G15G21G26G18G 3
  21644171.800    -8829094.37849  -6865712.96747  21644171.432    21644183.260
  21658445.968   -19765537.27649 -15123502.97347  21658445.240    21658456.226
  20615546.513   -27824393.51049 -21668449.78748  20615545.815    20615556.419
  23314033.837   -10148367.04949  -7629651.77145  23314033.551    23314050.011
  23617931.592    -7179065.21949  -5591431.01546  23617930.537    23617947.135
  20686078.438   -25914510.90849 -19930818.83548  20686077.587    20686088.257
  22816441.880   -15514580.99149 -10374601.21746  22816441.227    22816455.798
  21805014.279   -20162290.19549 -15691483.25247  21805014.153    21805025.849
  20532370.206   -23573090.85649 -17783846.74448  20532369.576    20532378.765
  24465803.453    -5228629.63249  -3529466.95445  24465802.898    24465820.665
 02  3  7  1 19  0.0000000  0 10G 6G23G17G29G22G15G21G26G18G 3
  21659484.588    -8748625.50849  -6803010.05447  21659484.201    21659496.083
  21670253.474   -19703488.49049 -15075153.29147  21670252.736    21670263.716
  20613531.431   -27834982.92949 -21676701.25448  20613530.730    20613541.307
  23294418.700   -10251443.82049  -7709971.00846  23294418.440    23294434.881
  23624746.959    -7143250.31949  -5563523.37346  23624745.969    23624762.592
  20680342.461   -25944653.50949 -19954306.52348  20680341.607    20680352.280
  22803805.334   -15580986.04749 -10426345.21546  22803804.675    22803819.126
  21810117.381   -20135473.22949 -15670586.88347  21810117.240    21810128.913
  20527259.765   -23599946.16549 -17804772.90448  20527259.144    20527268.314
  24446750.112    -5328754.64049  -3607486.16845  24446749.598    24446767.165
 02  3  7  1 19 30.0000000  0 10G 6G23G17G29G22G15G21G26G18G 3
  21674869.276    -8667778.72049  -6740012.65347  21674868.890    21674880.799
  21682101.337   -19641227.59849 -15026638.33547  21682100.604    21682111.570
  20611554.203   -27845373.37249 -21684797.68048  20611553.498    20611564.062
  23274825.063   -10354407.89949  -7790202.44446  23274824.824    23274841.119
  23631643.165    -7107011.05549  -5535285.05946  23631642.165    23631658.792
  20674646.300   -25974586.76249 -19977631.08848  20674645.441    20674656.123
  22791218.134   -15647131.75549 -10477887.12346  22791217.459    22791231.783
  21815342.017   -20108017.16249 -15649192.51447  21815341.913    21815353.594
  20522231.268   -23626370.80749 -17825363.48348  20522230.655    20522239.788
  24427724.694    -5428732.85449  -3685391.01845  24427724.139    24427741.648
 02  3  7  1 20  0.0000000  0 10G 6G23G17G29G22G15G21G26G18G 3
  21690325.523    -8586555.78449  -6676722.15147  21690325.131    21690337.118
  21693989.161   -19578756.75349 -14977959.77047  21693988.424    21693999.382
  20609614.884   -27855564.41349 -21692738.71748  20609614.171    20609624.740
  23255253.400   -10457256.56649  -7870343.95246  23255253.114    23255269.382
  23638619.652    -7070349.76149  -5506717.88446  23638618.605    23638635.249
  20668990.112   -26004310.05749 -20000792.04248  20668989.247    20668999.922
  22778680.268   -15713017.97849 -10529226.82446  22778679.609    22778693.836
  21820688.131   -20079922.99549 -15627300.91247  21820688.002    21820699.731
  20517284.624   -23652365.30149 -17845618.87948  20517284.000    20517293.145
  24408727.617    -5528561.98849  -3763179.72445  24408727.040    24408744.469
 02  3  7  1 20 30.0000000  0 10G 6G23G17G29G22G15G21G26G18G 3
  21705852.979    -8504958.72749  -6613140.13847  21705852.601    21705864.651
  21705916.476   -19516078.22949 -14929119.37947  21705915.747    21705926.681
  20607713.569   -27865555.69549 -21700524.09948  20607712.857    20607723.411
  23235704.146   -10559987.52649  -7950393.74646  23235703.837    23235720.025
  23645675.873    -7033269.07949  -5477823.90646  23645674.840    23645691.529
  20663373.945   -26033823.07249 -20023789.14048  20663373.075    20663383.751
  22766191.917   -15778644.11649 -10580363.86746  22766191.224    22766205.372
  21826155.392   -20051191.96549 -15604913.07047  21826155.267    21826166.991
  20512419.735   -23677930.33349 -17865539.63748  20512419.108    20512428.213
  24389759.366    -5628239.66149  -3840850.44745  24389758.792    24389776.121
 02  3  7  1 21  0.0000000  0 10G 6G23G17G29G22G15G21G26G18G 3
  21721451.184    -8422989.80749  -6549268.36247  21721450.793    21721462.914
  21717882.924   -19453194.27549 -14880118.91647  21717882.193    21717893.118
  20605850.357   -27875346.94249 -21708153.61948  20605849.637    20605860.203
  23216177.778   -10662597.99749  -8030349.64746  23216177.426    23216193.584
  23652811.466    -6995771.29349  -5448604.93146  23652810.440    23652827.100
  20657797.792   -26063125.62049 -20046622.23648  20657796.935    20657807.597
  22753753.046   -15844010.09949 -10631298.19546  22753752.355    22753766.446
  21831743.664   -20021825.29049 -15582029.92647  21831743.549    21831755.270
  20507636.443   -23703066.59749 -17885126.28748  20507635.809    20507644.899
  24370820.322    -5727764.06249  -3918401.78345  24370819.753    24370836.944
 02  3  7  1 21 30.0000000  0 10G 6G23G17G29G22G15G21G26G18G 3
  21737120.069    -8340649.53249  -6485107.21847  21737119.705    21737131.869
  21729888.312   -19390105.54849 -14830958.88847  21729887.582    21729898.513
  20604025.583   -27884936.07149 -21715625.63848  20604024.880    20604035.431
  23196675.098   -10765083.99149  -8110208.56346  23196674.717    23196690.828
  23660026.312    -6957857.21849  -5419061.56146  23660025.245    23660042.036
  20652262.107   -26092215.80749 -20069289.84848  20652261.237    20652271.869
  22741363.888   -15909114.55649 -10682028.73146  22741363.202    22741377.290
  21837452.969   -19991822.64049 -15558651.21247  21837452.846    21837464.579
  20502934.960   -23727772.88549 -17904377.88848  20502934.334    20502943.391
  24351911.214    -5827131.11749  -3995830.55445  24351910.684    24351927.768
 02  3  7  1 22  0.0000000  0 10G 6G23G17G29G22G15G21G26G18G 3
  21752859.133    -8257940.66349  -6420658.85647  21752858.759    21752870.967
  21741932.127   -19326814.95849 -14781641.56647  21741931.404    21741942.328
  20602239.252   -27894323.26249 -21722940.29148  20602238.537    20602249.059
  23177196.465   -10867443.64649  -8189969.03446  23177196.082    23177212.132
  23667319.746    -6919530.03649  -5389196.30045  23667318.616    23667335.485
  20646766.716   -26121093.89449 -20091792.19348  20646765.852    20646776.472
  22729024.338   -15973958.32749 -10732556.14846  22729023.665    22729037.717
  21843282.964   -19961185.85949 -15534778.36947  21843282.830    21843294.555
  20498315.011   -23752050.88449 -17923295.75848  20498314.372    20498323.382
  24333032.331    -5926339.65849  -4073135.84545  24333031.833    24333048.673
 02  3  7  1 22 30.0000000  0 10G 6G23G17G29G22G15G21G26G18G 3
  21768667.904    -8174865.48749  -6355925.06147  21768667.525    21768679.779
  21754013.881   -19263324.92049 -14732168.83947  21754013.160    21754024.085
  20600491.332   -27903508.53749 -21730097.61148  20600490.597    20600501.129
  23157742.245   -10969674.63649  -8269629.24646  23157741.860    23157757.938
  23674691.287    -6880792.52149  -5359011.29745  23674690.143    23674707.098
  20641311.725   -26149759.72349 -20114129.14548  20641310.858    20641321.481
  22716734.421   -16038541.35349 -10782880.39046  22716733.763    22716747.781
  21849233.341   -19929916.41249 -15510412.55247  21849233.191    21849244.918
  20493776.331   -23775901.60549 -17941880.68648  20493775.694    20493784.677
  24314183.964    -6025387.79749  -4150316.15045  24314183.401    24314200.225
 02  3  7  1 23  0.0000000  0 10G 6G23G17G29G22G15G21G26G18G 3
  21784546.088    -8091425.44449  -6290906.94947  21784545.713    21784557.980
  21766133.331   -19199637.01149 -14682541.91547  21766132.590    21766143.526
  20598782.047   -27912490.71749 -21737096.67348  20598781.311    20598791.830
  23138313.177   -11071773.76249  -8349186.71446  23138312.780    23138328.879
  23682140.493    -6841646.39849  -5328507.88545  23682139.366    23682156.390
  20635897.319   -26178212.29649 -20136299.91448  20635896.466    20635907.085
  22704494.315   -16102862.99449 -10833000.94846  22704493.646    22704507.582
  21855303.925   -19898015.09449 -15485554.36147  21855303.788    21855315.495
  20489318.981   -23799324.95349 -17960132.59548  20489318.340    20489327.319
  24295366.735    -6124272.59449  -4227369.16545  24295366.218    24295382.915
 02  3  7  1 23 30.0000000  0 10G 6G23G17G29G22G15G21G26G18G 3
  21800493.508    -8007621.58549  -6225605.34147  21800493.113    21800505.384
  21778290.159   -19135752.51049 -14632761.80847  21778289.434    21778300.352
  20597111.633   -27921268.54549 -21743936.50448  20597110.897    20597121.420
  23118909.891   -11173737.39749  -8428638.60646  23118909.523    23118925.494
  23689667.225    -6802093.17049  -5297687.27345  23689666.096    23689683.167
  20630523.781   -26206450.19649 -20158303.40648  20630522.926    20630533.547
  22692304.083   -16166922.46349 -10882917.22646  22692303.406    22692317.290
  21861494.693   -19865482.17949 -15460204.02247  21861494.562    21861506.291
  20484943.038   -23822320.38049 -17978051.06348  20484942.390    20484951.372
  24276581.237    -6222990.77649  -4304292.34345  24276580.624    24276597.338
 02  3  7  1 24  0.0000000  0 10G 6G23G17G29G22G15G21G26G18G 3
  21816509.653    -7923456.62449  -6160022.35647  21816509.285    21816521.567
  21790483.871   -19071674.25149 -14582830.72147  21790483.122    21790494.066
  20595480.038   -27929842.33049 -21750617.33448  20595479.306    20595489.848
  23099532.810   -11275563.73149  -8507983.51946  23099532.407    23099548.273
  23697270.794    -6762136.15149  -5266551.99145  23697269.671    23697286.761
  20625190.971   -26234473.91649 -20180140.01648  20625190.118    20625200.729
  22680163.693   -16230719.96549 -10932629.37246  22680163.020    22680176.840
  21867805.250   -19832319.82549 -15434363.21647  21867805.114    21867816.848
  20480648.187   -23844889.62349 -17995637.44148  20480647.573    20480656.524
  24257827.690    -6321541.10649  -4381084.69045  24257827.096    24257843.676
 02  3  7  1 24 30.0000000  0 10G 6G23G17G29G22G15G21G26G18G 3
  21832594.173    -7838932.31349  -6094159.35447  21832593.780    21832606.074
  21802714.112   -19007403.96949 -14532750.01047  21802713.386    21802724.311
  20593887.470   -27938211.12949 -21757138.43748  20593886.749    20593897.285
  23080182.385   -11377249.75149  -8587219.09546  23080181.993    23080197.777
  23704950.874    -6721777.37749  -5235103.67945  23704949.794    23704966.897
  20619899.093   -26262282.57449 -20201809.04848  20619898.242    20619908.842
  22668073.171   -16294255.41949 -10982137.33547  22668072.510    22668086.247
  21874235.441   -19798528.95249 -15408032.65447  21874235.302    21874247.007
  20476434.473   -23867032.71249 -18012891.75248  20476433.850    20476442.779
  24239106.558    -6419920.84649  -4457744.08345  24239105.937    24239122.520
 02  3  7  1 25  0.0000000  0 10G 6G23G17G29G22G15G21G26G18G 3
  21848746.689    -7754050.65649  -6028017.89847  21848746.307    21848758.622
  21814980.544   -18942943.57249 -14482521.15247  21814979.814    21814990.723
  20592334.023   -27946374.36549 -21763499.35848  20592333.294    20592343.805
  23060859.213   -11478792.67349  -8666343.17946  23060858.850    23060874.496
  23712707.042    -6681019.24049  -5203344.15745  23712705.935    23712723.011
  20614648.325   -26289875.35449 -20223309.86148  20614647.467    20614658.050
  22656032.491   -16357528.74049 -11031441.03046  22656031.836    22656045.561
  21880785.008   -19764110.68649 -15381213.20847  21880784.898    21880796.543
  20472301.733   -23888750.44949 -18029814.61748  20472301.091    20472310.002
  24220418.386    -6518127.55049  -4534268.58545  24220417.803    24220434.327
 02  3  7  1 25 30.0000000  0 10G 6G23G17G29G22G15G21G26G18G 3
  21864966.964    -7668813.00349  -5961599.05047  21864966.578    21864978.936
  21827282.884   -18878294.55349 -14432145.31847  21827282.137    21827293.044
  20590819.944   -27954330.85449 -21769699.17948  20590819.213    20590829.694
  23041563.920   -11580189.27749  -8745353.23646  23041563.518    23041579.102
  23720538.827    -6639863.34049  -5171274.69545  23720537.783    23720554.713
  20609438.817   -26317251.35049 -20244641.75148  20609437.963    20609448.515
  22644041.869   -16420538.75949 -11080539.56646  22644041.217    22644054.947
  21887453.848   -19729065.77249 -15353905.46147  21887453.701    21887465.376
  20468249.884   -23910042.83649 -18046406.03748  20468249.256    20468258.142
  24201763.644    -6616158.38849  -4610656.04545  24201763.019    24201779.538
 02  3  7  1 26  0.0000000  0 10G 6G23G17G29G22G15G21G26G18G 3
  21881254.642    -7583221.21849  -5894904.25847  21881254.253    21881266.604
  21839620.755   -18813458.67049 -14381623.87847  21839619.986    21839630.914
  20589345.332   -27962079.82949 -21775737.30148  20589344.603    20589355.047
  23022296.951   -11681436.73849  -8824247.07846  23022296.596    23022312.089
  23728445.907    -6598312.08549  -5138897.15445  23728444.859    23728461.710
  20604270.697   -26344409.82449 -20265804.14748  20604269.841    20604280.362
  22632101.514   -16483285.02149 -11129432.57647  22632100.853    22632114.572
  21894241.667   -19693395.31249 -15326110.28047  21894241.532    21894253.245
  20464278.912   -23930910.17749 -18062666.25148  20464278.285    20464287.166
  24183142.804    -6714010.76349  -4686904.41945  24183142.169    24183158.691
 02  3  7  1 26 30.0000000  0 10G 6G23G17G29G22G15G21G26G18G 3
  21897609.241    -7497277.97649  -5827935.60147  21897608.841    21897621.202
  21851993.681   -18748438.67649 -14330958.96947  21851992.910    21852003.849
  20587910.205   -27969621.45249 -21781613.85148  20587909.477    20587919.903
  23003058.795   -11782532.85549  -8903022.97846  23003058.395    23003073.852
  23736427.638    -6556368.58749  -5106213.97545  23736426.503    23736443.355
  20599143.942   -26371350.89849 -20286797.13348  20599143.080    20599153.585
  22620211.094   -16545768.87849 -11178121.11747  22620210.425    22620224.113
  21901148.168   -19657101.37849 -15297829.27447  21901148.040    21901159.712
  20460388.555   -23951353.84349 -18078596.32448  20460387.938    20460396.826
  24164556.205    -6811683.12549  -4763012.50345  24164555.577    24164572.109
 02  3  7  1 27  0.0000000  0 10G 6G23G17G29G22G15G21G26G18G 3
  21914030.394    -7410984.67349  -5760694.17047  21914029.973    21914042.341
  21864401.295   -18683236.08349 -14280151.76947  21864400.540    21864411.499
  20586514.705   -27976954.59149 -21787327.94948  20586513.993    20586524.406
  22983850.007   -11883474.51949  -8981678.53846  22983849.622    22983864.973
  23744483.567    -6514034.66249  -5073226.56645  23744482.437    23744499.234
  20594058.744   -26398073.48249 -20307619.87648  20594057.891    20594068.408
  22608370.763   -16607989.26549 -11226604.36447  22608370.112    22608383.769
  21908173.140   -19620184.84149 -15269063.12447  21908172.988    21908184.654
  20456578.846   -23971373.68349 -18094196.14148  20456578.226    20456587.140
  24146004.422    -6909172.47249  -4838977.96245  24146003.790    24146020.324
 02  3  7  1 27 30.0000000  0 10G 6G23G17G29G22G15G21G26G18G 3
  21930517.875    -7324342.81749  -5693181.13247  21930517.459    21930529.848
  21876843.384   -18617852.33749 -14229203.41147  21876842.657    21876853.644
  20585159.156   -27984077.98949 -21792878.61048  20585158.421    20585168.844
  22964671.201   -11984258.50249  -9060211.23246  22964670.820    22964686.111
  23752613.368    -6471312.40049  -5039936.57345  23752612.269    23752629.169
  20589015.387   -26424576.24249 -20328271.33048  20589014.542    20589025.053
  22596580.650   -16669945.83249 -11274882.04547  22596579.994    22596593.614
  21915316.419   -19582646.63649 -15239812.55647  21915316.262    21915327.886
  20452849.722   -23990970.20649 -18109466.09948  20452849.097    20452858.005
  24127487.980    -7006476.21849  -4914798.79145  24127487.319    24127503.860
 02  3  7  1 28  0.0000000  0 10G 6G23G17G29G22G15G21G26G18G 3
  21947071.221    -7237354.61949  -5625398.22347  21947070.819    21947083.248
  21889319.594   -18552289.54749 -14178115.53547  21889318.850    21889329.851
  20583843.542   -27990991.29249 -21798265.56948  20583842.812    20583853.243
  22945522.942   -12084882.02349  -9138618.89446  22945522.576    22945537.832
  23760816.644    -6428204.14649  -5006345.79445  23760815.530    23760832.451
  20584013.938   -26450858.85749 -20348751.24148  20584013.074    20584023.583
  22584840.797   -16731638.45649 -11322954.06347  22584840.141    22584853.686
  21922577.701   -19544488.10849 -15210078.61047  21922577.546    21922589.151
  20449201.053   -24010143.92049 -18124406.60148  20449200.423    20449209.324
  24109007.295    -7103591.98549  -4990473.12445  24109006.672    24109023.217
 02  3  7  1 28 30.0000000  0 10G 6G23G17G29G22G15G21G26G18G 3
  21963690.005    -7150022.79249  -5557347.53647  21963689.584    21963702.074
  21901829.355   -18486550.37749 -14126890.21847  21901828.609    21901839.635
  20582567.882   -27997694.72049 -21803488.98848  20582567.155    20582577.584
  22926405.531   -12185343.37649  -9216900.18646  22926405.181    22926420.406
  23769092.738    -6384713.21149  -4972456.83045  23769091.660    23769108.500
  20579054.363   -26476921.43949 -20369059.69548  20579053.498    20579063.985
  22573150.979   -16793068.11749 -11370821.17647  22573150.323    22573163.814
  21929956.596   -19505711.58449 -15179863.10847  21929956.437    21929968.081
  20445632.462   -24028896.76349 -18139019.14148  20445631.834    20445640.717
  24090562.643    -7200518.19049  -5065999.75145  24090562.002    24090578.505
 02  3  7  1 29  0.0000000  0 10G 6G23G17G29G22G15G21G26G18G 3
  21980374.083    -7062347.86849  -5489029.50747  21980373.674    21980386.182
  21914372.591   -18420635.25849 -14075527.80747  21914371.856    21914382.862
  20581332.672   -28004185.82149 -21808546.96048  20581331.940    20581342.343
  22907319.829   -12285638.13649  -9295051.66246  22907319.483    22907334.650
  23777441.518    -6340840.54249  -4938270.40245  23777440.391    23777457.290
  20574137.084   -26502761.89049 -20389195.06248  20574136.222    20574146.668
  22561511.607   -16854232.60749 -11418481.67847  22561510.941    22561524.403
  21937453.131   -19466316.84449 -15149165.87947  21937452.987    21937464.577
  20442144.214   -24047227.47949 -18153302.75648  20442143.588    20442152.455
  24072154.747    -7297250.98549  -5141375.66345  24072154.155    24072170.644
 02  3  7  1 29 30.0000000  0 10G 6G23G17G29G22G15G21G26G18G 3
  21997122.893    -6974332.48049  -5420446.18347  21997122.499    21997135.062
  21926948.822   -18354546.84749 -14024030.36947  21926948.079    21926959.082
  20580137.824   -28010464.62449 -21813439.49848  20580137.088    20580147.488
  22888266.227   -12385764.06749  -9373071.58746  22888265.883    22888281.039
  23785862.328    -6296589.10549  -4903788.82245  23785861.221    23785878.186
  20569262.043   -26528380.22449 -20409157.34648  20569261.167    20569271.590
  22549922.528   -16915132.83549 -11465936.25747  22549921.884    22549935.347
  21945066.955   -19426306.03049 -15117988.59547  21945066.806    21945078.340
  20438736.047   -24065137.19449 -18167258.31748  20438735.428    20438744.267
  24053784.075    -7393788.46749  -5216599.38745  24053783.483    24053799.999
 02  3  7  1 30  0.0000000  0 10G 6G23G17G29G22G15G21G26G18G 3
  22013935.897    -6885979.77149  -5351600.00647  22013935.530    22013948.133
  21939557.469   -18288288.15349 -13972400.23447  21939556.701    21939567.751
  20578983.311   -28016531.65149 -21818167.02948  20578982.577    20578992.958
  22869245.046   -12485719.70849  -9450958.82046  22869244.672    22869259.868
  23794354.468    -6251962.47849  -4869014.90245  23794353.412    23794370.453
  20564429.176   -26553776.83249 -20428946.85048  20564428.313    20564438.736
  22538383.642   -16975769.37349 -11513185.37247  22538383.003    22538396.466
  21952797.499   -19385681.73349 -15086333.26647  21952797.355    21952808.855
  20435407.669   -24082627.81049 -18180887.30148  20435407.042    20435415.873
  24035450.798    -7490129.44449  -5291670.00245  24035450.195    24035466.709
 02  3  7  1 30 30.0000000  0 10G 6G23G17G29G22G15G21G26G18G 3
  22030813.044    -6797289.96849  -5282491.16547  22030812.706    22030825.325
  21952198.536   -18221858.89949 -13920637.19747  21952197.790    21952208.834
  20577869.551   -28022384.19749 -21822727.42548  20577868.818    20577879.194
  22850257.217   -12585500.20449  -9528709.59046  22850256.877    22850272.011
  23802917.875    -6206961.20149  -4833949.03045  23802916.804    23802933.963
  20559639.010   -26578949.01749 -20448561.48248  20559638.149    20559648.548
  22526895.371   -17036140.04449 -11560227.31947  22526894.706    22526908.149
  21960644.898   -19344443.43649 -15054199.50347  21960644.762    21960656.264
  20432159.246   -24099698.12649 -18194188.78248  20432158.631    20432167.425
  24017155.731    -7586269.39249  -5366583.98245  24017155.240    24017171.602
 02  3  7  1 31  0.0000000  0 10G 6G23G17G29G22G15G21G26G18G 3
  22047753.693    -6708266.41949  -5213122.26347  22047753.348    22047766.032
  21964871.374   -18155262.70249 -13868744.07347  21964870.637    21964881.696
  20576796.499   -28028022.99449 -21827121.25548  20576795.771    20576806.118
  22831302.993   -12685104.29549  -9606322.90546  22831302.639    22831317.733
  23811551.970    -6161589.19349  -4798594.28645  23811550.877    23811568.021
  20554891.408   -26603897.66249 -20468001.92848  20554890.536    20554900.915
  22515457.419   -17096246.24049 -11607063.18947  22515456.784    22515470.184
  21968608.585   -19302594.06749 -15021589.57947  21968608.449    21968619.896
  20428990.391   -24116350.30949 -18207164.44448  20428989.775    20428998.574
  23998899.120    -7682207.38049  -5441340.62145  23998898.608    23998914.875
 02  3  7  1 31 30.0000000  0 10G 6G23G17G29G22G15G21G26G18G 3
  22064757.511    -6618910.95149  -5143494.72647  22064757.146    22064769.874
  21977575.720   -18088501.14949 -13816722.09947  21977575.001    21977586.043
  20575764.308   -28033447.24749 -21831347.90548  20575763.575    20575773.911
  22812382.936   -12784528.87849  -9683796.36046  22812382.546    22812397.507
  23820256.156    -6115848.72849  -4762952.43445  23820255.030    23820272.306
  20550186.442   -26628622.10549 -20487267.67248  20550185.573    20550195.952
  22504069.846   -17156087.90849 -11653692.93747  22504069.217    22504082.591
  21976688.232   -19260135.12049 -14988504.66047  21976688.096    21976699.529
  20425901.034   -24132584.75049 -18219814.59648  20425900.404    20425909.212
  23980681.458    -7777940.86449  -5515937.93045  23980681.010    23980697.144
 02  3  7  1 32  0.0000000  0 10G 6G23G17G29G22G15G21G26G18G 3
  22081824.307    -6529224.62849  -5073609.36747  22081823.941    22081836.719
  21990311.359   -18021575.13849 -13764571.97447  21990310.625    21990321.662
  20574773.244   -28038655.20749 -21835406.01948  20574772.502    20574782.820
  22793497.678   -12883770.46049  -9761127.22146  22793497.310    22793512.178
  23829030.229    -6069741.26249  -4727024.61445  23829029.146    23829046.341
  20545524.540   -26653120.39049 -20506357.18448  20545523.660    20545534.015
  22492732.811   -17215663.98049 -11700115.72847  22492732.166    22492745.485
  21984883.764   -19217067.02949 -14954945.09147  21984883.602    21984895.073
  20422891.172   -24148401.13049 -18232138.98748  20422890.547    20422899.373
  23962503.439    -7873466.25749  -5590373.10445  23962502.985    23962518.919
 02  3  7  1 32 30.0000000  0 10G 6G23G17G29G22G15G21G26G18G 3
  22098953.449    -6439210.82749  -5003468.83047  22098953.073    22098965.843
  22003077.720   -17954487.69449 -13712296.05847  22003076.987    22003088.001
  20573823.251   -28043647.24649 -21839295.88748  20573822.509    20573832.826
  22774647.549   -12982827.24949  -9838314.09046  22774647.231    22774662.045
  23837873.395    -6023270.45549  -4690813.66945  23837872.274    23837889.488
  20540905.545   -26677393.04149 -20525270.87648  20540904.658    20540915.013
  22481446.149   -17274975.33649 -11746332.24247  22481445.469    22481458.757
  21993194.707   -19173392.59949 -14920913.03947  21993194.568    21993206.038
  20419960.612   -24163801.08849 -18244138.89148  20419959.996    20419968.814
  23944365.233    -7968782.14249  -5664645.03245  23944364.822    23944380.566
 02  3  7  1 33  0.0000000  0 10G 6G23G17G29G22G15G21G26G18G 3
  22116144.709    -6348870.68449  -4933074.00247  22116144.342    22116157.094
  22015874.582   -17887239.86049 -13659895.16247  22015873.848    22015884.814
  20572914.627   -28048421.95649 -21843016.41748  20572913.898    20572924.177
  22755833.359   -13081695.50449  -9915354.05346  22755833.035    22755847.790
  23846785.360    -5976438.10249  -4654320.99445  23846784.225    23846801.511
  20536329.808   -26701438.41749 -20544007.47248  20536328.925    20536339.290
  22470210.000   -17334021.31649 -11792341.97647  22470209.298    22470222.543
  22001620.886   -19129112.65049 -14886409.16747  22001620.755    22001632.191
  20417109.220   -24178784.86949 -18255814.50748  20417108.600    20417117.425
  23926267.548    -8063885.37949  -5738751.28145  23926267.080    23926282.805
 02  3  7  1 33 30.0000000  0 10G 6G23G17G29G22G15G21G26G18G 3
  22133397.613    -6258206.51449  -4862426.69647  22133397.248    22133409.986
  22028701.589   -17819833.61749 -13607370.83347  22028700.838    22028711.780
  20572047.517   -28052978.64649 -21846567.06048  20572046.778    20572057.027
  22737055.480   -13180372.93649  -9992245.33346  22737055.124    22737069.865
  23855765.613    -5929246.74349  -4617548.58445  23855764.528    23855781.666
  20531797.444   -26725255.95749 -20562566.53248  20531796.573    20531806.917
  22459024.294   -17392801.98949 -11838144.96747  22459023.602    22459036.776
  22010161.985   -19084228.90149 -14851434.80547  22010161.842    22010173.258
  20414336.921   -24193353.31549 -18267166.48748  20414336.299    20414345.090
  23908210.696    -8158773.75749  -5812690.11345  23908210.231    23908225.883
 02  3  7  1 34  0.0000000  0 10G 6G23G17G29G22G15G21G26G18G 3
  22150711.755    -6167220.43649  -4791528.55747  22150711.392    22150724.162
  22041558.361   -17752270.98149 -13554724.64047  22041557.597    22041568.561
  20571221.948   -28057316.74849 -21849947.36548  20571221.210    20571231.482
  22718314.470   -13278856.68849 -10068985.70046  22718314.149    22718328.806
  23864813.698    -5881698.93249  -4580498.42745  23864812.654    23864829.667
  20527308.545   -26748845.10749 -20580947.62448  20527307.671    20527318.012
  22447889.226   -17451316.91949 -11883740.88547  22447888.530    22447901.635
  22018817.647   -19038743.02649 -14815991.24347  22018817.520    22018828.922
  20411643.492   -24207507.17449 -18278195.41248  20411642.864    20411651.620
  23890195.250    -8253444.59649  -5886459.40745  23890194.742    23890210.378
 02  3  7  1 34 30.0000000  0 10G 6G23G17G29G22G15G21G26G18G 3
  22168086.807    -6075914.21449  -4720380.97147  22168086.463    22168099.264
  22054444.585   -17684553.53749 -13501957.81447  22054443.836    22054454.765
  20570438.170   -28061435.27949 -21853156.56848  20570437.433    20570447.716
  22699610.963   -13377143.71849 -10145572.78446  22699610.607    22699625.220
  23873929.165    -5833797.12749  -4543172.41845  23873928.103    23873945.101
  20522863.216   -26772205.13949 -20599150.18648  20522862.338    20522872.681
  22436804.552   -17509566.79249 -11929130.26147  22436803.874    22436816.935
  22027587.625   -18992656.49649 -14780079.64947  22027587.518    22027598.866
  20409028.843   -24221246.97949 -18288901.70048  20409028.214    20409036.951
  23872221.719    -8347895.48149  -5960057.31545  23872221.275    23872236.723
 02  3  7  1 35  0.0000000  0 10G 6G23G17G29G22G15G21G26G18G 3
  22185522.350    -5984290.27549  -4648985.80347  22185522.002    22185534.812
  22067359.799   -17616683.49149 -13449072.08147  22067359.055    22067369.989
  20569696.301   -28065333.67749 -21856194.24648  20569695.566    20569705.855
  22680945.345   -13475231.58949 -10222004.66246  22680944.959    22680959.537
  23883111.546    -5785543.96849  -4505572.63045  23883110.467    23883127.566
  20518461.622   -26795335.56249 -20617173.83448  20518460.745    20518471.079
  22425770.347   -17567551.48849 -11974313.00047  22425769.663    22425782.642
  22036471.443   -18945971.53149 -14743701.73647  22036471.318    22036482.725
  20406492.808   -24234573.70649 -18299286.10848  20406492.190    20406500.898
  23854290.428    -8442124.39149  -6033482.22445  23854289.919    23854305.428
 02  3  7  1 35 30.0000000  0 10G 6G23G17G29G22G15G21G26G18G 3
  22203017.959    -5892350.84849  -4577344.80147  22203017.601    22203030.416
  22080303.730   -17548662.55049 -13396068.77147  22080303.004    22080313.958
  20568996.376   -28069011.39049 -21859059.96548  20568995.651    20569005.971
  22662318.143   -13573117.53549 -10298279.20546  22662317.754    22662332.194
  23892360.262    -5736942.22349  -4467701.22345  23892359.194    23892376.320
  20514103.797   -26818235.79149 -20635018.11648  20514102.912    20514113.245
  22414786.652   -17625270.83949 -12019288.96947  22414785.967    22414798.867
  22045468.859   -18898689.58849 -14706858.64647  22045468.730    22045480.192
  20404035.259   -24247488.11149 -18309349.22248  20404034.631    20404043.321
  23836401.860    -8536128.59449  -6106732.03145  23836401.363    23836416.874
 02  3  7  1 36  0.0000000  0 10G 6G23G17G29G22G15G21G26G18G 3
  22220573.252    -5800097.40449  -4505459.11746  22220572.897    22220585.771
  22093276.172   -17480491.95149 -13342948.84647  22093275.444    22093286.405
  20568338.788   -28072466.89749 -21861752.52448  20568338.066    20568348.379
  22643729.985   -13670798.16149 -10374393.75446  22643729.602    22643743.988
  23901674.971    -5687993.66149  -4429559.57245  23901673.935    23901691.049
  20509790.102   -26840904.24049 -20652681.78548  20509789.228    20509799.546
  22403853.535   -17682724.16849 -12064057.64847  22403852.876    22403865.730
  22054579.678   -18850811.86549 -14669551.32147  22054579.562    22054591.032
  20401656.120   -24259990.32949 -18319091.15248  20401655.498    20401664.172
  23818556.675    -8629904.88749  -6179804.22245  23818556.257    23818571.646
 02  3  7  1 36 30.0000000  0 10G 6G23G17G29G22G15G21G26G18G 3
  22238187.784    -5707532.75249  -4433330.93646  22238187.423    22238200.323
  22106276.702   -17412174.01849 -13289714.12347  22106275.944    22106286.909
  20567723.508   -28075700.20049 -21864271.93848  20567722.772    20567733.063
  22625181.274   -13768271.42649 -10450346.73046  22625180.893    22625195.237
  23911054.994    -5638701.53049  -4391150.20945  23911053.932    23911071.118
  20505520.490   -26863340.92549 -20670164.85548  20505519.614    20505529.932
  22392970.939   -17739911.84749 -12108619.31947  22392970.300    22392983.117
  22063803.371   -18802340.81649 -14631781.65347  22063803.267    22063814.723
  20399355.161   -24272081.83049 -18328513.04848  20399354.531    20399363.183
  23800755.087    -8723451.67549  -6252697.56445  23800754.651    23800770.035
 02  3  7  1 37  0.0000000  0 10G 6G23G17G29G22G15G21G26G18G 3
  22255861.269    -5614658.44749  -4360961.44646  22255860.928    22255873.817
  22119304.941   -17343710.15149 -13236365.68947  22119304.184    22119315.156
  20567150.745   -28078710.04449 -21866617.22048  20567149.998    20567160.273
  22606672.622   -13865534.02049 -10526135.54346  22606672.257    22606686.545
  23920500.015    -5589067.94849  -4352474.77345  23920498.983    23920516.181
  20501295.212   -26885544.73749 -20687466.46948  20501294.339    20501304.640
  22382138.929   -17796833.88749 -12152973.99647  22382138.269    22382151.045
  22073139.811   -18753277.66749 -14593550.61447  22073139.673    22073151.075
  20397132.282   -24283762.91149 -18337615.13848  20397131.650    20397140.297
  23782997.775    -8816765.96049  -6325409.71545  23782997.294    23783012.700
 02  3  7  1 37 30.0000000  0 10G 6G23G17G29G22G15G21G26G18G 3
  22273593.185    -5521477.06449  -4288352.65446  22273592.792    22273605.720
  22132360.544   -17275102.64549 -13182905.32347  22132359.776    22132370.725
  20566620.544   -28081496.00449 -21868788.04548  20566619.815    20566630.054
  22588204.526   -13962583.50749 -10601758.28446  22588204.202    22588218.413
  23930009.417    -5539095.93849  -4313535.62245  23930008.389    23930025.658
  20497114.302   -26907515.21849 -20704586.26248  20497113.424    20497123.720
  22371357.447   -17853490.43549 -12197121.79047  22371356.792    22371369.510
  22082588.430   -18703624.62849 -14554859.92747  22082588.322    22082599.688
  20394987.237   -24295034.95449 -18346398.49148  20394986.605    20394995.240
  23765285.208    -8909845.49249  -6397938.94045  23765284.706    23765300.020
 02  3  7  1 38  0.0000000  0 10G 6G23G17G29G22G15G21G26G18G 3
  22291383.234    -5427990.03349  -4215505.69646  22291382.837    22291395.788
  22145443.287   -17206352.52949 -13129333.82947  22145442.519    22145453.482
  20566133.254   -28084056.66449 -21870783.31548  20566132.513    20566142.725
  22569777.673   -14059416.38249 -10677212.24046  22569777.319    22569791.537
  23939582.960    -5488787.23249  -4274334.12245  23939581.872    23939599.211
  20492978.108   -26929250.80449 -20721523.02448  20492977.237    20492987.521
  22360626.624   -17909880.75749 -12241062.14447  22360625.941    22360638.618
  22092149.091   -18653382.85449 -14515710.49547  22092148.983    22092160.360
  20392920.080   -24305897.80449 -18354862.99648  20392919.456    20392928.076
  23747617.795    -9002687.36149  -6470282.97245  23747617.317    23747632.587
 02  3  7  1 38 30.0000000  0 10G 6G23G17G29G22G15G21G26G18G 3
  22309230.839    -5334200.55249  -4142423.08146  22309230.471    22309243.421
  22158552.586   -17137462.73249 -13075653.48247  22158551.844    22158562.807
  20565688.727   -28086392.39149 -21872603.31948  20565687.991    20565698.205
  22551392.382   -14156031.08249 -10752496.19246  22551392.006    22551406.147
  23949219.801    -5438145.74449  -4234873.29745  23949218.741    23949236.091
  20488886.570   -26950751.83749 -20738277.02048  20488885.690    20488895.960
  22349946.216   -17966006.43449 -12284796.27447  22349945.535    22349958.115
  22101821.177   -18602555.44149 -14476104.71747  22101821.078    22101832.471
  20390930.359   -24316353.55649 -18363010.28148  20390929.733    20390938.322
  23729995.934    -9095289.93349  -6542440.52445  23729995.477    23730010.634
 02  3  7  1 39  0.0000000  0 10G 6G23G17G29G22G15G21G26G18G 3
  22327135.771    -5240109.97049  -4069105.83246  22327135.396    22327148.363
  22171688.281   -17068434.21349 -13021865.04647  22171687.530    22171698.544
  20565287.350   -28088501.45849 -21874246.70448  20565286.608    20565296.833
  22533049.235   -14252424.05149 -10827607.36346  22533048.875    22533062.947
  23958919.507    -5387173.14549  -4195154.48345  23958918.476    23958935.867
  20484839.970   -26972016.64349 -20754846.94048  20484839.101    20484849.335
  22339316.357   -18021866.37049 -12328323.33547  22339315.644    22339328.161
  22111604.565   -18551143.30049 -14436043.29947  22111604.455    22111615.885
  20389018.148   -24326402.15749 -18370840.30448  20389017.507    20389026.079
  23712420.242    -9187649.88949  -6614409.02546  23712419.804    23712434.905
 02  3  7  1 39 30.0000000  0 10G 6G23G17G29G22G15G21G26G18G 3
  22345097.621    -5145720.41349  -3995555.62746  22345097.221    22345110.188
  22184850.058   -16999268.57349 -12967969.77147  22184849.338    22184860.419
  20564929.277   -28090382.91149 -21875712.72248  20564928.546    20564938.759
  22514748.855   -14348592.25949 -10902543.40546  22514748.514    22514762.467
  23968681.873    -5335871.89549  -4155179.56645  23968680.848    23968698.130
  20480838.483   -26993044.38649 -20771232.14248  20480837.621    20480847.848
  22328737.112   -18077460.04749 -12371642.92147  22328736.408    22328748.853
  22121498.929   -18499148.04849 -14395527.51346  22121498.815    22121510.232
  20387183.268   -24336044.26149 -18378353.57648  20387182.637    20387191.192
  23694891.171    -9279764.74749  -6686186.54846  23694890.709    23694905.815
 02  3  7  1 40  0.0000000  0 10G 6G23G17G29G22G15G21G26G18G 3
  22363115.933    -5051033.96449  -3921774.07146  22363115.517    22363128.498
  22198037.614   -16929967.53249 -12913968.97947  22198036.889    22198047.995
  20564614.660   -28092036.13149 -21877000.89448  20564613.934    20564624.125
  22496491.727   -14444533.08649 -10977302.25646  22496491.424    22496505.257
  23978506.315    -5284244.68449  -4114950.64645  23978505.296    23978522.533
  20476882.197   -27013834.55949 -20787432.21448  20476881.340    20476891.572
  22318208.484   -18132787.75749 -12414755.25447  22318207.787    22318220.209
  22131503.843   -18446571.88649 -14354559.06846  22131503.719    22131515.165
  20385425.549   -24345280.84249 -18385550.85148  20385424.924    20385433.467
  23677409.100    -9371632.10249  -6757771.21546  23677408.632    23677423.710
 02  3  7  1 40 30.0000000  0 10G 6G23G17G29G22G15G21G26G18G 3
  22381190.143    -4956053.52749  -3847763.44646  22381189.745    22381202.771
  22211250.521   -16860533.41049 -12859864.49447  22211249.782    22211260.924
  20564343.518   -28093460.81749 -21878110.99948  20564342.802    20564352.966
  22478278.268   -14540244.46849 -11051882.32346  22478277.953    22478291.719
  23988392.146    -5232294.79149  -4074470.28445  23988391.062    23988408.323
  20472971.167   -27034386.88349 -20803446.95648  20472970.308    20472980.520
  22307730.314   -18187850.02949 -12457660.75647  22307729.611    22307742.051
  22141618.864   -18393417.18949 -14313139.81546  22141618.696    22141630.173
  20383744.714   -24354113.30649 -18392433.23248  20383744.078    20383752.643
  23659974.586    -9463249.82949  -6829161.36746  23659974.112    23659989.157
 02  3  7  1 41  0.0000000  0 10G 6G23G17G29G22G15G21G26G18G 3
  22399320.059    -4860780.65849  -3773524.96246  22399319.673    22399332.742
  22224488.457   -16790967.62449 -12805657.40647  22224487.707    22224498.865
  20564116.039   -28094656.00149 -21879042.28048  20564115.319    20564125.442
  22460109.102   -14635723.07149 -11126280.99946  22460108.811    22460122.494
  23998338.850    -5180024.42149  -4033740.21745  23998337.717    23998355.164
  20469105.680   -27054699.95549 -20819275.27148  20469104.804    20469115.013
  22297302.795   -18242646.23349 -12500358.93947  22297302.109    22297314.547
  22151843.609   -18339685.54149 -14271270.99546  22151843.478    22151854.957
  20382140.707   -24362542.03249 -18399001.01648  20382140.068    20382148.638
  23642588.139    -9554615.07049  -6900354.79245  23642587.607    23642602.606
 02  3  7  1 41 30.0000000  0 10G 6G23G17G29G22G15G21G26G18G 3
  22417505.128    -4765217.92349  -3699060.59746  22417504.754    22417517.845
  22237751.129   -16721272.10249 -12751349.22547  22237750.376    22237761.526
  20563932.398   -28095620.87749 -21879794.09348  20563931.676    20563941.779
  22441984.705   -14730966.57049 -11200496.47046  22441984.388    22441998.051
  24008346.058    -5127436.38049  -3992762.59845  24008344.978    24008362.522
  20465285.745   -27074773.59949 -20834917.01948  20465284.878    20465295.079
  22286925.762   -18297177.25349 -12542850.48547  22286925.073    22286937.454
  22162177.768   -18285379.12249 -14228954.29346  22162177.634    22162189.155
  20380613.322   -24370568.39849 -18405255.27348  20380612.676    20380621.216
  23625250.205    -9645725.56749  -6971349.72245  23625249.690    23625264.602
 02  3  7  1 42  0.0000000  0 10G 6G23G17G29G22G15G21G26G18G 3
  22435744.917    -4669367.48449  -3624372.04746  22435744.557    22435757.643
  22251038.168   -16651448.32549 -12696941.10247  22251037.407    22251048.554
  20563792.775   -28096354.44249 -21880365.66448  20563792.053    20563802.153
  22423905.614   -14825971.83149 -11274526.30546  22423905.314    22423918.908
  24018413.277    -5074533.27249  -3951539.47345  24018412.149    24018429.676
  20461511.571   -27094606.83349 -20850371.42848  20461510.701    20461520.911
  22276599.265   -18351442.76449 -12585135.14247  22276598.562    22276610.927
  22172620.958   -18230499.85949 -14186191.21846  22172620.804    22172632.333
  20379162.377   -24378192.89049 -18411196.38448  20379161.750    20379170.264
  23607961.298    -9736578.55949  -7042144.00646  23607960.769    23607975.567
 02  3  7  1 42 30.0000000  0 10G 6G23G17G29G22G15G21G26G18G 3
  22454039.051    -4573231.75049  -3549461.20046  22454038.672    22454051.770
  22264349.223   -16581498.31849 -12642434.62447  22264348.462    22264359.631
  20563697.251   -28096856.30949 -21880756.68048  20563696.529    20563706.612
  22405872.360   -14920736.46849 -11348368.64046  22405872.048    22405885.577
  24028539.871    -5021318.01649  -3910073.12945  24028538.738    24028556.268
  20457783.243   -27114199.05449 -20865638.03448  20457782.382    20457792.574
  22266323.134   -18405443.35749 -12627213.38047  22266322.446    22266334.822
  22183172.714   -18175050.01349 -14142983.53346  22183172.579    22183184.072
  20377787.666   -24385416.73949 -18416825.31148  20377787.032    20377795.518
  23590721.726    -9827172.10349  -7112736.13646  23590721.164    23590735.960
 02  3  7  1 43  0.0000000  0 10G 6G23G17G29G22G15G21G26G18G 3
  22472387.046    -4476812.73649  -3474329.60846  22472386.640    22472399.788
  22277684.045   -16511423.43249 -12587830.83247  22277683.271    22277694.460
  20563646.008   -28097125.43149 -21880966.34648  20563645.285    20563655.355
  22387885.460   -15015257.49749 -11422021.15646  22387885.140    22387898.627
  24038725.420    -4967792.85049  -3868365.29745  24038724.378    24038741.825
  20454101.035   -27133548.90749 -20880715.78048  20454100.161    20454110.350
  22256097.499   -18459178.44049 -12669084.72247  22256096.835    22256109.226
  22193832.737   -18119031.30549 -14099332.58046  22193832.599    22193844.081
  20376489.071   -24392240.68649 -18422142.62348  20376488.441    20376496.892
  23573532.042    -9917503.18849  -7183123.74346  23573531.474    23573546.226
 02  3  7  1 43 30.0000000  0 10G 6G23G17G29G22G15G21G26G18G 3
  22490788.632    -4380112.07249  -3398978.55146  22490788.241    22490801.440
  22291042.396   -16441224.93749 -12533130.72847  22291041.633    22291052.822
  20563639.336   -28097160.31849 -21880993.50848  20563638.629    20563648.677
  22369945.523   -15109531.66949 -11495481.32046  22369945.180    22369958.564
  24048969.495    -4913960.02049  -3826417.71945  24048968.495    24048985.901
  20450465.198   -27152655.16049 -20895603.71848  20450464.318    20450474.470
  22245922.554   -18512647.49949 -12710748.77947  22245921.879    22245934.272
  22204600.685   -18062445.26149 -14055239.53746  22204600.545    22204612.018
  20375266.536   -24398665.07249 -18427148.59048  20375265.907    20375274.316
  23556392.903   -10007568.76849  -7253304.49546  23556392.409    23556407.082
 02  3  7  1 44  0.0000000  0 10G 6G23G17G29G22G15G21G26G18G 3
  22509243.191    -4283132.89849  -3323410.47846  22509242.835    22509256.093
  22304423.774   -16370905.51349 -12478336.39647  22304423.029    22304434.172
  20563677.183   -28096961.28549 -21880838.39148  20563676.463    20563686.507
  22352052.874   -15203557.25649 -11568747.77046  22352052.526    22352065.856
  24059271.465    -4859823.16549  -3784233.25245  24059270.434    24059287.891
  20446875.666   -27171518.24749 -20910302.17748  20446874.783    20446884.903
  22235797.932   -18565852.00549 -12752206.69547  22235797.258    22235809.669
  22215475.997   -18005294.98349 -14010706.84446  22215475.847    22215487.315
  20374119.680   -24404691.62849 -18431844.55848  20374119.041    20374127.450
  23539304.717   -10097367.31449  -7323277.15846  23539304.169    23539318.837
 02  3  7  1 44 30.0000000  0 10G 6G23G17G29G22G15G21G26G18G 3
  22527750.572    -4185876.73149  -3247626.56446  22527750.183    22527763.433
  22317827.990   -16300466.17149 -12423448.61347  22317827.240    22317838.343
  20563759.882   -28096526.66349 -21880499.70148  20563759.156    20563769.194
  22334208.190   -15297330.72449 -11641817.76446  22334207.840    22334221.107
  24069630.865    -4805384.10449  -3741813.27745  24069629.861    24069647.425
  20443332.640   -27190136.60549 -20924809.94148  20443331.776    20443341.865
  22225723.819   -18618791.13349 -12793457.82847  22225723.152    22225735.534
  22226458.411   -17947581.78549 -13965735.50246  22226458.283    22226469.736
  20373048.492   -24410320.70649 -18436230.80748  20373047.843    20373056.240
  23522267.899   -10186895.61849  -7393039.24346  23522267.354    23522281.946
 02  3  7  1 45  0.0000000  0 10G 6G23G17G29G22G15G21G26G18G 3
  22546310.023    -4088346.62349  -3171629.17246  22546309.615    22546322.890
  22331254.545   -16229909.16549 -12368469.14447  22331253.765    22331264.886
  20563887.375   -28095856.44249 -21879977.42948  20563886.648    20563896.695
  22316411.831   -15390850.12849 -11714689.78346  22316411.480    22316424.681
  24080047.207    -4750646.38549  -3699160.58545  24080046.171    24080063.732
  20439836.261   -27208510.10449 -20939126.90148  20439835.396    20439845.458
  22215700.035   -18671465.88049 -12834502.94747  22215699.372    22215711.746
  22237547.426   -17889308.55949 -13920327.77046  22237547.306    22237558.746
  20372052.616   -24415553.85349 -18440308.53348  20372051.972    20372060.373
  23505282.818   -10276151.79849  -7462589.29146  23505282.302    23505296.803
 02  3  7  1 45 30.0000000  0 10G 6G23G17G29G22G15G21G26G18G 3
  22564921.294    -3990544.04949  -3095419.47546  22564920.890    22564934.181
  22344703.283   -16159235.55049 -12313398.80147  22344702.504    22344713.650
  20564060.058   -28094948.97349 -21879270.29148  20564059.328    20564069.399
  22298664.467   -15484112.09449 -11787361.21246  22298664.147    22298677.298
  24090519.946    -4695612.13149  -3656276.83045  24090518.881    24090536.429
  20436386.750   -27226637.17149 -20953251.83948  20436385.885    20436395.924
  22205726.689   -18723875.50249 -12875341.47447  22205726.026    22205738.398
  22248742.719   -17830476.78549 -13874484.80546  22248742.596    22248754.087
  20371131.992   -24420391.62749 -18444078.17848  20371131.349    20371139.749
  23488350.083   -10365132.74349  -7531924.88046  23488349.554    23488364.013
 02  3  7  1 46  0.0000000  0 10G 6G23G17G29G22G15G21G26G18G 3
  22583583.805    -3892471.92449  -3018999.74546  22583583.410    22583596.764
  22358173.781   -16088447.43949 -12258239.23947  22358173.039    22358184.166
  20564277.914   -28093803.95349 -21878378.04848  20564277.187    20564287.278
  22280966.507   -15577114.34549 -11859830.25346  22280966.179    22280979.275
  24101048.549    -4640284.53249  -3613164.49945  24101047.442    24101064.979
  20432984.160   -27244517.71849 -20967184.68648  20432983.290    20432993.293
  22195803.698   -18776020.52949 -12915973.82847  22195803.036    22195815.363
  22260043.827   -17771089.07949 -13828208.64546  22260043.703    22260055.184
  20370286.342   -24424835.38649 -18447540.80448  20370285.695    20370294.098
  23471470.135   -10453836.48749  -7601044.45446  23471469.631    23471484.055
 02  3  7  1 46 30.0000000  0 10G 6G23G17G29G22G15G21G26G18G 3
  22602297.353    -3794132.01849  -2942371.35446  22602296.955    22602310.383
  22371665.813   -16017546.27149 -12202991.57647  22371665.039    22371676.218
  20564541.165   -28092420.47549 -21877299.98848  20564540.435    20564550.533
  22263318.546   -15669854.00649 -11932094.68646  22263318.226    22263331.249
  24111632.476    -4584666.03549  -3569825.50545  24111631.395    24111648.917
  20429628.719   -27262150.36049 -20980924.35748  20429627.853    20429637.850
  22185931.044   -18827901.13249 -12956400.13047  22185930.371    22185942.655
  22271450.378   -17711147.39949 -13781500.82146  22271450.266    22271461.721
  20369515.553   -24428885.61649 -18450696.78648  20369514.908    20369523.313
  23454643.442   -10542260.26949  -7669945.88346  23454642.949    23454657.327
 02  3  7  1 47  0.0000000  0 10G 6G23G17G29G22G15G21G26G18G 3
  22621061.501    -3695526.59549  -2865536.06446  22621061.075    22621074.498
  22385179.030   -15946533.73649 -12147657.14147  22385178.234    22385189.429
  20564849.994   -28090797.44949 -21876035.26048  20564849.281    20564859.365
  22245721.148   -15762328.13649 -12004152.20446  22245720.808    22245733.776
  24122271.164    -4528759.42149  -3526261.99145  24122270.139    24122287.676
  20426320.675   -27279534.19349 -20994470.15448  20426319.803    20426329.800
  22176108.698   -18879517.40049 -12996620.46347  22176108.030    22176120.240
  22282961.896   -17650653.78449 -13734362.91646  22282961.777    22282973.258
  20368819.461   -24432543.40149 -18453546.97048  20368818.800    20368827.229
  23437870.519   -10630401.65149  -7738627.25346  23437870.011    23437884.331
 02  3  7  1 47 30.0000000  0 10G 6G23G17G29G22G15G21G26G18G 3
  22639875.609    -3596658.18549  -2788495.84146  22639875.220    22639888.602
  22398713.081   -15875411.69249 -12092237.38047  22398712.304    22398723.518
  20565204.579   -28088934.21949 -21874583.35548  20565203.846    20565213.894
  22228174.711   -15854534.34449 -12076000.95746  22228174.376    22228187.299
  24132964.246    -4472567.33349  -3482476.03745  24132963.287    24132980.869
  20423060.055   -27296668.45049 -21007821.48148  20423059.180    20423069.186
  22166336.561   -18930869.85249 -13036635.22147  22166335.895    22166348.015
  22294577.972   -17589610.67949 -13686796.83746  22294577.865    22294589.344
  20368197.801   -24435809.87949 -18456092.24048  20368197.151    20368205.582
  23421151.839   -10718258.12149  -7807086.61946  23421151.325    23421165.594
 02  3  7  1 48  0.0000000  0 10G 6G23G17G29G22G15G21G26G18G 3
  22658739.351    -3497529.32049  -2711252.65946  22658738.941    22658752.310
  22412267.674   -15804181.69349 -12036733.49647  22412266.901    22412278.149
  20565604.954   -28086830.12849 -21872943.77448  20565604.218    20565614.237
  22210679.757   -15946469.95849 -12147638.85146  22210679.417    22210692.261
  24143711.050    -4416092.92149  -3438470.09345  24143710.087    24143727.722
  20419847.036   -27313552.84849 -21020978.11448  20419846.175    20419856.163
  22156614.652   -18981958.32349 -13076444.27147  22156613.976    22156626.060
  22306298.219   -17528020.48549 -13638804.45846  22306298.091    22306309.542
  20367650.417   -24438686.27449 -18458333.54348  20367649.770    20367658.188
  23404487.791   -10805827.45549  -7875322.25546  23404487.311    23404501.447
 02  3  7  1 48 30.0000000  0 10G 6G23G17G29G22G15G21G26G18G 3
  22677652.285    -3398141.46149  -2633807.68346  22677651.888    22677665.262
  22425842.654   -15732844.66749 -11981146.21447  22425841.893    22425853.166
  20566051.465   -28084483.58849 -21871115.27048  20566050.729    20566060.723
  22193236.966   -16038131.67449 -12219063.33846  22193236.622    22193249.387
  24154511.274    -4359337.89449  -3394245.49245  24154510.290    24154527.973
  20416681.914   -27330185.43049 -21033938.52248  20416681.046    20416691.031
  22146943.096   -19032781.96149 -13116046.96147  22146942.431    22146954.468
  22318122.321   -17465884.55749 -13590386.83746  22318122.176    22318133.631
  20367177.260   -24441172.59849 -18460270.89048  20367176.617    20367185.015
  23387879.049   -10893106.23249  -7943331.47546  23387878.559    23387892.630
 02  3  7  1 49  0.0000000  0 10G 6G23G17G29G22G15G21G26G18G 3
  22696613.864    -3298498.08749  -2556163.59446  22696613.441    22696626.876
  22439437.471   -15661403.35549 -11925477.67047  22439436.731    22439448.028
  20566544.049   -28081894.81749 -21869097.99948  20566543.318    20566553.268
  22175846.583   -16129517.84849 -12290273.11546  22175846.211    22175858.900
  24165364.133    -4302306.31349  -3349805.39645  24165363.087    24165380.814
  20413564.692   -27346566.48249 -21046702.93048  20413563.824    20413573.783
  22137321.708   -19083342.27549 -13155444.45947  22137321.052    22137333.022
  22330049.558   -17403206.53449 -13541546.80346  22330049.399    22330060.779
  20366777.898   -24443271.16049 -18461906.08648  20366777.244    20366785.626
  23371325.895   -10980092.91549  -8011113.08246  23371325.419    23371339.440
 02  3  7  1 49 30.0000000  0 10G 6G23G17G29G22G15G21G26G18G 3
  22715623.764    -3198600.49949  -2478321.42546  22715623.321    22715636.789
  22453052.025   -15589858.39849 -11869728.36247  22453051.266    22453062.642
  20567083.095   -28079062.03149 -21866890.59648  20567082.355    20567092.289
  22158509.370   -16220624.71449 -12361265.25446  22158509.004    22158521.619
  24176269.140    -4244999.97849  -3305151.19745  24176268.148    24176285.984
  20410495.576   -27362694.47849 -21059270.15448  20410494.709    20410504.646
  22127750.558   -19133638.55549 -13194636.21347  22127749.878    22127761.809
  22342079.780   -17339987.44249 -13492285.15446  22342079.630    22342090.890
  20366452.340   -24444981.75349 -18463238.96948  20366451.679    20366460.056
  23354829.010   -11066784.08949  -8078664.44646  23354828.459    23354842.439
 02  3  7  1 50  0.0000000  0 10G 6G23G17G29G22G15G21G26G18G 3
  22734681.474    -3098451.54949  -2400283.39646  22734680.998    22734694.618
  22466685.881   -15518212.14249 -11813900.13247  22466685.088    22466696.489
  20567668.626   -28075984.93049 -21864492.81748  20567667.880    20567677.829
  22141225.602   -16311450.54149 -12432038.40546  22141225.229    22141237.823
  24187225.797    -4187422.15449  -3260285.46445  24187224.862    24187242.748
  20407474.710   -27378568.94049 -21071639.82148  20407473.840    20407483.772
  22118229.509   -19183671.53649 -13233622.80047  22118228.839    22118240.720
  22354212.327   -17276230.35949 -13442604.29846  22354212.181    22354223.370
  20366200.290   -24446306.21049 -18464270.96748  20366199.633    20366208.009
  23338388.620   -11153178.16149  -8145984.29846  23338388.041    23338401.997
 02  3  7  1 50 30.0000000  0 10G 6G23G17G29G22G15G21G26G18G 3
  22753786.740    -2998052.87249  -2322050.78146  22753786.292    22753799.981
  22480338.895   -15446465.28149 -11757993.50447  22480338.126    22480349.492
  20568300.895   -28072662.01549 -21861903.50448  20568300.152    20568310.111
  22123996.024   -16401991.66649 -12502589.71446  22123995.647    22124008.215
  24198233.913    -4129574.90849  -3215209.78145  24198232.951    24198250.777
  20404502.396   -27394188.42149 -21083810.79448  20404501.528    20404511.451
  22108758.568   -19233441.01749 -13272404.05347  22108757.886    22108769.740
  22366446.941   -17211936.92849 -13392505.50946  22366446.791    22366457.972
  20366021.596   -24447245.00749 -18465002.45248  20366020.937    20366029.330
  23322005.347   -11239271.92149  -8213070.12446  23322004.763    23322018.682
 02  3  7  1 51  0.0000000  0 10G 6G23G17G29G22G15G21G26G18G 3
  22772939.010    -2897407.43549  -2243625.86646  22772938.573    22772952.288
  22494010.549   -15374620.31049 -11702010.42747  22494009.751    22494021.121
  20568979.938   -28069093.38149 -21859122.72548  20568979.202    20568989.169
  22106820.954   -16492246.28149 -12572917.77246  22106820.577    22106833.120
  24209292.578    -4071461.77749  -3169926.93045  24209291.546    24209309.418
  20401578.633   -27409552.87049 -21095783.04148  20401577.752    20401587.661
  22099337.662   -19282947.73249 -13310980.55747  22099336.988    22099348.779
  22378783.050   -17147110.31049 -13341991.25246  22378782.901    22378794.035
  20365915.907   -24447799.96749 -18465434.84348  20365915.270    20365923.658
  23305679.602   -11325063.41249  -8279920.42546  23305679.015    23305692.854
 02  3  7  1 51 30.0000000  0 10G 6G23G17G29G22G15G21G26G18G 3
  22792137.924    -2796516.85449  -2165009.92746  22792137.501    22792151.220
  22507700.715   -15302678.06249 -11645951.53847  22507699.954    22507711.322
  20569706.035   -28065277.33149 -21856149.14748  20569705.309    20569715.285
  22089701.030   -16582211.10549 -12643020.01747  22089700.679    22089713.198
  24220401.383    -4013084.97949  -3124438.61945  24220400.375    24220418.205
  20398703.644   -27424660.72449 -21107555.34048  20398702.762    20398712.680
  22089966.849   -19332191.12149 -13349351.86547  22089966.175    22089977.916
  22391220.282   -17081751.94049 -13291062.63746  22391220.151    22391231.298
  20365883.301   -24447971.21549 -18465568.23448  20365882.653    20365891.033
  23289411.978   -11410549.39149  -8346532.63846  23289411.356    23289425.187
 02  3  7  1 52  0.0000000  0 10G 6G23G17G29G22G15G21G26G18G 3
  22811382.944    -2695383.84549  -2086205.08846  22811382.548    22811396.303
  22521409.029   -15230640.27949 -11589818.21447  22521408.293    22521419.635
  20570479.369   -28061213.24249 -21852982.29148  20570478.644    20570488.608
  22072636.714   -16671883.78549 -12712894.62647  22072636.362    22072648.841
  24231559.860    -3954447.46049  -3078747.13045  24231558.820    24231576.632
  20395877.589   -27439511.56049 -21119127.37048  20395876.718    20395886.603
  22080646.038   -19381171.80049 -13387518.47347  22080645.358    22080657.059
  22403758.189   -17015864.77649 -13239721.96946  22403758.081    22403769.268
  20365923.436   -24447760.20649 -18465403.76848  20365922.795    20365931.140
  23273202.812   -11495727.78449  -8412905.17346  23273202.218    23273216.011
 02  3  7  1 52 30.0000000  0 10G 6G23G17G29G22G15G21G26G18G 3
  22830673.568    -2594011.29849  -2007213.59746  22830673.184    22830686.946
  22535135.162   -15158509.19949 -11533612.18647  22535134.431    22535145.749
  20571299.929   -28056900.86849 -21849621.97448  20571299.196    20571309.179
  22055628.388   -16761262.17249 -12782539.90647  22055628.017    22055640.523
  24242767.259    -3895552.51349  -3032855.08145  24242766.242    24242784.023
  20393100.489   -27454105.16049 -21130498.95848  20393099.601    20393109.489
  22071374.983   -19429890.71749 -13425481.10647  22071374.296    22071385.985
  22416396.201   -16949451.58249 -13187971.42246  22416396.082    22416407.277
  20366035.972   -24447168.64949 -18464942.76748  20366035.337    20366043.631
  23257052.611   -11580596.62949  -8479036.50046  23257052.059    23257065.782
 02  3  7  1 53  0.0000000  0 10G 6G23G17G29G22G15G21G26G18G 3
  22850009.523    -2492400.76649  -1928036.66646  22850009.127    22850022.891
  22548878.914   -15086285.44849 -11477333.94247  22548878.156    22548889.464
  20572168.087   -28052338.54949 -21846066.89748  20572167.375    20572177.351
  22038676.713   -16850342.81749 -12851953.18947  22038676.352    22038688.827
  24254023.288    -3836402.21649  -2986764.04045  24254022.240    24254040.000
  20390372.749   -27468439.47849 -21141668.50648  20390371.879    20390381.726
  22062153.934   -19478347.09949 -13463239.17147  22062153.249    22062164.912
  22429133.995   -16882513.91249 -13135812.19246  22429133.904    22429145.085
  20366220.910   -24446196.73449 -18464185.38648  20366220.259    20366228.520
  23240962.022   -11665152.33749  -8544923.81346  23240961.457    23240975.111
 02  3  7  1 53 30.0000000  0 10G 6G23G17G29G22G15G21G26G18G 3
  22869390.206    -2390555.35049  -1848676.71746  22869389.771    22869403.563
  22562639.841   -15013971.34549 -11420985.30347  22562639.100    22562650.380
  20573083.914   -28047526.02949 -21842316.85448  20573083.191    20573093.151
  22021782.060   -16939123.85449 -12921133.01247  22021781.688    22021794.089
  24265327.255    -3777000.01349  -2940476.72145  24265326.144    24265343.847
  20387694.345   -27482514.43749 -21152635.95548  20387693.464    20387703.293
  22052982.621   -19526542.02349 -13500793.50747  22052981.929    22052993.587
  22441971.020   -16815055.00349 -13083246.80346  22441970.907    22441982.103
  20366477.876   -24444846.19849 -18463132.96948  20366477.231    20366485.478
  23224931.284   -11749393.50049  -8610566.03246  23224930.746    23224944.299
 02  3  7  1 54  0.0000000  0 10G 6G23G17G29G22G15G21G26G18G 3
  22888815.239    -2288476.66349  -1769135.00646  22888814.773    22888828.593
  22576417.825   -14941567.71749 -11364566.92247  22576417.072    22576428.332
  20574047.598   -28042461.80049 -21838370.66948  20574046.864    20574056.823
  22004945.047   -17027601.80249 -12990076.65547  22004944.714    22004957.095
  24276678.684    -3717348.03749  -2893994.76645  24276677.636    24276695.248
  20385065.568   -27496328.54649 -21163400.14248  20385064.683    20385074.500
  22043861.169   -19574474.76849 -13538143.55147  22043860.503    22043872.156
  22454906.884   -16747076.48749 -13030276.51546  22454906.762    22454917.966
  20366806.832   -24443117.43149 -18461785.83448  20366806.184    20366814.411
  23208961.021   -11833316.77649  -8675960.54946  23208960.492    23208973.958
 02  3  7  1 54 30.0000000  0 10G 6G23G17G29G22G15G21G26G18G 3
  22908283.918    -2186168.47749  -1689414.46346  22908283.475    22908297.268
  22590212.246   -14869077.45149 -11308081.01647  22590211.462    22590222.766
  20575059.114   -28037146.41249 -21834228.77148  20575058.364    20575068.326
  21988166.011   -17115775.53549 -13058783.25347  21988165.660    21988177.970
  24288076.891    -3657450.40249  -2847321.38145  24288075.765    24288093.442
  20382486.330   -27509882.36049 -21173961.49648  20382485.449    20382495.252
  22034789.318   -19622146.99649 -13575290.59847  22034788.653    22034800.295
  22467940.867   -16678582.17049 -12976904.30246  22467940.758    22467951.976
  20367207.266   -24441012.88749 -18460145.88648  20367206.626    20367214.847
  23193051.527   -11916920.97049  -8741106.42046  23193051.005    23193064.368
 02  3  7  1 55  0.0000000  0 10G 6G23G17G29G22G15G21G26G18G 3
  22927796.163    -2083631.33649  -1609515.53146  22927795.757    22927809.542
  22604023.203   -14796500.49549 -11251527.55347  22604022.451    22604033.763
  20576118.872   -28031577.25649 -21829889.13748  20576118.110    20576128.081
  21971445.698   -17203640.83849 -13127249.52247  21971445.335    21971457.557
  24299521.586    -3597308.39449  -2800457.58245  24299520.502    24299538.028
  20379957.139   -27523173.10549 -21184317.86548  20379956.260    20379966.060
  22025767.374   -19669557.19049 -13612233.47447  22025766.689    22025778.264
  22481072.823   -16609573.01049 -12923130.92146  22481072.717    22481083.969
  20367679.350   -24438532.08349 -18458212.75348  20367678.700    20367686.897
  23177203.488   -12000202.04849  -8806000.51646  23177203.017    23177216.276
 02  3  7  1 55 30.0000000  0 10G 6G23G17G29G22G15G21G26G18G 3
  22947351.407    -1980868.45749  -1529440.67546  22947351.009    22947364.762
  22617850.205   -14723839.12149 -11194908.30847  22617849.439    22617860.751
  20577226.882   -28025754.42849 -21825351.83848  20577226.133    20577236.076
  21954784.431   -17291195.73749 -13195473.91047  21954784.099    21954796.176
  24311012.157    -3536925.55349  -2753406.12145  24311011.117    24311028.655
  20377478.010   -27536200.84049 -21194469.28348  20377477.126    20377486.930
  22016795.048   -19716706.27449 -13648972.88847  22016794.371    22016805.939
  22494302.199   -16540052.13349 -12868958.79946  22494302.089    22494313.380
  20368222.634   -24435676.94749 -18455987.92348  20368221.983    20368230.174
  23161417.336   -12083158.19149  -8870641.41546  23161416.835    23161429.977
 02  3  7  1 56  0.0000000  0 10G 6G23G17G29G22G15G21G26G18G 3
  22966949.201    -1877881.84649  -1449191.50646  22966948.812    22966962.511
  22631693.121   -14651094.26849 -11138224.02247  22631692.326    22631703.641
  20578383.522   -28019676.39149 -21820615.67248  20578382.762    20578392.711
  21938182.767   -17378437.44349 -13263454.26347  21938182.432    21938194.359
  24322548.055    -3476304.19149  -2706168.80645  24322547.011    24322564.767
  20375049.114   -27548964.32749 -21204414.80348  20375048.238    20375058.025
  22007872.345   -19763594.68049 -13685509.18547  22007871.688    22007883.208
  22507628.573   -16470021.70749 -12814389.63446  22507628.473    22507639.739
  20368837.012   -24432448.24649 -18453472.01048  20368836.368    20368844.527
  23145693.480   -12165786.75049  -8935027.06746  23145693.000    23145705.993
 02  3  7  1 56 30.0000000  0 10G 6G23G17G29G22G15G21G26G18G 3
  22986588.974    -1774674.53349  -1368770.33646  22986588.616    22986602.274
  22645551.483   -14578268.12949 -11081476.39346  22645550.681    22645561.973
  20579588.655   -28013343.11049 -21815680.61748  20579587.898    20579597.830
  21921641.053   -17465363.91049 -13331188.97047  21921640.714    21921652.540
  24334128.673    -3415448.00049  -2658748.51445  24334127.674    24334145.481
  20372670.590   -27561463.34049 -21214154.23948  20372669.714    20372679.508
  21998999.095   -19810223.38249 -13721843.11347  21998998.431    21999009.924
  22521051.312   -16399484.93849 -12759425.90446  22521051.181    22521062.394
  20369522.166   -24428847.57349 -18450666.24348  20369521.504    20369529.680
  23130032.301   -12248086.01049  -8999156.12246  23130031.773    23130044.731
 02  3  7  1 57  0.0000000  0 10G 6G23G17G29G22G15G21G26G18G 3
  23006270.441    -1671248.30949  -1288178.61146  23006270.070    23006283.733
  22659425.094   -14505361.67849 -11024666.18346  22659424.297    22659435.583
  20580842.675   -28006753.01149 -21810545.43948  20580841.930    20580851.841
  21905159.913   -17551972.04749 -13398675.62247  21905159.584    21905171.375
  24345753.534    -3354359.14649  -2611146.92345  24345752.616    24345770.397
  20370342.658   -27573696.40549 -21223686.44148  20370341.786    20370351.547
  21990175.323   -19856592.07249 -13757974.43947  21990174.649    21990186.140
  22534570.033   -16328443.74749 -12704069.12146  22534569.882    22534581.065
  20370277.973   -24424875.59249 -18447571.14448  20370277.311    20370285.494
  23114434.325   -12330052.80249  -9063026.12546  23114433.781    23114446.730
 02  3  7  1 57 30.0000000  0 10G 6G23G17G29G22G15G21G26G18G 3
  23025993.101    -1567605.83749  -1207418.37146  23025992.736    23026006.393
  22673313.684   -14432376.68649 -10967794.76346  22673312.892    22673324.131
  20582145.662   -27999905.65549 -21805209.79148  20582144.908    20582154.807
  21888739.760   -17638259.63549 -13465912.49147  21888739.432    21888751.215
  24357422.124    -3293040.73149  -2563366.45145  24357421.228    24357439.032
  20368065.464   -27585662.89149 -21233010.91948  20368064.602    20368074.345
  21981400.949   -19902701.28049 -13793903.57047  21981400.273    21981411.748
  22548184.156   -16256900.98649 -12648321.50046  22548183.987    22548195.203
  20371104.085   -24420533.95249 -18444187.99548  20371103.439    20371111.621
  23098900.081   -12411684.80049  -9126635.26946  23098899.535    23098912.493
 02  3  7  1 58  0.0000000  0 10G 6G23G17G29G22G15G21G26G18G 3
  23045756.466    -1463749.49549  -1126491.47346  23045756.055    23045769.717
  22687217.015   -14359314.36149 -10910863.09246  22687216.207    22687227.428
  20583497.738   -27992800.17649 -21799673.01348  20583496.992    20583506.876
  21872381.156   -17724223.76249 -13532897.31947  21872380.826    21872392.593
  24369133.880    -3231495.43549  -2515409.18745  24369132.900    24369150.969
  20365839.217   -27597361.81349 -21242126.90648  20365838.344    20365848.077
  21972675.999   -19948550.73949 -13829630.30947  21972675.314    21972686.782
  22561893.240   -16184859.05849 -12592184.92246  22561893.106    22561904.311
  20372000.437   -24415823.34949 -18440517.34648  20371999.788    20372007.973
  23083430.008   -12492979.34149  -9189981.46246  23083429.445    23083442.457
 02  3  7  1 58 30.0000000  0 10G 6G23G17G29G22G15G21G26G18G 3
  23065560.049    -1359681.67349  -1045399.78546  23065559.635    23065573.343
  22701134.753   -14286176.31249 -10853872.40646  22701133.942    22701145.154
  20584899.124   -27985435.54449 -21793934.29348  20584898.381    20584908.261
  21856084.557   -17809862.17149 -13599628.33847  21856084.218    21856095.951
  24380888.242    -3169726.18349  -2467277.40345  24380887.283    24380905.429
  20363663.996   -27608792.45149 -21251033.83948  20363663.120    20363672.829
  21964000.416   -19994140.69549 -13865154.84347  21963999.730    21964011.162
  22575696.856   -16112320.61149 -12535661.44746  22575696.710    22575707.951
  20372966.706   -24410745.26749 -18436560.34948  20372966.059    20372974.243
  23068024.667   -12573934.11749  -9253062.92946  23068024.119    23068037.076
 02  3  7  1 59  0.0000000  0 10G 6G23G17G29G22G15G21G26G18G 3
  23085403.313    -1255405.05149   -964145.41546  23085402.897    23085416.660
  22715066.494   -14212964.30449 -10796824.07746  22715065.727    22715076.965
  20586349.947   -27977811.24249 -21787993.23648  20586349.207    20586359.083
  21839850.376   -17895172.50949 -13666103.70947  21839850.037    21839861.748
  24392684.628    -3107736.15349  -2418973.59245  24392683.646    24392701.833
  20361539.930   -27619954.17849 -21259731.22948  20361539.050    20361548.752
  21955374.054   -20039472.12549 -13900477.92447  21955373.371    21955384.763
  22589594.404   -16039288.63449 -12478753.40646  22589594.229    22589605.386
  20374002.657   -24405300.97949 -18432317.99648  20374002.022    20374010.186
  23052684.308   -12654547.29249  -9315878.21346  23052683.779    23052696.709
 02  3  7  1 59 30.0000000  0 10G 6G23G17G29G22G15G21G26G18G 3
  23105285.922    -1150921.41249   -882729.73946  23105285.524    23105299.364
  22729012.209   -14139679.26349 -10739718.84846  22729011.433    22729022.678
  20587850.480   -27969925.76249 -21781848.66748  20587849.738    20587859.602
  21823679.184   -17980151.70749 -13732321.05547  21823678.862    21823690.551
  24404522.672    -3045527.66049  -2370499.56145  24404521.641    24404539.756
  20359467.350   -27630845.48149 -21268217.89948  20359466.475    20359476.159
  21946796.829   -20084545.21249 -13935599.70147  21946796.139    21946807.507
  22603585.463   -15965765.01749 -12421462.25646  22603585.264    22603596.423
  20375108.225   -24399491.02549 -18427790.71148  20375107.587    20375115.742
  23037409.629   -12734815.58049  -9378424.77546  23037409.114    23037421.948
 02  3  7  2  0  0.0000000  0 10G 6G23G17G29G22G15G21G26G18G 3
  23125207.466    -1046233.67149   -801155.01146  23125207.052    23125220.957
  22742971.444   -14066323.07249 -10682558.16846  22742970.659    22742981.880
  20589400.772   -27961778.76949 -21775500.32748  20589400.035    20589409.887
  21807571.429   -18064797.61049 -13798278.69447  21807571.103    21807582.768
  24416401.600    -2983103.90349  -2321857.79845  24416400.517    24416418.646
  20357446.297   -27641465.87249 -21276493.47048  20357445.424    20357455.099
  21938268.722   -20129360.22849 -13970520.38447  21938268.033    21938279.383
  22617669.449   -15891752.80849 -12363790.40746  22617669.264    22617680.465
  20376282.986   -24393317.26849 -18422979.94048  20376282.343    20376290.479
  23022201.011   -12814736.94749  -9440701.02246  23022200.452    23022213.237
 02  3  7  2  0 30.0000000  0 10G 6G23G17G29G22G15G21G26G18G 3
  23145167.525     -941343.43649   -719422.47346  23145167.094    23145181.121
  22756944.138   -13992896.38249 -10625342.55646  22756943.336    22756954.534
  20591001.155   -27953368.60649 -21768946.91548  20591000.407    20591010.227
  21791527.709   -18149107.09749 -13863974.19047  21791527.380    21791539.018
  24428321.067    -2920467.00149  -2273049.94645  24428319.916    24428338.241
  20355477.113   -27651813.92949 -21284556.84048  20355476.237    20355485.886
  21929789.819   -20173916.71749 -14005239.61947  21929789.153    21929800.443
  22631846.042   -15817253.97349 -12305739.35446  22631845.869    22631857.129
  20377526.957   -24386779.82849 -18417885.78248  20377526.332    20377534.457
  23007058.958   -12894308.13949  -9502704.40646  23007058.445    23007071.237
 02  3  7  2  1  0.0000000  0 10G 6G23G17G29G22G15G21G26G18G 3
  23165165.435     -836254.22349   -637534.88046  23165165.010    23165179.076
  22770929.759   -13919401.57849 -10568073.86946  22770928.944    22770940.109
  20592651.611   -27944695.29649 -21762188.44248  20592650.874    20592660.665
  21775548.334   -18233078.52049 -13929406.26947  21775548.003    21775559.599
  24440280.353    -2857620.97249  -2224079.14445  24440279.257    24440297.521
  20353559.716   -27661889.64349 -21292407.99548  20353558.835    20353568.491
  21921359.801   -20218216.33149 -14039758.68747  21921359.129    21921370.381
  22646114.607   -15742272.07249 -12247311.88646  22646114.421    22646125.667
  20378839.679   -24379881.31849 -18412510.26948  20378839.053    20378847.167
  22991983.814   -12973527.88849  -9564433.94746  22991983.312    22991996.035
 02  3  7  2  1 30.0000000  0 10G 6G23G17G29G22G15G21G26G18G 3
  23185200.856     -730967.64349   -555493.51046  23185200.440    23185214.511
  22784928.108   -13845839.58549 -10510752.84246  22784927.323    22784938.476
  20594352.373   -27935757.68549 -21755224.02548  20594351.637    20594361.398
  21759633.845   -18316708.92149 -13994572.61947  21759633.499    21759645.056
  24452279.069    -2794567.87249  -2174946.98445  24452277.980    24452296.248
  20351694.401   -27671691.55049 -21300045.79448  20351693.526    20351703.184
  21912978.789   -20262258.69249 -14074077.30247  21912978.111    21912989.295
  22660474.702   -15666809.23649 -12188509.66846  22660474.520    22660485.746
  20380221.029   -24372622.12249 -18406853.71148  20380220.387    20380228.497
  22976976.108   -13052393.28449  -9625887.36046  22976975.591    22976988.325
 02  3  7  2  2  0.0000000  0 10G 6G23G17G29G22G15G21G26G18G 3
  23205273.414     -625486.21049   -473300.32146  23205272.994    23205287.104
  22798939.005   -13772211.70049 -10453380.46146  22798938.194    22798949.378
  20596103.653   -27926554.64249 -21748052.78948  20596102.915    20596112.656
  21743784.799   -18399995.72249 -14059471.22947  21743784.441    21743795.913
  24464316.655    -2731310.67549  -2125655.80645  24464315.526    24464333.853
  20349881.372   -27681218.86649 -21307469.62248  20349880.511    20349890.164
  21904646.663   -20306043.99849 -14108195.60547  21904645.969    21904657.120
  22674925.835   -15590868.17049 -12129334.79946  22674925.616    22674936.872
  20381670.763   -24365003.35449 -18400916.97348  20381670.123    20381678.217
  22962036.375   -13130901.69749  -9687062.60946  22962035.833    22962048.502
 02  3  7  2  2 30.0000000  0 10G 6G23G17G29G22G15G21G26G18G 3
  23225382.398     -519813.15949   -390957.81946  23225381.972    23225396.156
  22812962.038   -13698520.07649 -10395958.41046  22812961.235    22812972.427
  20597905.452   -27917086.00649 -21740674.59248  20597904.707    20597914.431
  21728001.398   -18482937.25149 -14124100.80447  21728001.038    21728012.454
  24476392.378    -2667852.94349  -2076208.35345  24476391.157    24476409.676
  20348120.670   -27690471.21349 -21314679.20448  20348119.790    20348129.453
  21896363.166   -20349573.64749 -14142114.69547  21896362.484    21896373.620
  22689467.321   -15514452.16449 -12069789.83446  22689467.129    22689478.326
  20383188.599   -24357027.11649 -18394701.68748  20383187.953    20383196.024
  22947164.912   -13209051.30149  -9747958.26146  22947164.349    22947176.982
 02  3  7  2  3  0.0000000  0 10G 6G23G17G29G22G15G21G26G18G 3
  23245527.563     -413949.90449   -308467.11646  23245527.136    23245541.450
  22826997.132   -13624765.13749 -10338487.01646  22826996.349    22827007.517
  20599758.116   -27907349.96849 -21733088.02348  20599757.375    20599767.090
  21712284.335   -18565529.92049 -14188458.53647  21712283.999    21712295.353
  24488505.877    -2604196.45349  -2026606.02745  24488504.710    24488523.231
  20346412.627   -27699446.81049 -21321673.13148  20346411.742    20346421.401
  21888128.501   -20392846.82449 -14175833.93347  21888127.805    21888138.903
  22704098.838   -15437562.87949 -12009876.09646  22704098.650    22704109.804
  20384774.393   -24348693.52849 -18388207.95248  20384773.745    20384781.795
  22932362.332   -13286838.81749  -9808571.76246  22932361.777    22932374.332
 02  3  7  2  3 30.0000000  0 10G 6G23G17G29G22G15G21G26G18G 3
  23265708.377     -307899.50049   -225830.57746  23265707.935    23265722.283
  22841043.980   -13550948.70049 -10280967.70346  22841043.185    22841054.343
  20601661.706   -27897346.33049 -21725292.94248  20601660.957    20601670.678
  21696634.069   -18647772.01749 -14252543.09647  21696633.723    21696645.019
  24500656.607    -2540344.82649  -1976851.64745  24500655.449    24500673.933
  20344757.300   -27708145.31849 -21328451.13948  20344756.418    20344766.044
  21879942.490   -20435864.23849 -14209353.86947  21879941.802    21879952.862
  22718819.702   -15360203.72449 -11949596.21546  22718819.549    22718830.700
  20386427.880   -24340004.34349 -18381437.13148  20386427.230    20386435.266
  22917629.001   -13364262.49249  -9868901.75346  22917628.436    22917640.916
 02  3  7  2  4  0.0000000  0 10G 6G23G17G29G22G15G21G26G18G 3
  23285924.422     -201663.95249   -143049.76446  23285923.990    23285938.379
  22855102.286   -13477071.95849 -10223401.40046  22855101.473    22855112.623
  20603616.446   -27887073.78549 -21717288.32548  20603615.704    20603625.433
  21681050.988   -18729660.69449 -14316352.27147  21681050.651    21681061.896
  24512843.916    -2476300.55149  -1926947.15445  24512842.822    24512861.299
  20343154.947   -27716565.65949 -21335012.39048  20343154.068    20343163.657
  21871805.110   -20478626.02149 -14242674.61247  21871804.425    21871815.463
  22733629.624   -15282377.13049 -11888952.10146  22733629.456    22733640.610
  20388148.833   -24330960.66149 -18374390.08548  20388148.179    20388156.191
  22902965.385   -13441319.71249  -9928946.18546  22902964.858    22902977.232
 02  3  7  2  4 30.0000000  0 10G 6G23G17G29G22G15G21G26G18G 3
  23306175.088      -95246.35549    -60127.08246  23306174.671    23306189.118
  22869171.688   -13403136.87949 -10165789.64646  22869170.862    22869181.996
  20605622.412   -27876532.24049 -21709074.11248  20605621.675    20605631.414
  21665535.539   -18811194.08449 -14379884.60047  21665535.212    21665546.386
  24525067.248    -2412067.05649  -1876895.20545  24525066.160    24525084.597
  20341605.627   -27724707.29149 -21341356.46748  20341604.750    20341614.304
  21863716.211   -20521133.17849 -14275796.94647  21863715.515    21863726.493
  22748527.804   -15204086.49049 -11827946.38946  22748527.682    22748538.790
  20389936.926   -24321564.11349 -18367068.07848  20389936.281    20389944.260
  22888371.873   -13518008.64449  -9988703.62746  22888371.351    22888383.615
 02  3  7  2  5  0.0000000  0 11G 6G23G17G29G22G15G21G26G14G18G 3
  23326460.057       11351.30349     22935.90346  23326459.608    23326474.135
  22883251.989   -13329144.44549 -10108133.19946  22883251.175    22883262.265
  20607679.806   -27865720.38149 -21700649.26748  20607679.071    20607688.806
  21650088.170   -18892369.71049 -14443138.15047  21650087.846    21650098.956
  24537326.057    -2347646.97749  -1826697.87545  24537324.993    24537343.372
  20340109.509   -27732569.39749 -21347482.73548  20340108.616    20340118.156
  21855675.689   -20563385.85049 -14308720.97447  21855674.991    21855685.938
  22763513.924   -15125333.99849 -11766580.78346  22763513.797    22763524.905
  24667478.716    -3492118.62749  -2410066.08745  24667477.861    24667498.317
  20391791.983   -24311815.67249 -18359471.86548  20391791.327    20391799.291
  22873848.937   -13594326.59549 -10048171.98546  22873848.415    22873860.632
 02  3  7  2  5 30.0000000  0 11G 6G23G17G29G22G15G21G26G14G18G 3
  23346777.764      118121.27249    106133.14245  23346777.312    23346791.858
  22897341.943   -13255101.18149 -10050437.14046  22897341.121    22897352.218
  20609787.848   -27854642.38649 -21692017.03248  20609787.101    20609796.828
  21634708.485   -18973189.83049 -14506114.68247  21634708.144    21634719.199
  24549618.882    -2283048.36749  -1776361.43245  24549617.763    24549636.223
  20338665.800   -27740155.85749 -21353394.21848  20338664.925    20338674.436
  21847682.517   -20605389.67749 -14341451.10047  21847681.835    21847692.718
  22778586.357   -15046127.60149 -11704861.49446  22778586.223    22778597.373
  24645705.897    -3606533.15449  -2499219.70245  24645705.234    24645725.451
  20393712.790   -24301721.71949 -18351606.41748  20393712.127    20393720.087
  22859396.099   -13670275.91649 -10107353.09946  22859395.560    22859407.745
 02  3  7  2  6  0.0000000  0 11G 6G23G17G29G22G15G21G26G14G18G 3
  23367129.329      225068.94949    189468.86045  23367128.933    23367143.446
  22911442.799   -13181000.53249  -9992696.37246  22911441.999    22911453.113
  20611948.195   -27843289.58149 -21683170.65348  20611947.456    20611957.169
  21619398.319   -19053644.53349 -14568806.47447  21619397.992    21619408.990
  24561946.603    -2218266.25049  -1725881.99145  24561945.519    24561963.974
  20337276.196   -27747458.19149 -21359084.29648  20337275.317    20337284.831
  21839738.099   -20647137.38349 -14373981.65347  21839737.415    21839748.243
  22793746.104   -14966462.24449 -11642784.56346  22793746.048    22793757.152
  24623936.297    -3720930.81549  -2588360.17645  24623935.625    24623955.674
  20395700.593   -24291275.67649 -18343466.61248  20395699.931    20395707.890
  22845015.306   -13745846.82949 -10166239.33846  22845014.805    22845026.922
 02  3  7  2  6 30.0000000  0 11G 6G23G17G29G22G15G21G26G14G18G 3
  23387514.201      332191.37949    272940.75446  23387513.791    23387528.311
  22925554.235   -13106844.43349  -9934912.39146  22925553.440    22925564.539
  20614160.896   -27831661.82349 -21674110.03548  20614160.154    20614169.832
  21604158.113   -19133731.78449 -14631211.94947  21604157.783    21604168.707
  24574308.598    -2153304.04749  -1675262.24445  24574307.501    24574326.004
  20335940.746   -27754475.87949 -21364552.55648  20335939.862    20335949.370
  21831842.314   -20688629.45949 -14406313.01147  21831841.631    21831852.425
  22808992.596   -14886341.31249 -11580352.65146  22808992.562    22809003.627
  24602170.235    -3835309.84349  -2677486.14745  24602169.524    24602189.644
  20397755.036   -24280479.40449 -18335053.89648  20397754.369    20397762.313
  22830706.887   -13821037.47549 -10224829.27046  22830706.381    22830718.432
 02  3  7  2  7  0.0000000  0 11G 6G23G17G29G22G15G21G26G14G18G 3
  23407931.547      439484.77949    356545.87146  23407931.136    23407945.744
  22939675.691   -13032635.44249  -9877087.20846  22939674.893    22939686.025
  20616425.867   -27819759.27849 -21664835.29248  20616425.126    20616434.762
  21588988.006   -19213450.63449 -14693330.35847  21588987.655    21588998.527
  24586704.134    -2088165.84849  -1624505.35645  24586702.960    24586721.554
  20334659.389   -27761209.18449 -21369799.22348  20334658.509    20334667.995
  21823994.797   -20729867.90949 -14438446.74647  21823994.123    21824004.869
  22824325.071   -14805768.72449 -11517568.78746  22824325.009    22824336.013
  24580407.940    -3949668.94149  -2766596.59445  24580407.299    24580427.421
  20399875.662   -24269335.35349 -18326370.19048  20399875.001    20399882.952
  22816471.034   -13895846.87749 -10283122.12746  22816470.516    22816482.502
 02  3  7  2  7 30.0000000  0 11G 6G23G17G29G22G15G21G26G14G18G 3
  23428380.852      546946.26349    440281.95946  23428380.459    23428395.109
  22953806.888   -12958375.33049  -9819222.19046  22953806.091    22953817.260
  20618743.211   -27807581.56549 -21655346.12248  20618742.462    20618752.072
  21573888.378   -19292799.11349 -14755160.16247  21573888.039    21573898.869
  24599132.514    -2022854.84349  -1573613.83545  24599131.266    24599150.020
  20333432.233   -27767657.69449 -21374823.98848  20333431.348    20333440.812
  21816195.425   -20770853.44349 -14470383.40047  21816194.753    21816205.448
  22839742.878   -14724747.73649 -11454435.53646  22839742.795    22839753.804
  24558649.896    -4064005.84349  -2855689.77745  24558649.242    24558669.255
  20402062.129   -24257845.03949 -18317416.66848  20402061.477    20402069.440
  22802308.155   -13970272.75149 -10341116.12646  22802307.621    22802319.538
 02  3  7  2  8  0.0000000  0 11G 6G23G17G29G22G15G21G26G14G18G 3
  23448861.559      654572.97749    524146.80145  23448861.171    23448875.873
  22967947.497   -12884065.83349  -9761318.69446  22967946.712    22967957.902
  20621112.930   -27795128.43549 -21645642.34048  20621112.191    20621121.782
  21558859.596   -19371775.21749 -14816699.80847  21558859.233    21558870.047
  24611592.962    -1957374.64949  -1522590.47345  24611591.810    24611610.618
  20332259.385   -27773820.93549 -21379626.46248  20332258.500    20332267.952
  21808443.997   -20811587.00149 -14502123.70947  21808443.319    21808453.947
  22855245.282   -14643281.75549 -11390955.53846  22855245.174    22855256.265
  24536896.449    -4178318.70249  -2944764.24245  24536895.721    24536915.527
  20404314.164   -24246010.38649 -18308194.82248  20404313.518    20404321.502
  22788218.567   -14044313.32249 -10398809.88846  22788218.025    22788229.917
 02  3  7  2  8 30.0000000  0 11G 6G23G17G29G22G15G21G26G14G18G 3
  23469373.509      762363.81749    608139.52745  23469373.121    23469387.882
  22982097.502   -12809706.70949  -9703376.50746  22982096.735    22982107.972
  20623535.520   -27782397.41049 -21635722.01948  20623534.784    20623544.362
  21543902.345   -19450375.29849 -14877946.45647  21543901.987    21543912.750
  24624085.500    -1891726.68249  -1471436.37445  24624084.311    24624103.081
  20331141.196   -27779696.74349 -21384204.95848  20331140.315    20331149.752
  21800740.641   -20852067.86749 -14533667.11947  21800739.962    21800750.564
  22870832.158   -14561372.08749 -11327129.79846  22870832.033    22870843.141
  24515148.378    -4292603.39949  -3033816.81245  24515147.588    24515167.246
  20406631.663   -24233831.51849 -18298704.75048  20406631.023    20406638.996
  22774202.979   -14117965.01049 -10456200.62546  22774202.458    22774214.347
 02  3  7  2  9  0.0000000  0 11G 6G23G17G29G22G15G21G26G14G18G 3
  23489915.967      870314.58949    692256.86545  23489915.559    23489930.343
  22996256.457   -12735300.99449  -9645398.02046  22996255.713    22996266.879
  20626010.792   -27769389.56249 -21625585.99148  20626010.060    20626019.636
  21529016.798   -19528598.67149 -14938899.56547  21529016.452    21529027.172
  24636609.105    -1825915.51649  -1420155.09745  24636607.991    24636626.665
  20330077.563   -27785285.98549 -21388560.16148  20330076.681    20330086.121
  21793085.051   -20892297.79249 -14565014.99447  21793084.372    21793094.952
  22886502.682   -14479023.23349 -11262961.85146  22886502.564    22886513.595
  24493405.788    -4406859.28949  -3122846.95545  24493404.999    24493424.458
  20409014.192   -24221311.17549 -18288948.59448  20409013.554    20409021.509
  22760261.520   -14191227.12349 -10513287.80046  22760260.990    22760272.915
 02  3  7  2  9 30.0000000  0 11G 6G23G17G29G22G15G21G26G14G18G 3
  23510488.562      978423.58749    776497.48745  23510488.188    23510503.028
  23010424.164   -12660849.30749  -9587383.71046  23010423.405    23010434.542
  20628539.080   -27756103.27649 -21615233.00148  20628538.340    20628547.906
  21514203.493   -19606442.43349 -14999556.87947  21514203.147    21514213.816
  24649163.277    -1759943.47649  -1368748.47445  24649162.021    24649180.901
  20329068.741   -27790587.00949 -21392690.76548  20329067.869    20329077.318
  21785477.164   -20932277.22949 -14596167.68947  21785476.469    21785487.016
  22902256.315   -14396237.49449 -11198453.46546  22902256.178    22902267.181
  24471669.413    -4521083.00049  -3211852.06245  24471668.597    24471687.866
  20411461.579   -24208449.95949 -18278926.82748  20411460.930    20411468.869
  22746394.751   -14264096.64449 -10570069.07246  22746394.229    22746406.128
 02  3  7  2 10  0.0000000  0 11G 6G23G17G29G22G15G21G26G14G18G 3
  23531090.781     1086688.43049    860859.54745  23531090.415    23531105.291
  23024600.349   -12586352.95149  -9529334.60046  23024599.592    23024610.760
  20631120.493   -27742537.54949 -21604662.26148  20631119.743    20631129.312
  21499462.875   -19683904.21349 -15059916.54247  21499462.512    21499473.141
  24661747.398    -1693813.16349  -1317218.51945  24661746.259    24661765.387
  20328114.965   -27795598.86949 -21396596.05648  20328114.089    20328123.550
  21777916.882   -20972006.29849 -14627125.28847  21777916.192    21777926.699
  22918092.557   -14313017.51249 -11133606.71246  22918092.365    22918103.360
  24449939.633    -4635271.99149  -3300830.12145  24449938.770    24449958.037
  20413973.550   -24195249.15749 -18268640.44948  20413972.911    20413980.842
  22732603.148   -14336571.16749 -10626542.54346  22732602.607    22732614.531
 02  3  7  2 10 30.0000000  0 11G 6G23G17G29G22G15G21G26G14G18G 3
  23551722.024     1195105.90949    945340.55145  23551721.702    23551736.551
  23038784.606   -12511813.92349  -9471252.23846  23038783.862    23038795.048
  20633755.123   -27728692.24649 -21593873.67548  20633754.369    20633763.950
  21484795.239   -19760982.36249 -15119977.27747  21484794.896    21484805.477
  24674360.965    -1627528.28649  -1265568.11145  24674359.976    24674379.068
  20327216.268   -27800321.26349 -21400275.80148  20327215.382    20327224.847
  21770404.045   -21011486.06249 -14657888.62947  21770403.354    21770413.858
  22934010.771   -14229366.71549 -11068424.26346  22934010.595    22934021.566
  24428216.908    -4749424.32549  -3389779.63345  24428216.068    24428235.225
  20416549.822   -24181710.65949 -18258090.92748  20416549.187    20416557.108
  22718887.003   -14408649.18749 -10682707.04746  22718886.493    22718898.390
 02  3  7  2 11  0.0000000  0 11G 6G23G17G29G22G15G21G26G14G18G 3
  23572382.035     1303674.46149   1029939.24845  23572381.710    23572396.615
  23052977.015   -12437232.50749  -9413136.83846  23052976.227    23052987.415
  20636443.268   -27714565.70349 -21582865.94148  20636442.528    20636452.110
  21470201.263   -19837673.65349 -15179736.56447  21470200.919    21470211.443
  24687003.720    -1561090.96749  -1213798.90745  24687002.703    24687021.822
  20326372.966   -27804752.51049 -21403728.66848  20326372.095    20326381.542
  21762938.746   -21050716.14049 -14688457.41247  21762938.052    21762948.530
  22950010.562   -14145287.32049 -11002907.84146  22950010.408    22950021.345
  24406501.771    -4863536.75449  -3478698.05545  24406501.011    24406519.898
  20419190.239   -24167834.97549 -18247278.66548  20419189.599    20419197.516
  22705246.967   -14480327.39249 -10738560.01746  22705246.445    22705258.330
 02  3  7  2 11 30.0000000  0 11G 6G23G17G29G22G15G21G26G14G18G 3
  23593070.275     1412391.02449   1114653.28245  23593069.927    23593084.938
  23067177.117   -12362610.38449  -9354989.72646  23067176.337    23067187.549
  20639185.002   -27700157.47649 -21571638.71948  20639184.260    20639193.846
  21455681.213   -19913976.35949 -15239193.06047  21455680.872    21455691.361
  24699674.879    -1494504.24349  -1161913.27945  24699673.861    24699692.876
  20325585.204   -27808892.00349 -21406954.18448  20325584.321    20325593.753
  21755520.865   -21089697.03049 -14718832.02147  21755520.167    21755530.619
  22966091.294   -14060782.48349 -10937059.91546  22966091.126    22966102.079
  24384794.626    -4977606.96949  -3567583.56945  24384794.029    24384812.747
  20421894.526   -24153623.69949 -18236204.90648  20421893.887    20421901.785
  22691683.361   -14551603.81049 -10794099.91446  22691682.845    22691694.679
 02  3  7  2 12  0.0000000  0 11G 6G23G17G29G22G15G21G26G14G18G 3
  23613786.136     1521252.71149   1199480.40146  23613785.766    23613800.771
  23081384.606   -12287949.30449  -9296812.26246  23081383.830    23081395.068
  20641980.445   -27685467.13249 -21560191.65548  20641979.715    20641989.315
  21441235.528   -19989888.47949 -15298345.20147  21441235.182    21441245.633
  24712373.785    -1427771.61049  -1109913.95745  24712372.750    24712391.951
  20324853.029   -27812739.49649 -21409952.17948  20324852.148    20324861.545
  21748150.087   -21128430.23949 -14749013.63547  21748149.400    21748159.816
  22982252.353   -13975855.45049 -10870883.01246  22982252.208    22982263.111
  24363096.029    -5091632.61649  -3656434.35345  24363095.341    24363114.037
  20424662.354   -24139078.58949 -18224871.01848  20424661.711    20424669.594
  22678196.513   -14622476.88049 -10849325.50846  22678195.982    22678207.768
 02  3  7  2 12 30.0000000  0 11G 6G23G17G29G22G15G21G26G14G18G 3
  23634529.419     1630258.38349   1284419.74546  23634529.006    23634544.102
  23095599.553   -12213249.15449  -9238604.34046  23095598.789    23095610.037
  20644829.999   -27670492.47649 -21548523.04648  20644829.262    20644838.849
  21426864.792   -20065406.52249 -15357190.26847  21426864.451    21426874.890
  24725100.052    -1360894.74149  -1057802.25845  24725099.049    24725118.398
  20324176.842   -27816292.76849 -21412720.91348  20324175.966    20324185.359
  21740826.619   -21166914.77849 -14779001.47947  21740825.930    21740836.322
  22998493.426   -13890507.97649 -10804378.46946  22998493.294    22998504.164
  24341406.522    -5205610.11149  -3745247.59745  24341405.886    24341424.542
  20427493.654   -24124199.76349 -18213277.09148  20427493.011    20427500.899
  22664787.075   -14692943.04049 -10904234.03646  22664786.566    22664798.371
 02  3  7  2 13  0.0000000  0 11G 6G23G17G29G22G15G21G26G14G18G 3
  23655299.286     1739404.05249   1369468.17545  23655298.857    23655313.906
  23109821.409   -12138512.39549  -9180367.91346  23109820.654    23109831.949
  20647733.523   -27655234.24849 -21536633.48948  20647732.782    20647742.349
  21412569.165   -20140529.78449 -15415727.72047  21412568.827    21412579.234
  24737853.069    -1293877.89949  -1005581.48545  24737852.121    24737871.417
  20323556.593   -27819552.09949 -21415260.61348  20323555.715    20323565.084
  21733550.157   -21205152.47649 -14808796.98547  21733549.457    21733559.822
  23014813.732   -13804744.34749 -10737549.66346  23014813.536    23014824.408
  24319726.465    -5319538.26349  -3834022.37245  24319725.775    24319744.326
  20430387.972   -24108989.84349 -18201425.17448  20430387.337    20430395.237
  22651455.300   -14763001.13949 -10958824.60146  22651454.785    22651466.582
 02  3  7  2 13 30.0000000  0 11G 6G23G17G29G22G15G21G26G14G18G 3
  23676095.590     1848688.51249   1454624.74845  23676095.140    23676110.170
  23124050.247   -12063739.23849  -9122103.10646  23124049.494    23124060.791
  20650691.424   -27639690.34149 -21524521.32848  20650690.684    20650700.204
  21398349.325   -20215254.93649 -15473954.95347  21398348.972    21398359.344
  24750632.492    -1226722.80349   -953252.96845  24750631.474    24750650.727
  20322992.621   -27822515.50349 -21417569.71348  20322991.746    20323001.109
  21726320.732   -21243142.70149 -14838399.65147  21726320.042    21726330.395
  23031212.778   -13718566.23649 -10670397.89046  23031212.614    23031223.596
  24298056.494    -5433413.44949  -3922755.86945  24298055.757    24298074.320
  20433345.254   -24093449.11449 -18189315.47948  20433344.620    20433352.509
  22638201.782   -14832647.99249 -11013094.71046  22638201.240    22638213.032
 02  3  7  2 14  0.0000000  0 11G 6G23G17G29G22G15G21G26G14G18G 3
  23696917.726     1958108.85249   1539887.21745  23696917.305    23696932.349
  23138285.718   -11988931.45449  -9063811.31446  23138284.949    23138296.245
  20653703.758   -27623860.37449 -21512186.25048  20653703.019    20653712.509
  21384205.602   -20289579.96649 -15531870.40047  21384205.253    21384215.580
  24763437.446    -1159432.92449   -900819.43945  24763436.379    24763455.690
  20322485.026   -27825182.66649 -21419647.96748  20322484.147    20322493.520
  21719138.257   -21280886.19449 -14867810.06447  21719137.574    21719147.925
  23047690.117   -13631977.03049 -10602925.78546  23047689.946    23047700.988
  24276397.008    -5547233.50149  -4011446.37745  24276396.281    24276414.659
  20436365.128   -24077579.43749 -18176949.47048  20436364.479    20436372.375
  22625026.878   -14901881.92949 -11067043.07746  22625026.331    22625038.085
 02  3  7  2 14 30.0000000  0 11G 6G23G17G29G22G15G21G26G14G18G 3
  23717765.138     2067662.24249   1625253.35945  23717764.663    23717779.735
  23152527.530   -11914090.41649  -9005493.61246  23152526.740    23152538.033
  20656770.626   -27607743.81949 -21499627.86448  20656769.896    20656779.353
  21370138.380   -20363503.32049 -15589472.86247  21370138.022    21370148.302
  24776267.390    -1092011.46849   -848283.39745  24776266.368    24776285.724
  20322033.895   -27827553.27349 -21421495.15348  20322033.009    20322042.356
  21712002.573   -21318383.93149 -14897028.97747  21712001.894    21712012.228
  23064245.047   -13544980.06449 -10535135.94346  23064244.895    23064255.918
  24254748.425    -5660996.18549  -4100092.18045  24254747.728    24254765.851
  20439447.288   -24061382.53249 -18164328.47648  20439446.646    20439454.532
  22611930.945   -14970700.97849 -11120668.16246  22611930.377    22611942.083
 02  3  7  2 15  0.0000000  0 11G 6G23G17G29G22G15G21G26G14G18G 3
  23738637.392     2177346.56349   1710721.52745  23738637.013    23738651.963
  23166775.468   -11839216.82649  -8947150.54746  23166774.656    23166785.974
  20659892.229   -27591339.48449 -21486845.23448  20659891.505    20659900.923
  21356148.109   -20437022.13249 -15646760.09547  21356147.747    21356157.940
  24789121.847    -1024460.82149   -795646.69445  24789120.859    24789140.221
  20321639.512   -27829625.76049 -21423110.03748  20321638.612    20321647.946
  21704913.607   -21355636.43049 -14926056.79947  21704912.912    21704923.205
  23080877.107   -13457577.74249 -10467030.23946  23080876.961    23080888.006
  24233111.281    -5774698.60249  -4188691.00145  24233110.577    24233128.610
  20442591.566   -24044859.04949 -18151453.00348  20442590.919    20442598.780
  22598914.496   -15039102.28549 -11173967.73746  22598913.938    22598925.531
 02  3  7  2 15 30.0000000  0 10G 6G23G17G29G15G21G26G14G18G 3
  23759534.245     2287159.72749   1796290.09645  23759533.877    23759548.911
  23181029.470   -11764311.57549  -8888782.82146  23181028.667    23181039.959
  20663068.824   -27574646.13749 -21473837.41548  20663068.086    20663077.507
  21342235.291   -20510133.95449 -15703730.19847  21342234.928    21342245.064
  20321302.075   -27831398.75349 -21424491.54748  20321301.176    20321310.508
  21697871.371   -21392643.34449 -14954893.25647  21697870.667    21697880.935
  23097585.841   -13369772.56649 -10398610.61946  23097585.714    23097596.792
  24211486.143    -5888337.60149  -4277240.40145  24211485.458    24211503.366
  20445797.797   -24028010.15349 -18138323.96448  20445797.139    20445804.987
  22585977.961   -15107083.45449 -11226939.94346  22585977.424    22585988.933
 02  3  7  2 16  0.0000000  0 10G 6G23G17G29G15G21G26G14G18G 3
  23780456.330     2397105.67149   1881962.11645  23780455.973    23780471.037
  23195290.474   -11689369.34349  -8830386.27546  23195289.755    23195300.987
  20666301.887   -27557656.19349 -21460598.46148  20666301.158    20666310.567
  21328401.641   -20582830.11049 -15760376.40247  21328401.275    21328411.330
  20321023.039   -27832864.81349 -21425633.88048  20321022.149    20321031.471
  21690876.950   -21429398.86249 -14983533.82047  21690876.239    21690886.474
  23114371.968   -13281561.03349 -10329874.34846  23114371.824    23114382.909
  24189874.765    -6001904.23849  -4365733.39345  24189874.139    24189891.882
  20449066.984   -24010830.25249 -18124936.99748  20449066.346    20449074.171
  22573123.077   -15174635.61749 -11279577.85446  22573122.563    22573134.000
 02  3  7  2 16 30.0000000  0 10G 6G23G17G29G15G21G26G14G18G 3
  23801401.305     2507171.58549   1967727.61045  23801400.922    23801416.085
  23209556.382   -11614401.73249  -8771969.94846  23209555.669    23209566.872
  20669589.512   -27540379.51549 -21447136.08048  20669588.772    20669598.160
  21314645.422   -20655118.77449 -15816705.08247  21314645.059    21314655.058
  20320800.572   -27834033.70149 -21426544.63748  20320799.673    20320808.992
  21683928.159   -21465914.42949 -15011987.40847  21683927.459    21683937.676
  23131232.859   -13192956.57749 -10260831.92046  23131232.701    23131243.802
  24168275.653    -6115406.34349  -4454176.09145  24168275.012    24168292.767
  20452396.927   -23993331.23449 -18111301.36648  20452396.281    20452404.099
  22560348.261   -15241767.22449 -11331888.06046  22560347.746    22560359.169
 02  3  7  2 17  0.0000000  0 10G 6G23G17G29G15G21G26G14G18G 3
  23822369.058     2617357.24549   2053586.39845  23822368.747    23822383.914
  23223827.343   -11539407.51849  -8713532.89346  23223826.610    23223837.781
  20672932.311   -27522812.84649 -21433447.74148  20672931.577    20672940.961
  21300967.585   -20726995.64749 -15872712.88647  21300967.237    21300977.187
  20320635.299   -27834902.10849 -21427221.27348  20320634.408    20320643.720
  21677025.606   -21502187.14449 -15040251.77147  21677024.908    21677035.134
  23148168.371   -13103959.63949 -10191483.64646  23148168.247    23148179.338
  24146689.804    -6228838.81249  -4542564.51545  24146689.125    24146706.758
  20455787.746   -23975512.17149 -18097416.34848  20455787.093    20455794.923
  22547654.336   -15308473.68649 -11383866.99546  22547653.814    22547665.203
 02  3  7  2 17 30.0000000  0 10G 6G23G17G29G15G21G26G14G18G 3
  23843359.108     2727660.00949   2139536.44545  23843358.786    23843374.036
  23238103.125   -11464387.69249  -8655075.87546  23238102.357    23238113.542
  20676330.468   -27504955.27049 -21419532.71548  20676329.735    20676339.131
  21287368.531   -20798458.40049 -15928397.99947  21287368.182    21287378.116
  20320527.348   -27835469.11649 -21427663.05448  20320526.462    20320535.750
  21670169.132   -21538217.69249 -15068327.42547  21670168.445    21670178.655
  23165178.100   -13014573.04449 -10121831.74146  23165177.961    23165189.113
  24125117.634    -6342199.21349  -4630896.75945  24125116.960    24125134.482
  20459239.204   -23957374.44949 -18083283.02648  20459238.544    20459246.354
  22535041.714   -15374752.82949 -11435512.96946  22535041.216    22535052.567
 02  3  7  2 18  0.0000000  0 10G 6G23G17G29G15G21G26G14G18G 3
  23864371.031     2838077.70349   2225576.04445  23864370.709    23864385.865
  23252383.541   -11389343.34949  -8596599.75246  23252382.790    23252393.957
  20679784.181   -27486805.82449 -21405390.25748  20679783.454    20679792.844
  21273848.739   -20869504.92449 -15983758.78147  21273848.391    21273858.269
  20320476.972   -27835733.69449 -21427869.17248  20320476.087    20320485.339
  21663358.641   -21574006.95249 -15096215.06347  21663357.930    21663368.106
  23182261.423   -12924799.69949 -10051878.48446  23182261.274    23182272.386
  24103559.683    -6455484.87049  -4719170.75645  24103558.884    24103576.391
  20462751.100   -23938919.16149 -18068902.25048  20462750.443    20462758.247
  22522510.919   -15440602.19449 -11486824.04846  22522510.421    22522521.752
 02  3  7  2 18 30.0000000  0 10G 6G23G17G29G15G21G26G14G18G 3
  23885404.285     2948607.47349   2311702.97045  23885403.829    23885419.187
  23266668.429   -11314275.78549  -8538105.54546  23266667.651    23266678.871
  20683293.461   -27468364.12149 -21391020.06848  20683292.744    20683302.154
  21260408.439   -20940133.43749 -16038793.84147  21260408.096    21260417.958
  20320484.264   -27835695.29849 -21427839.22348  20320483.372    20320492.581
  21656593.857   -21609555.60549 -15123915.21647  21656593.153    21656603.306
  23199417.678   -12834642.88949  -9981626.42346  23199417.538    23199428.666
  24082016.402    -6568693.48549  -4807384.72345  24082015.718    24082032.881
  20466323.110   -23920147.96449 -18054275.31348  20466322.460    20466330.265
  22510062.251   -15506020.10549 -11537798.94146  22510061.758    22510073.024
 02  3  7  2 19  0.0000000  0 10G 6G23G17G29G15G21G26G14G18G 3
  23906458.732     3059248.53749   2397916.59645  23906458.303    23906473.660
  23280957.818   -11239184.49549  -8479592.83946  23280957.039    23280968.300
  20686858.915   -27449627.48849 -21376420.06448  20686858.186    20686867.594
  21247048.369   -21010340.19149 -16093500.25947  21247048.045    21247057.903
  20320549.686   -27835351.49249 -21427571.28648  20320548.797    20320557.970
  21649875.059   -21644862.79749 -15151427.22247  21649874.344    21649884.498
  23216646.654   -12744103.99849  -9911076.64346  23216646.510    23216657.625
  24060488.551    -6681820.88549  -4895535.38945  24060487.812    24060504.984
  20469955.269   -23901060.61949 -18039402.02048  20469954.615    20469962.423
  22497696.413   -15571002.72149 -11588434.64747  22497695.869    22497707.130
 02  3  7  2 19 30.0000000  0 10G 6G23G17G29G15G21G26G14G18G 3
  23927533.963     3169998.58949   2484215.16345  23927533.553    23927548.838
  23295251.494   -11164070.54949  -8421062.48446  23295250.694    23295261.936
  20690480.604   -27430595.23049 -21361589.70048  20690479.859    20690489.311
  21233769.040   -21080122.92049 -16147876.27147  21233768.698    21233778.559
  20320673.404   -27834701.19749 -21427064.52348  20320672.511    20320681.669
  21643202.177   -21679928.65149 -15178751.17447  21643201.464    21643211.594
  23233947.835   -12653185.72749  -9840231.22946  23233947.702    23233958.754
  24038976.725    -6794864.35549  -4983620.69745  24038976.014    24038993.064
  20473647.402   -23881658.23049 -18024283.22948  20473646.759    20473654.546
  22485413.820   -15635547.54949 -11638729.21647  22485413.303    22485424.556
 02  3  7  2 20  0.0000000  0 10G 6G23G17G29G15G21G26G14G18G 3
  23948629.377     3280854.83849   2570596.46945  23948628.879    23948644.191
  23309549.280   -11088935.32549  -8362515.54046  23309548.505    23309559.744
  20694158.633   -27411266.62549 -21346528.41748  20694157.903    20694167.393
  21220570.760   -21149479.85649 -16201920.49747  21220570.415    21220580.257
  20320855.542   -27833743.74749 -21426318.40348  20320854.655    20320863.822
  21636575.033   -21714754.07149 -15205887.77247  21636574.331    21636584.479
  23251320.534   -12561891.44149  -9769092.81746  23251320.406    23251331.510
  24017481.328    -6907821.50849  -5071638.72845  24017480.665    24017497.577
  20477399.144   -23861942.63849 -18008920.38548  20477398.492    20477406.255
  22473214.896   -15699652.67149 -11688681.15646  22473214.408    22473225.649
 02  3  7  2 20 30.0000000  0 10G 6G23G17G29G15G21G26G14G18G 3
  23969744.511     3391814.84549   2657058.64645  23969744.042    23969759.396
  23323850.921   -11013779.91649  -8303952.87546  23323850.144    23323861.271
  20697893.299   -27391640.83949 -21331235.56448  20697892.577    20697902.021
  21207453.841   -21218409.07249 -16255631.43947  21207453.506    21207463.318
  20321096.320   -27832478.20449 -21425332.21248  20321095.438    20321104.625
  21629993.502   -21749339.84549 -15232837.63947  21629992.808    21630002.957
  23268764.318   -12470223.97649  -9697663.61546  23268764.190    23268775.273
  23996002.840    -7020689.61649  -5159587.39145  23996002.164    23996019.011
  20481210.282   -23841914.83849 -17993314.26848  20481209.634    20481217.364
  22461100.033   -15763316.18249 -11738288.98546  22461099.535    22461110.766
 02  3  7  2 21  0.0000000  0 10G 6G23G17G29G15G21G26G14G18G 3
  23990878.690     3502874.97049   2743598.80845  23990878.260    23990893.626
  23338155.970   -10938606.39749  -8245376.09346  23338155.161    23338166.275
  20701684.450   -27371718.13949 -21315711.34948  20701683.703    20701693.133
  21194418.588   -21286909.31949 -16309008.12047  21194418.240    21194428.020
  20321395.756   -27830904.53349 -21424105.92848  20321394.871    20321404.042
  21623457.352   -21783687.12849 -15259601.67147  21623456.663    21623466.776
  23286278.312   -12378187.45249  -9625946.84646  23286278.175    23286289.282
  23974541.553    -7133467.40449  -5247465.69045  23974540.802    23974557.653
  20485080.339   -23821577.42949 -17977466.89948  20485079.685    20485087.409
  22449069.432   -15826537.15649 -11787551.97747  22449068.903    22449080.155
 02  3  7  2 21 30.0000000  0 11G 6G23G17G 9G29G15G21G26G14G18G 3
  24012032.147     3614036.53049   2830218.01145  24012031.746    24012047.193
  23352464.969   -10863412.00249  -8186783.04646  23352464.216    23352475.242
  20705532.932   -27351494.07449 -21299952.30548  20705532.188    20705541.611
  24456984.700    -7364141.60849  -5729119.67345  24456984.093    24456997.488
  21181465.974   -21354975.30749 -16362046.42247  21181465.627    21181475.359
  20321754.611   -27829018.36449 -21422636.13748  20321753.713    20321762.898
  21616967.112   -21817793.24849 -15286177.78847  21616966.436    21616976.492
  23303862.614   -12285781.32949  -9553942.07846  23303862.452    23303873.565
  23953098.670    -7246148.41549  -5335268.60345  23953097.936    23953114.636
  20489009.713   -23800928.26349 -17961376.60548  20489009.064    20489016.781
  22437124.161   -15889309.69049 -11836465.54447  22437123.623    22437134.884
 02  3  7  2 22  0.0000000  0 11G 6G23G17G 9G29G15G21G26G14G18G 3
  24033203.809     3725293.71049   2916911.72645  24033203.419    24033218.906
  23366777.106   -10788201.17949  -8128177.19946  23366776.367    23366787.354
  20709438.313   -27330971.00049 -21283960.26148  20709437.565    20709446.989
  24443694.371    -7433982.31249  -5783540.84745  24443693.773    24443707.096
  21168595.754   -21422608.16449 -16414747.21447  21168595.387    21168605.099
  20322172.479   -27826822.13649 -21420924.73448  20322171.593    20322180.767
  21610522.107   -21851661.60549 -15312568.64047  21610521.428    21610531.441
  23321516.101   -12193011.56249  -9481653.94746  23321515.921    23321527.091
  23931674.067    -7358733.48649  -5422996.77745  23931673.288    23931689.883
  20492997.578   -23779971.73049 -17945046.79348  20492996.933    20493004.636
  22425264.023   -15951634.85049 -11885030.49647  22425263.483    22425274.686
 02  3  7  2 22 30.0000000  0 11G 6G23G17G 9G29G15G21G26G14G18G 3
  24054393.245     3836644.23049   3003678.16845  24054392.870    24054408.344
  23381092.206   -10712974.84049  -8069559.27846  23381091.427    23381102.364
  20713400.764   -27310148.02449 -21267734.53047  20713400.012    20713409.434
  24430439.934    -7503634.26149  -5837814.94645  24430439.369    24430452.673
  21155808.394   -21489805.65949 -16467108.76947  21155808.039    21155817.720
  20322649.608   -27824314.72249 -21418970.85448  20322648.723    20322657.871
  21604122.234   -21885292.85649 -15338774.73547  21604121.558    21604131.531
  23339238.226   -12099881.01349  -9409084.68646  23339238.062    23339249.201
  23910268.277    -7471219.88849  -5510648.10045  23910267.567    23910283.944
  20497043.700   -23758709.00049 -17928478.39248  20497043.052    20497050.744
  22413489.433   -16013510.39949 -11933245.10847  22413488.885    22413500.033
 02  3  7  2 23  0.0000000  0 11G 6G23G17G 9G29G15G21G26G14G18G 3
  24075599.830     3948084.92449   3090514.86245  24075599.429    24075615.078
  23395409.969   -10637734.66749  -8010930.55246  23395409.186    23395420.126
  20717420.324   -27289024.97249 -21251274.96947  20717419.579    20717428.982
  24417221.807    -7573094.96649  -5891940.01345  24417221.299    24417234.706
  21143104.113   -21556566.58849 -16519130.14047  21143103.754    21143113.398
  20323185.957   -27821495.92349 -21416774.34248  20323185.072    20323194.183
  21597767.219   -21918688.20249 -15364797.00347  21597766.547    21597776.483
  23357028.320   -12006393.48549  -9336237.26046  23357028.126    23357039.221
  23888881.661    -7583605.61049  -5598220.99345  23888880.942    23888897.157
  20501147.696   -23737142.20749 -17911673.06048  20501147.041    20501154.692
  22401800.581   -16074935.24249 -11981108.51147  22401800.027    22401811.117
 02  3  7  2 23 30.0000000  0 11G 6G23G17G 9G29G15G21G26G14G18G 3
  24096823.440     4059614.90249   3177421.14245  24096823.026    24096838.781
  23409730.449   -10562480.10549  -7952290.62446  23409729.671    23409740.657
  20721497.444   -27267599.57649 -21234579.81747  20721496.686    20721506.069
  24404041.003    -7642359.60349  -5945912.30245  24404040.425    24404053.826
  21130483.650   -21622887.17049 -16570808.38747  21130483.291    21130492.893
  20323782.072   -27818363.18049 -21414333.20548  20323781.189    20323790.265
  21591457.296   -21951846.80149 -15390634.80047  21591456.606    21591466.519
  23374886.046   -11912550.28949  -9263112.69546  23374885.893    23374896.998
  23867514.980    -7695886.43749  -5685712.18745  23867514.324    23867530.386
  20505309.624   -23715270.92149 -17894630.46648  20505308.970    20505316.600
  22390198.242   -16135905.40949 -12028617.61847  22390197.709    22390208.763
 02  3  7  2 24  0.0000000  0 11G 6G23G17G 9G29G15G21G26G14G18G 3
  24118063.382     4171230.81149   3264394.38245  24118063.002    24118078.708
  23424053.296   -10487212.97549  -7893640.91046  23424052.506    23424063.546
  20725632.082   -27245871.69149 -21217648.96547  20725631.334    20725640.716
  24390897.998    -7711425.90249  -5999730.03145  24390897.434    24390910.866
  21117947.132   -21688766.55549 -16622142.84547  21117946.760    21117956.333
  20324437.920   -27814916.67149 -21411647.57648  20324437.025    20324446.084
  21585192.223   -21984769.73349 -15416288.96747  21585191.533    21585201.418
  23392810.708   -11818355.31249  -9189714.02046  23392810.564    23392821.674
  23846168.595    -7808060.63749  -5773120.30445  23846167.932    23846183.969
  20509529.055   -23693097.53149 -17877352.46948  20509528.409    20509536.039
  22378682.608   -16196419.96349 -12075771.70647  22378682.091    22378693.105
 02  3  7  2 24 30.0000000  0 11G 6G23G17G 9G29G15G21G26G14G18G 3
  24139319.383     4282930.94549   3351433.25045  24139318.967    24139334.710
  23438378.512   -10411933.53449  -7834981.59646  23438377.739    23438388.800
  20729824.522   -27223840.07249 -21200481.43147  20729823.782    20729833.142
  24377793.526    -7780289.88249  -6053390.12545  24377792.955    24377806.401
  21105495.034   -21754202.24349 -16673131.56547  21105494.671    21105504.221
  20325153.727   -27811154.78449 -21408716.19648  20325152.850    20325161.889
  21578972.022   -22017456.72149 -15441759.27847  21578971.339    21578981.198
  23410801.909   -11723810.80949  -9116042.97646  23410801.779    23410812.900
  23824843.108    -7920124.92249  -5860442.79545  23824842.455    23824858.377
  20513805.889   -23670622.53049 -17859839.44848  20513805.248    20513812.831
  22367254.220   -16256476.07249 -12122568.56247  22367253.693    22367264.673
 02  3  7  2 25  0.0000000  0 11G 6G23G17G 9G29G15G21G26G14G18G 3
  24160590.650     4394711.32649   3438534.64645  24160590.062    24160605.983
  23452705.597   -10336644.05049  -7776314.45246  23452704.810    23452715.869
  20734074.688   -27201505.07549 -21183077.49847  20734073.939    20734083.336
  24364727.834    -7848949.86049  -6106891.26145  24364727.361    24364740.755
  21093127.508   -21819193.40349 -16723773.89847  21093127.152    21093136.692
  20325929.487   -27807077.80849 -21405539.29648  20325928.613    20325937.637
  21572796.288   -22049910.13149 -15467047.58247  21572795.595    21572805.454
  23428858.807   -11628921.17649  -9042103.00346  23428858.709    23428869.782
  23803538.771    -8032078.19449  -5947678.79445  23803538.154    23803553.984
  20518139.613   -23647848.69049 -17842093.56748  20518138.958    20518146.518
  22355913.200   -16316073.04349 -12169007.64747  22355912.664    22355923.604
 02  3  7  2 25 30.0000000  0 11G 6G23G17G 9G29G15G21G26G14G18G 3
  24181877.024     4506571.01649   3525697.84145  24181876.465    24181892.407
  23467034.739   -10261343.96249  -7717639.05946  23467033.961    23467045.011
  20738383.058   -27178864.25949 -21165435.27047  20738382.317    20738391.707
  24351701.987    -7917400.75549  -6160229.48645  24351701.509    24351714.834
  21080845.238   -21883736.48649 -16774067.08347  21080844.885    21080854.409
  20326765.727   -27802683.25949 -21402114.94048  20326764.844    20326773.840
  21566665.208   -22082128.69349 -15492152.89047  21566664.529    21566674.371
  23446981.161   -11533687.66349  -8967895.06546  23446981.033    23446992.138
  23782256.456    -8143915.96749  -6034824.80745  23782255.868    23782271.657
  20522530.210   -23624775.71449 -17824114.59548  20522529.568    20522537.112
  22344660.268   -16375207.22449 -12215086.11747  22344659.734    22344670.615
 02  3  7  2 26  0.0000000  0 11G 6G23G17G 9G29G15G21G26G14G18G 3
  24203177.791     4618506.59649   3612920.14645  24203177.278    24203193.313
  23481365.456   -10186035.32149  -7658956.99846  23481364.720    23481375.762
  20742749.561   -27155917.99649 -21147555.02647  20742748.814    20742758.195
  24338716.213    -7985640.67249  -6213403.29945  24338715.728    24338729.053
  21068648.360   -21947830.85049 -16824010.61947  21068648.019    21068657.498
  20327662.329   -27797971.46649 -21398443.37448  20327661.443    20327670.440
  21560578.540   -22114114.01749 -15517076.44847  21560577.863    21560587.717
  23465168.137   -11438114.38449  -8893422.37445  23465168.012    23465179.072
  23760996.348    -8255636.62049  -6121879.52945  23760995.756    23761011.467
  20526977.295   -23601406.07049 -17805904.45148  20526976.660    20526984.198
  22333495.495   -16433877.85249 -12260803.37047  22333494.953    22333505.859
 02  3  7  2 26 30.0000000  0 11G 6G23G17G 9G29G15G21G26G14G18G 3
  24224492.643     4730516.08849   3700200.04745  24224492.163    24224508.232
  23495697.714   -10110718.62349  -7600268.65946  23495696.978    23495708.023
  20747174.435   -27132664.98049 -21129435.75647  20747173.681    20747183.059
  24325771.258    -8053666.02849  -6266409.93645  24325770.810    24325784.130
  21056537.326   -22011474.20949 -16873602.72247  21056536.983    21056546.433
  20328619.563   -27792941.02449 -21394523.51148  20328618.690    20328627.664
  21554536.206   -22145866.34449 -15541818.45447  21554535.536    21554545.397
  23483419.247   -11342203.95349  -8818686.97345  23483419.137    23483430.159
  23739759.063    -8367237.19949  -6208840.65545  23739758.518    23739774.235
  20531480.665   -23577740.60049 -17787463.79148  20531480.022    20531487.571
  22322419.461   -16492082.27049 -12306157.34647  22322418.951    22322429.831
 02  3  7  2 27  0.0000000  0 11G 6G23G17G 9G29G15G21G26G14G18G 3
  24245821.155     4842597.20249   3787535.77045  24245820.677    24245836.607
  23510031.378   -10035394.79649  -7541574.76446  23510030.634    23510041.698
  20751657.800   -27109104.42749 -21111076.85647  20751657.057    20751666.420
  24312867.692    -8121473.31749  -6319246.64545  24312867.273    24312880.728
  21044512.527   -22074664.52249 -16922841.80247  21044512.178    21044521.583
  20329637.620   -27787591.04349 -21390354.65648  20329636.735    20329645.723
  21548538.052   -22177386.61649 -15566379.63447  21548537.368    21548547.234
  23501734.079   -11245959.17949  -8743691.04345  23501733.948    23501744.936
  23718545.207    -8478714.92449  -6295706.04845  23718544.684    23718560.403
  20536040.089   -23553780.54249 -17768793.58648  20536039.466    20536046.981
  22311432.542   -16549818.51649 -12351146.50547  22311432.027    22311442.893
 02  3  7  2 27 30.0000000  0 11G 6G23G17G 9G29G15G21G26G14G18G 3
  24267162.686     4954747.07949   3874925.08945  24267162.282    24267178.229
  23524366.136    -9960065.13749  -7482876.35046  23524365.400    23524376.466
  20756199.795   -27085235.96449 -21092478.01947  20756199.052    20756208.402
  24300006.232    -8189059.83249  -6371911.33145  24300005.816    24300019.367
  21032574.174   -22137400.48249 -16971726.84247  21032573.832    21032583.204
  20330716.549   -27781921.17649 -21385936.54248  20330715.678    20330724.649
  21542583.877   -22208675.73549 -15590760.68947  21542583.180    21542593.054
  23520111.841   -11149383.53649  -8668437.28545  23520111.666    23520122.651
  23697355.196    -8590067.70849  -6382474.05245  23697354.604    23697370.340
  20540655.239   -23529527.70849 -17749895.24548  20540654.601    20540662.097
  22300534.982   -16607085.13249 -12395769.72247  22300534.481    22300545.337
 02  3  7  2 28  0.0000000  0 11G 6G23G17G 9G29G15G21G26G14G18G 3
  24288516.844     5066963.35349   3962366.13045  24288516.449    24288532.462
  23538701.866    -9884730.34349  -7424173.91346  23538701.116    23538712.154
  20760800.624   -27061058.42749 -21073638.35547  20760799.887    20760809.221
  24287187.578    -8256421.96749  -6424401.16845  24287187.140    24287200.602
  21020722.761   -22199679.66849 -17020255.95947  21020722.417    21020731.741
  20331856.528   -27775930.39149 -21381268.36248  20331855.639    20331864.623
  21536673.743   -22239733.41849 -15614961.40747  21536673.032    21536682.900
  23538552.029   -11052479.72149  -8592927.81145  23538551.820    23538562.748
  23676189.530    -8701292.65849  -6469142.43945  23676188.946    23676204.519
  20545325.905   -23504983.05349 -17730769.51048  20545325.257    20545332.738
  22289727.212   -16663879.85749 -12440025.22847  22289726.704    22289737.585
 02  3  7  2 28 30.0000000  0 11G 6G23G17G 9G29G15G21G26G14G18G 3
  24309883.229     5179243.73749   4049857.11045  24309882.857    24309898.918
  23553038.432    -9809391.19749  -7365468.08846  23553037.671    23553048.749
  20765460.408   -27036571.05849 -21054557.25947  20765459.671    20765468.994
  24274412.209    -8323556.43049  -6476713.61345  24274411.864    24274425.241
  21008958.539   -22261500.50449 -17068427.91847  21008958.211    21008967.487
  20333057.834   -27769617.41349 -21376349.11348  20333056.948    20333065.927
  21530807.470   -22270560.44549 -15638982.38747  21530806.783    21530816.630
  23557054.146   -10955250.59449  -8517164.84045  23557053.951    23557064.845
  23655048.684    -8812387.17949  -6555709.17145  23655048.082    23655063.531
  20550051.866   -23480147.92549 -17711417.43848  20550051.226    20550058.677
  22279009.594   -16720200.81249 -12483911.56247  22279009.083    22279019.993
 02  3  7  2 29  0.0000000  0 11G 6G23G17G 9G29G15G21G26G14G18G 3
  24331261.311     5291585.46149   4137395.88645  24331260.938    24331276.967
  23567375.640    -9734048.91349  -7306759.80246  23567374.866    23567385.864
  20770179.264   -27011773.27849 -21035234.27747  20770178.515    20770187.852
  24261680.702    -8390460.37549  -6528846.43145  24261680.318    24261693.788
  20997281.866   -22322861.41049 -17116241.48647  20997281.525    20997290.803
  20334320.503   -27762981.80449 -21371178.46948  20334319.633    20334328.597
  21524984.937   -22301157.87449 -15662824.45947  21524984.234    21524994.083
  23575617.459   -10857699.62449  -8441151.08345  23575617.250    23575628.063
  23633933.090    -8923348.76749  -6642172.31245  23633932.470    23633947.844
  20554832.771   -23455023.96349 -17691840.29848  20554832.116    20554839.576
  22268382.422   -16776046.18049 -12527427.31147  22268381.940    22268392.824
 02  3  7  2 29 30.0000000  0 11G 6G23G17G 9G29G15G21G26G14G18G 3
  24352650.539     5403985.84649   4224980.36445  24352650.180    24352666.195
  23581713.271    -9658704.63249  -7248049.95546  23581712.510    23581723.385
  20774957.257   -26986664.62749 -21015669.06347  20774956.507    20774965.824
  24248993.664    -8457130.72149  -6580797.20345  24248993.212    24249006.636
  20985692.977   -22383760.88549 -17163695.50647  20985692.637    20985701.881
  20335644.728   -27756022.88249 -21365755.90148  20335643.837    20335652.829
  21519205.959   -22331526.27349 -15686488.06847  21519205.254    21519215.083
  23594241.397   -10759829.81749  -8364888.89145  23594241.217    23594252.084
  23612843.215    -9034175.02149  -6728529.98845  23612842.551    23612857.904
  20559668.342   -23429612.69549 -17672039.28348  20559667.688    20559675.164
  22257846.140   -16831414.19849 -12570571.10447  22257845.654    22257856.526
 02  3  7  2 30  0.0000000  0 11G 6G23G17G 9G29G15G21G26G14G18G 3
  24374050.538     5516442.89449   4312608.98045  24374050.126    24374066.243
  23596051.145    -9583358.78849  -7189338.89746  23596050.365    23596061.220
  20779794.621   -26961243.89349 -20995860.67047  20779793.878    20779803.197
  24236351.709    -8523564.02049  -6632563.27545  24236351.343    24236364.746
  20974192.344   -22444196.53949 -17210788.10347  20974192.009    20974201.228
  20337030.686   -27748739.34949 -21360080.37548  20337029.817    20337038.801
  21513470.647   -22361665.42149 -15709973.03647  21513469.945    21513479.749
  23612925.512   -10661643.93249  -8288380.41045  23612925.312    23612936.294
  23591779.709    -9144863.09249  -6814779.99245  23591779.072    23591794.266
  20564558.384   -23403915.06749 -17652015.12248  20564557.743    20564565.228
  22247401.114   -16886302.78949 -12613341.31547  22247400.586    22247411.467
 02  3  7  2 30 30.0000000  0 11G 6G23G17G 9G29G15G21G26G14G18G 3
  24395460.872     5628954.39149   4400280.02945  24395460.484    24395476.608
  23610389.136    -9508011.98449  -7130627.08646  23610388.368    23610399.222
  20784691.606   -26935509.98649 -20975808.24347  20784690.858    20784700.154
  24223755.549    -8589756.64549  -6684141.80145  24223755.203    24223768.483
  20962780.319   -22504166.58849 -17257517.89247  20962780.000    20962789.202
  20338478.645   -27741130.06649 -21354151.01048  20338477.765    20338486.749
  21507778.743   -22391576.23849 -15733280.08247  21507778.035    21507787.799
  23631669.280   -10563144.64649  -8211627.70245  23631669.096    23631680.095
  23570742.994    -9255410.11949  -6900920.09045  23570742.385    23570757.356
  20569502.733   -23377932.17049 -17631768.67848  20569502.080    20569509.593
  22237047.638   -16940709.90349 -12655736.35147  22237047.123    22237058.027
 02  3  7  2 31  0.0000000  0 11G 6G23G17G 9G29G15G21G26G14G18G 3
  24416880.934     5741517.03949   4487990.92945  24416880.605    24416896.739
  23624727.009    -9432665.75849  -7071915.73846  23624726.242    23624737.079
  20789648.186   -26909462.88349 -20955511.77147  20789647.447    20789656.721
  24211205.684    -8655706.14249  -6735530.89045  24211205.401    24211218.617
  20951457.109   -22563670.07649 -17303884.13147  20951456.779    20951465.943
  20339988.603   -27733194.87049 -21347967.68548  20339987.720    20339996.696
  21502130.080   -22421259.86849 -15756410.09747  21502129.376    21502139.099
  23650472.049   -10464335.61049  -8134633.65045  23650471.809    23650482.874
  23549733.591    -9365813.90749  -6986948.58745  23549733.010    23549747.786
  20574501.001   -23351665.91049 -17611301.44148  20574500.350    20574507.865
  22226786.017   -16994634.36449 -12697755.29747  22226785.527    22226796.447
 02  3  7  2 31 30.0000000  0 11G 6G23G17G 9G29G15G21G26G14G18G 3
  24438310.449     5854129.07549   4575740.31445  24438310.180    24438326.493
  23639064.695    -9357320.56649  -7013205.18046  23639063.907    23639074.780
  20794664.571   -26883101.37949 -20934970.30947  20794663.834    20794673.116
  24198702.875    -8721408.97549  -6786727.75745  24198702.557    24198715.673
  20940223.121   -22622704.52449 -17349884.88947  20940222.786    20940231.916
  20341560.853   -27724932.44049 -21341529.37448  20341559.971    20341568.930
  21496524.545   -22450716.72549 -15779363.41047  21496523.837    21496533.548
  23669333.175   -10365219.41749  -8057400.25445  23669332.951    23669344.052
  23528752.006    -9476071.45949  -7072863.13445  23528751.435    23528766.032
  20579553.028   -23325117.24749 -17590614.14548  20579552.382    20579559.884
  22216616.776   -17048073.56249 -12739396.12447  22216616.297    22216627.176
 02  3  7  2 32  0.0000000  0 11G 6G23G17G 9G29G15G21G26G14G18G 3
  24459748.770     5966787.16549   4663525.58445  24459748.408    24459764.861
  23653401.790    -9281978.22249  -6954496.82946  23653400.991    23653412.033
  20799740.725   -26856425.80049 -20914184.12147  20799739.980    20799749.282
  24186247.422    -8786862.66449  -6837730.48645  24186247.020    24186260.061
  20929078.503   -22681269.53549 -17395519.84847  20929078.171    20929087.247
  20343195.360   -27716342.82849 -21334836.12548  20343194.470    20343203.399
  21490961.978   -22479947.94549 -15802140.90547  21490961.287    21490970.953
  23688252.097   -10265799.73749  -7979930.37145  23688251.855    23688262.995
  23507798.558    -9586181.28249  -7158662.56645  23507797.891    23507812.413
  20584658.304   -23298288.57249 -17569708.64648  20584657.658    20584665.176
  22206540.132   -17101026.45449 -12780658.01147  22206539.613    22206550.415
 02  3  7  2 32 30.0000000  0 11G 6G23G17G 9G29G15G21G26G14G18G 3
  24481195.729     6079490.58249   4751346.17645  24481195.331    24481211.931
  23667738.462    -9206637.97049  -6895790.12946  23667737.666    23667748.845
  20804877.166   -26829433.50549 -20893151.13947  20804876.414    20804885.749
  24173840.263    -8852062.29649  -6888535.24445  24173839.829    24173852.777
  20918023.906   -22739361.54549 -17440786.23747  20918023.544    20918032.605
  20344892.533   -27707423.79849 -21327886.18748  20344891.655    20344900.587
  21485442.447   -22508953.06549 -15824742.21647  21485441.738    21485451.387
  23707228.498   -10166078.16149  -7902225.24345  23707228.277    23707239.420
  23486874.002    -9696138.99549  -7244343.46745  23486873.397    23486887.745
  20589816.968   -23271179.53949 -17548584.69048  20589816.327    20589823.814
  22196556.630   -17153489.84949 -12821538.47947  22196556.114    22196566.858
 02  3  7  2 33  0.0000000  0 11G 6G23G17G 9G29G15G21G26G14G18G 3
  24502650.612     6192235.24849   4839198.90445  24502650.017    24502666.786
  23682074.317    -9131302.12649  -6837086.87646  23682073.552    23682084.732
  20810073.677   -26802125.44249 -20871872.09947  20810072.926    20810082.275
  24161481.779    -8917006.27749  -6939140.80945  24161481.354    24161494.238
  20907059.285   -22796980.39749 -17485683.93147  20907058.924    20907067.995
  20346652.290   -27698175.83649 -21320679.94348  20346651.416    20346660.345
  21479965.557   -22537733.98549 -15847168.83047  21479964.850    21479974.467
  23726261.505   -10066059.16949  -7824288.36545  23726261.291    23726272.499
  23465978.617    -9805943.49849  -7329905.00846  23465978.032    23465992.256
  20595028.466   -23243792.73449 -17527244.29248  20595027.819    20595035.303
  22186666.327   -17205463.50849 -12862037.33847  22186665.811    22186676.476
 02  3  7  2 33 30.0000000  0 11G 6G23G17G 9G29G15G21G26G14G18G 3
  24524112.899     6305019.06049   4927082.13845  24524112.270    24524129.212
  23696409.347    -9055971.07449  -6778387.34946  23696408.528    23696419.773
  20815330.490   -26774500.41049 -20850346.08047  20815329.757    20815339.086
  24149172.557    -8981691.22049  -6989544.52145  24149172.196    24149185.060
  20896185.042   -22854124.25149 -17530211.49747  20896184.693    20896193.747
  20348474.952   -27688597.61649 -21313216.35648  20348474.075    20348482.975
  21474531.360   -22566290.59949 -15869420.66047  21474530.642    21474540.241
  23745350.582    -9965745.35349  -7746121.75745  23745350.376    23745361.562
  23445112.945    -9915591.87349  -7415344.88446  23445112.317    23445126.381
  20600292.598   -23216129.23149 -17505688.27448  20600291.955    20600299.430
  22176869.628   -17256945.36649 -12902152.97747  22176869.083    22176879.703
 02  3  7  2 34  0.0000000  0 10G23G17G 9G29G15G21G26G14G18G 3
  23710743.606    -8980644.02549  -6719690.94946  23710742.805    23710754.028
  20820648.130   -26746556.10049 -20828571.26347  20820647.406    20820656.713
  24136913.465    -9046112.33749  -7039742.64545  24136913.113    24136925.937
  20885401.826   -22910789.89949 -17574366.43947  20885401.468    20885410.532
  20350360.895   -27678686.73449 -21305493.55048  20350360.029    20350368.930
  21469139.986   -22594622.24249 -15891497.18947  21469139.264    21469148.857
  23764495.487    -9865138.24449  -7667726.59245  23764495.322    23764506.498
  23424277.723   -10025079.89449  -7500659.80546  23424277.051    23424291.051
  20605609.433   -23188188.98749 -17483916.62848  20605608.794    20605616.272
  22167167.147   -17307931.91149 -12941882.67047  22167166.600    22167177.146
 02  3  7  2 34 30.0000000  0 10G23G17G 9G29G15G21G26G14G18G 3
  23725077.037    -8905321.39249  -6660997.97746  23725076.221    23725087.468
  20826026.685   -26718291.63749 -20806546.98247  20826025.952    20826035.228
  24124705.264    -9110266.04749  -7089732.39745  24124704.875    24124717.821
  20874710.009   -22966975.32049 -17618147.17847  20874709.649    20874718.693
  20352310.394   -27668441.96149 -21297510.56848  20352309.519    20352318.417
  21463791.298   -22622729.42949 -15913398.81347  21463790.587    21463800.165
  23783695.668    -9764240.50649  -7589104.96845  23783695.460    23783706.673
  23403473.589   -10134404.73449  -7585847.58046  23403472.923    23403486.814
  20610978.749   -23159972.83649 -17461929.98848  20610978.117    20610985.565
  22157559.356   -17358421.11949 -12981224.82347  22157558.791    22157569.307
 02  3  7  2 35  0.0000000  0 10G23G17G 9G29G15G21G26G14G18G 3
  23739408.857    -8830007.52549  -6602311.84746  23739408.010    23739419.217
  20831465.652   -26689709.60949 -20784275.24447  20831464.917    20831474.184
  24112547.899    -9174152.58849  -7139513.95645  24112547.471    24112560.426
  20864109.171   -23022682.52249 -17661555.27947  20864108.808    20864117.845
  20354322.886   -27657866.13449 -21289269.62748  20354322.026    20354330.903
  21458484.702   -22650615.66149 -15935128.26247  21458483.991    21458493.547
  23802950.020    -9663058.43549  -7510261.77845  23802949.850    23802961.009
  23382700.361   -10243567.27349  -7670908.88746  23382699.665    23382713.405
  20616399.667   -23131485.65249 -17439732.14848  20616399.024    20616406.457
  22148045.829   -17408414.66749 -13020180.74847  22148045.288    22148055.771
 02  3  7  2 35 30.0000000  0 10G23G17G 9G29G15G21G26G14G18G 3
  23753739.141    -8754701.51549  -6543631.82446  23753738.319    23753749.486
  20836965.428   -26660807.68449 -20761754.24347  20836964.690    20836973.991
  24100442.353    -9237767.19649  -7189083.63145  24100441.941    24100454.885
  20853599.996   -23077908.23549 -17704588.19747  20853599.634    20853608.643
  20356398.858   -27646956.81449 -21280768.81748  20356397.989    20356406.845
  21453220.284   -22678280.02549 -15956684.83247  21453219.575    21453229.115
  23822258.173    -9561593.59049  -7431198.24845  23822257.984    23822269.128
  23361958.868   -10352563.11449  -7755840.31946  23361958.203    23361971.792
  20621872.260   -23102726.94549 -17417322.71448  20621871.605    20621879.035
  22138627.217   -17457909.22249 -13058747.85047  22138626.678    22138637.169
 02  3  7  2 36  0.0000000  0 10G23G17G 9G29G15G21G26G14G18G 3
  23768067.728    -8679404.41249  -6484958.73446  23768066.900    23768078.035
  20842526.230   -26631585.40549 -20738983.60747  20842525.510    20842534.789
  24088389.181    -9301106.97549  -7238439.14645  24088388.735    24088401.542
  20843182.729   -23132650.91449 -17747244.72447  20843182.365    20843191.347
  20358538.364   -27635713.49549 -21272007.73848  20358537.478    20358546.336
  21447997.900   -22705723.44149 -15978069.23747  21447997.201    21448006.732
  23841619.636    -9459848.81949  -7351916.60045  23841619.460    23841630.607
  23341249.525   -10461389.79649  -7840639.94146  23341248.890    23341262.380
  20627396.156   -23073698.46849 -17394703.07048  20627395.501    20627402.915
  22129303.900   -17506903.18849 -13096924.87447  22129303.372    22129313.845
 02  3  7  2 36 30.0000000  0 10G23G17G 9G29G15G21G26G14G18G 3
  23782394.283    -8604117.63049  -6426293.70646  23782393.442    23782404.618
  20848148.023   -26602042.63549 -20715963.24247  20848147.288    20848156.569
  24076388.763    -9364169.39349  -7287578.53445  24076388.333    24076400.919
  20832857.522   -23186909.93949 -17789524.38247  20832857.153    20832866.087
  20360741.488   -27624135.77749 -21262986.09848  20360740.613    20360749.459
  21442817.311   -22732947.38949 -15999282.62947  21442816.607    21442826.091
  23861033.574    -9357828.06049  -7272419.88445  23861033.390    23861044.468
  23320572.765   -10570045.50449  -7925306.34046  23320572.105    23320585.513
  20632971.075   -23044402.03049 -17371874.63948  20632970.422    20632977.820
  22120076.042   -17555395.64449 -13134711.11647  22120075.490    22120085.905
 02  3  7  2 37  0.0000000  0 10G23G17G 9G29G15G21G26G14G18G 3
  23796718.890    -8528841.07749  -6367636.63346  23796718.085    23796729.295
  20853831.094   -26572177.74149 -20692691.86847  20853830.364    20853839.634
  24064441.794    -9426950.39449  -7336498.63445  24064441.315    24064453.951
  20822624.821   -23240682.81549 -17831425.22347  20822624.447    20822633.349
  20363008.635   -27612221.75249 -21253702.40848  20363007.753    20363016.577
  21437678.582   -22759951.28449 -16020324.55547  21437677.875    21437687.340
  23880499.585    -9255533.32949  -7192709.70045  23880499.424    23880510.603
  23299929.267   -10678526.68149  -8009836.76546  23299928.576    23299941.889
  20638596.845   -23014838.15849 -17348837.82648  20638596.187    20638603.561
  22110944.086   -17603383.99049 -13172104.53547  22110943.582    22110953.907
 02  3  7  2 37 30.0000000  0 10G23G17G 9G29G15G21G26G14G18G 3
  23811041.526    -8453574.99149  -6308987.71546  23811040.740    23811051.934
  20859575.658   -26541989.58749 -20669168.59947  20859574.927    20859584.194
  24052549.094    -9489446.29549  -7385196.58745  24052548.657    24052561.251
  20812484.984   -23293967.49449 -17872945.64947  20812484.627    20812493.503
  20365339.961   -27599970.25449 -21244155.76048  20365339.069    20365347.874
  21432581.659   -22786735.43049 -16041195.24747  21432580.963    21432590.424
  23900017.282    -9152967.07449  -7112787.93445  23900017.123    23900028.272
  23279319.542   -10786830.17149  -8094228.73446  23279318.893    23279332.001
  20644273.366   -22985007.76649 -17325593.32948  20644272.717    20644280.081
  22101908.485   -17650866.10749 -13209103.49547  22101907.968    22101918.226
 02  3  7  2 38  0.0000000  0 10G23G17G 9G29G15G21G26G14G18G 3
  23825361.900    -8378320.89449  -6250348.14346  23825361.106    23825372.276
  20865381.724   -26511478.42449 -20645393.64347  20865380.997    20865390.235
  24040711.065    -9551654.90149  -7433670.68445  24040710.652    24040723.132
  20802438.171   -23346763.39249 -17914085.21447  20802437.822    20802446.666
  20367735.500   -27587381.59249 -21234346.39348  20367734.611    20367743.383
  21427526.260   -22813301.29349 -16061895.85147  21427525.553    21427535.019
  23919585.948    -9050133.26849  -7032657.67745  23919585.776    23919596.969
  23258743.974   -10894954.34049  -8178481.00046  23258743.318    23258756.294
  20650000.196   -22954912.83749 -17302142.70048  20649999.563    20650006.894
  22092969.360   -17697841.10649 -13245707.29347  22092968.846    22092979.079
 02  3  7  2 38 30.0000000  0 10G23G17G 9G29G15G21G26G14G18G 3
  23839679.794    -8303079.85949  -6191718.74546  23839678.944    23839690.090
  20871249.337   -26480643.73949 -20621366.58547  20871248.605    20871257.826
  24028928.323    -9613573.13049  -7481918.49745  24028927.890    24028940.249
  20792484.625   -23399069.33249 -17954842.98847  20792484.273    20792493.072
  20370195.328   -27574454.94949 -21224273.64548  20370194.438    20370203.204
  21422512.285   -22839649.74449 -16082427.03547  21422511.584    21422521.014
  23939204.906    -8947034.93649  -6952321.31345  23939204.763    23939215.919
  23238202.927   -11002896.83349  -8262591.70946  23238202.288    23238215.127
  20655777.132   -22924554.75449 -17278487.01048  20655776.493    20655783.802
  22084126.998   -17744307.49249 -13281914.76147  22084126.458    22084136.716
 02  3  7  2 39  0.0000000  0 10G23G17G 9G29G15G21G26G14G18G 3
  23853995.287    -8227851.21149  -6133099.00546  23853994.424    23854005.571
  20877178.919   -26449483.53949 -20597085.88347  20877178.170    20877187.376
  24017201.736    -9675196.51449  -7529936.57745  24017201.268    24017213.489
  20782624.772   -23450882.61249 -17995216.87647  20782624.429    20782633.216
  20372719.863   -27561188.31249 -21213935.97348  20372718.980    20372727.721
  21417539.805   -22865780.14849 -16102788.32447  21417539.096    21417548.490
  23958873.865    -8843673.78649  -6871780.15045  23958873.687    23958884.859
  23217697.207   -11110653.73249  -8346557.83946  23217696.524    23217709.312
  20661604.119   -22893933.76549 -17254626.46648  20661603.470    20661610.768
  22075381.935   -17790262.60849 -13317723.84347  22075381.402    22075391.681
 02  3  7  2 39 30.0000000  0 10G23G17G 9G29G15G21G26G14G18G 3
  23868308.026    -8152636.82149  -6074490.37846  23868307.235    23868318.430
  20883170.320   -26417998.29649 -20572551.90047  20883169.583    20883178.766
  24005531.544    -9736523.28049  -7577723.54445  24005531.076    24005543.244
  20772858.800   -23502202.79149 -18035206.53247  20772858.450    20772867.222
  20375309.090   -27547581.76749 -21203333.43948  20375308.198    20375316.917
  21412608.434   -22891694.36149 -16122981.15547  21412607.710    21412617.096
  23978591.997    -8740053.96049  -6791037.42745  23978591.827    23978602.959
  23197227.046   -11218223.49949  -8430378.11546  23197226.395    23197239.105
  20667480.656   -22863052.18349 -17230562.86148  20667480.001    20667487.321
  22066734.254   -17835705.99849 -13353134.17947  22066733.718    22066743.973
 02  3  7  2 40  0.0000000  0 10G23G17G 9G29G15G21G26G14G18G 3
  23882618.012    -8077437.23749  -6015893.29646  23882617.218    23882628.388
  20889223.768   -26386187.16949 -20547763.98647  20889223.032    20889232.199
  23993918.405    -9797550.07449  -7625276.74045  23993917.956    23993930.143
  20763186.934   -23553028.46149 -18074810.85847  20763186.585    20763195.335
  20377963.071   -27533634.87749 -21192465.70448  20377962.190    20377970.888
  21407718.184   -22917392.60849 -16143005.69747  21407717.456    21407726.805
  23998358.812    -8636178.33849  -6710095.38345  23998358.672    23998369.731
  23176793.031   -11325603.43149  -8514050.51446  23176792.401    23176805.092
  20673406.499   -22831911.29749 -17206297.20148  20673405.849    20673413.192
  22058184.322   -17880635.93249 -13388144.41947  22058183.797    22058194.007
 02  3  7  2 40 30.0000000  0 10G23G17G 9G29G15G21G26G14G18G 3
  23896925.120    -8002252.92449  -5957308.09946  23896924.304    23896935.505
  20895339.392   -26354049.19149 -20522721.38347  20895338.638    20895347.841
  23982362.968    -9858273.38049  -7672593.47145  23982362.497    23982374.714
  20753609.524   -23603357.75849 -18114028.39747  20753609.176    20753617.914
  20380682.104   -27519346.27849 -21181331.70048  20380681.228    20380689.901
  21402868.920   -22942875.38549 -16162862.34047  21402868.203    21402877.512
  24018173.852    -8532049.41749  -6628955.96845  24018173.654    24018184.756
  23156395.757   -11432790.58349  -8597572.69446  23156395.112    23156407.719
  20679381.560   -22800511.95549 -17181830.15048  20679380.913    20679388.288
  22049732.472   -17925050.38549 -13422752.98747  22049731.948    22049742.135
 02  3  7  2 41  0.0000000  0 10G23G17G 9G29G15G21G26G14G18G 3
  23911229.222    -7927084.22349  -5898735.07445  23911228.440    23911239.611
  20901517.349   -26321583.58549 -20497423.48947  20901516.611    20901525.795
  23970865.890    -9918689.88149  -7719671.10945  23970865.525    23970877.667
  20744126.827   -23653189.35349 -18152858.11748  20744126.480    20744135.204
  20383466.339   -27504714.93149 -21169930.61748  20383465.461    20383474.123
  21398060.568   -22968143.22549 -16182551.50147  21398059.861    21398069.118
  24038036.577    -8427670.05249  -6547621.38245  24038036.443    24038047.432
  23136035.691   -11539782.24249  -8680942.55546  23136035.047    23136047.582
  20685405.534   -22768855.47649 -17157162.73348  20685404.892    20685412.267
  22041379.058   -17968947.56949 -13456958.49347  22041378.541    22041388.703
 02  3  7  2 41 30.0000000  0 10G23G17G 9G29G15G21G26G14G18G 3
  23925529.956    -7851933.30349  -5840175.91545  23925529.171    23925540.322
  20907757.591   -26288791.08449 -20471870.86847  20907756.861    20907765.977
  23959427.506    -9978797.95049  -7766508.43545  23959427.074    23959439.322
  20734738.846   -23702523.25649 -18191300.02848  20734738.489    20734747.168
  20386315.658   -27489741.48349 -21158262.96348  20386314.768    20386323.418
  21393292.739   -22993198.19649 -16202074.79447  21393292.022    21393301.244
  24057946.186    -8323044.73249  -6466095.15745  24057946.011    24057956.973
  23115713.040   -11646577.29049  -8764159.20946  23115712.416    23115724.816
  20691477.996   -22736944.36849 -17132296.90248  20691477.358    20691484.712
  22033124.043   -18012327.64749 -13490761.06447  22033123.526    22033133.639
 02  3  7  2 42  0.0000000  0 10G23G17G 9G29G15G21G26G14G18G 3
  23939827.302    -7776800.01949  -5781630.49745  23939826.483    23939837.660
  20914060.249   -26255670.25149 -20446062.40747  20914059.508    20914068.584
  23948048.625   -10038593.66849  -7813102.34745  23948048.091    23948060.457
  20725445.984   -23751357.24149 -18229352.39348  20725445.633    20725454.263
  20389230.409   -27474424.32149 -21146327.47848  20389229.520    20389238.137
  21388565.495   -23018039.79149 -16221431.82047  21388564.775    21388573.932
  24077902.255    -8218175.40249  -6384378.79745  24077902.035    24077912.941
  23095428.532   -11753172.06149  -8847219.79146  23095427.879    23095440.258
  20697598.867   -22704779.04749 -17107232.97948  20697598.221    20697605.554
  22024967.932   -18055188.02349 -13524158.67547  22024967.412    22024977.493
 02  3  7  2 42 30.0000000  0 10G23G17G 9G29G15G21G26G14G18G 3
  23954121.272    -7701684.10749  -5723098.61345  23954120.507    23954131.760
  20920425.768   -26222219.39349 -20419996.78847  20920425.021    20920434.050
  23936729.914   -10098072.91249  -7859449.67245  23936729.348    23936741.799
  20716248.687   -23799688.93249 -18267013.35948  20716248.340    20716256.945
  20392210.817   -27458761.79349 -21134122.88348  20392209.927    20392218.580
  21383878.870   -23042667.83249 -16240622.44247  21383878.159    21383887.290
  24097904.300    -8113064.25449  -6302474.00945  24097904.078    24097914.963
  23075182.692   -11859563.24849  -8930121.73346  23075182.074    23075194.390
  20703767.976   -22672360.13749 -17081971.45648  20703767.310    20703774.640
  22016911.116   -18097526.42749 -13557149.55347  22016910.600    22016920.661
 02  3  7  2 43  0.0000000  0 10G23G17G 9G29G15G21G26G14G18G 3
  23968411.523    -7626587.80549  -5664582.00145  23968410.765    23968422.089
  20926853.825   -26188439.62349 -20393674.87147  20926853.101    20926862.105
  23925471.852   -10157234.30049  -7905549.32145  23925471.351    23925483.522
  20707146.851   -23847518.89449 -18304283.36648  20707146.521    20707155.090
  20395256.800   -27442754.95449 -21121649.99148  20395255.918    20395264.562
  21379232.481   -23067084.47749 -16259648.33947  21379231.766    21379240.893
  24117951.440    -8007715.67349  -6220384.19945  24117951.250    24117962.087
  23054975.867   -11965749.78249  -9012864.20546  23054975.244    23054987.524
  20709984.742   -22639690.57649 -17056514.62648  20709984.086    20709991.409
  22008953.594   -18139342.99749 -13589733.81447  22008953.079    22008963.126
 02  3  7  2 43 30.0000000  0 10G23G17G 9G29G15G21G26G14G18G 3
  23982698.133    -7551510.96449  -5606080.57445  23982697.414    23982708.731
  20933344.739   -26154329.48449 -20367095.52447  20933344.008    20933353.011
  23914274.999   -10216073.98449  -7951398.28645  23914274.552    23914286.588
  20698140.955   -23894844.94949 -18341160.71948  20698140.626    20698149.161
  20398368.612   -27426402.10849 -21108907.47948  20398367.734    20398376.372
  21374626.308   -23091289.57649 -16278509.39447  21374625.605    21374634.722
  24138043.364    -7902131.87449  -6138111.10745  24138043.071    24138054.053
  23034808.639   -12071728.31149  -9095444.57246  23034807.975    23034820.211
  20716249.142   -22606770.82449 -17030862.84148  20716248.500    20716255.790
  22001095.861   -18180635.30449 -13621909.55747  22001095.359    22001105.366
 02  3  7  2 44  0.0000000  0 11G23G17G 9G29G31G15G21G26G14G18G 3
  23996980.970    -7476454.35449  -5547594.89445  23996980.256    23996991.459
  20939898.617   -26119888.38249 -20340258.28147  20939897.881    20939906.928
  23903139.998   -10274588.77449  -7996994.09845  23903139.631    23903151.361
  20689231.131   -23941665.89549 -18377644.47948  20689230.794    20689239.327
  24435206.072    -2312294.98349  -1783004.99845  24435205.090    24435219.169
  20401546.401   -27409702.47049 -21095894.74248  20401545.524    20401554.186
  21370060.187   -23115284.42449 -16297206.61447  21370059.486    21370068.613
  24158179.453    -7796315.86649  -6055657.07145  24158179.280    24158190.135
  23014681.433   -12177496.38249  -9177860.96246  23014680.748    23014692.970
  20722560.937   -22573602.09149 -17005017.05148  20722560.290    20722567.570
  21993338.094   -18221402.24349 -13653675.93047  21993337.569    21993347.582
 02  3  7  2 44 30.0000000  0 11G23G17G 9G29G31G15G21G26G14G18G 3
  24011258.521    -7401425.34749  -5489130.73245  24011257.842    24011268.969
  20946514.252   -26085122.71849 -20313168.13947  20946513.511    20946522.616
  23892066.071   -10332782.65849  -8042339.83145  23892065.667    23892077.165
  20680416.347   -23987987.46849 -18413739.12148  20680416.006    20680424.529
  24418122.745    -2402067.46749  -1852957.42045  24418121.826    24418135.996
  20404789.034   -27392662.21849 -21082616.59248  20404788.159    20404796.804
  21365532.754   -23139075.91349 -16315745.37147  21365532.060    21365541.172
  24178357.864    -7690277.42649  -5973029.69545  24178357.642    24178368.614
  22994593.449   -12283058.25749  -9260116.66246  22994592.805    22994604.920
  20728918.515   -22540192.57649 -16978983.63648  20728917.879    20728925.148
  21985679.244   -18261649.27149 -13685037.17747  21985678.742    21985688.770
 02  3  7  2 45  0.0000000  0 11G23G17G 9G29G31G15G21G26G14G18G 3
  24025532.624    -7326414.66049  -5430680.83045  24025531.910    24025542.930
  20953193.696   -26050021.84849 -20285816.79747  20953192.966    20953202.096
  23881055.565   -10390642.61649  -8087425.33145  23881055.080    23881066.707
  20671698.709   -24033798.49849 -18449435.93548  20671698.381    20671706.862
  24401098.554    -2491529.20549  -1922667.68445  24401097.652    24401111.800
  20408098.538   -27375270.53449 -21069064.59948  20408097.658    20408106.305
  21361045.783   -23162654.79249 -16334118.45647  21361045.086    21361054.211
  24198579.845    -7584009.75649  -5890223.69945  24198579.662    24198590.666
  22974547.070   -12388401.50749  -9342202.00946  22974546.402    22974558.482
  20735323.644   -22506533.50449 -16952755.76448  20735322.995    20735330.233
  21978121.538   -18301364.98749 -13715984.41747  21978121.024    21978131.062
 02  3  7  2 45 30.0000000  0 11G23G17G 9G29G31G15G21G26G14G18G 3
  24039802.843    -7251423.99149  -5372246.54845  24039802.191    24039813.175
  20959936.825   -26014586.41049 -20258204.76147  20959936.108    20959945.219
  23870108.883   -10448166.73649  -8132249.16345  23870108.499    23870120.164
  20663078.296   -24079098.92049 -18484734.87548  20663077.959    20663086.385
  24384133.755    -2580678.84749  -1992134.74745  24384132.856    24384147.061
  20411474.844   -27357527.89749 -21055239.13148  20411473.971    20411482.600
  21356598.995   -23186022.62049 -16352327.09147  21356598.295    21356607.413
  24218844.743    -7477516.76449  -5807242.14945  24218844.563    24218855.644
  22954542.598   -12493524.60949  -9424115.82046  22954541.942    22954553.923
  20741775.763   -22472627.47749 -16926335.45648  20741775.118    20741782.319
  21970664.976   -18340549.17649 -13746517.48347  21970664.456    21970674.466
 02  3  7  2 46  0.0000000  0 11G23G17G 9G29G31G15G21G26G14G18G 3
  24054068.812    -7176455.68549  -5313829.67445  24054068.145    24054079.186
  20966743.496   -25978817.34549 -20230332.74747  20966742.766    20966751.879
  23859226.451   -10505353.55749  -8176810.15645  23859225.992    23859237.821
  20654554.860   -24123889.41949 -18519636.47348  20654554.510    20654562.914
  24367228.555    -2669515.47149  -2061357.88545  24367227.680    24367241.940
  20414917.733   -27339435.34949 -21041141.00848  20414916.837    20414925.458
  21352191.859   -23209182.17749 -16370373.43847  21352191.146    21352200.240
  24239151.739    -7370803.04049  -5724088.57945  24239151.515    24239162.489
  22934580.149   -12598426.71849  -9505857.42646  22934579.501    22934591.364
  20748274.246   -22438477.36749 -16899724.95748  20748273.599    20748280.810
  21963309.523   -18379201.97449 -13776636.47747  21963309.018    21963319.023
 02  3  7  2 46 30.0000000  0 11G23G17G 9G29G31G15G21G26G14G18G 3
  24068330.375    -7101510.96049  -5255431.19645  24068329.713    24068340.845
  20973613.613   -25942714.56749 -20202200.70447  20973612.880    20973621.988
  23848408.728   -10562200.82249  -8221106.55745  23848408.201    23848419.971
  20646128.636   -24168169.17449 -18554140.08948  20646128.293    20646136.663
  24350383.357    -2758036.95549  -2130335.43345  24350382.451    24350396.840
  20418427.225   -27320992.62749 -21026770.02848  20418426.338    20418434.959
  21347824.217   -23232134.10049 -16388257.99147  21347823.499    21347832.597
  24259500.065    -7263872.00749  -5640765.68445  24259499.988    24259510.659
  22914660.168   -12703105.94949  -9587425.37146  22914659.552    22914671.299
  20754818.876   -22404084.84649 -16872925.56448  20754818.238    20754825.467
  21956055.356   -18417322.88249 -13806341.01047  21956054.829    21956064.795
 02  3  7  2 47  0.0000000  0 11G23G17G 9G29G31G15G21G26G14G18G 3
  24082587.544    -7026589.37649  -5197050.75045  24082586.833    24082597.915
  20980547.502   -25906276.77549 -20173807.61047  20980546.780    20980555.845
  23837656.295   -10618704.46949  -8265135.20945  23837655.735    23837667.526
  20637799.984   -24211936.23049 -18588244.20148  20637799.639    20637807.959
  24333598.780    -2846239.88749  -2199064.75145  24333597.921    24333612.114
  20422003.655   -27302198.19549 -21012124.98048  20422002.762    20422011.385
  21343496.060   -23254878.61449 -16405980.91947  21343495.346    21343504.447
  24279889.375    -7156725.72949  -5557275.06745  24279889.222    24279900.003
  22894783.286   -12807558.61549  -9668816.78846  22894782.642    22894794.330
  20761409.566   -22369450.36849 -16845937.63148  20761408.926    20761416.165
  21948902.828   -18454909.68049 -13835629.35747  21948902.281    21948912.208
 02  3  7  2 47 30.0000000  0 11G23G17G 9G29G31G15G21G26G14G18G 3
  24096840.000    -6951692.39549  -5138689.47245  24096839.245    24096850.292
  20987545.073   -25869504.28649 -20145153.72247  20987544.345    20987553.406
  23826969.645   -10674862.40649  -8308894.48145  23826969.093    23826980.907
  20629568.947   -24255190.20949 -18621948.51648  20629568.607    20629576.893
  24316875.138    -2934122.61249  -2267544.53645  24316874.319    24316888.416
  20425646.941   -27283052.24149 -20997206.02448  20425646.050    20425654.688
  21339207.021   -23277417.20149 -16423543.38247  21339206.325    21339215.445
  24300318.861    -7049368.05949  -5473619.72145  24300318.729    24300329.397
  22874949.800   -12911783.23949  -9750030.51746  22874949.152    22874960.732
  20768045.895   -22334576.06449 -16818762.82748  20768045.251    20768052.509
  21941852.014   -18491961.85749 -13864501.12247  21941851.472    21941861.338
 02  3  7  2 48  0.0000000  0 11G23G17G 9G29G31G15G21G26G14G18G 3
  24111087.623    -6876820.79249  -5080347.95945  24111086.822    24111097.966
  20994606.410   -25832396.66949 -20116238.68047  20994605.667    20994614.717
  23816349.332   -10730671.84249  -8352382.19745  23816348.795    23816360.511
  20621435.698   -24297930.42749 -18655252.49348  20621435.348    20621443.608
  24300212.845    -3021682.78549  -2335772.98945  24300212.083    24300226.057
  20429357.267   -27263554.11049 -20982012.63948  20429356.381    20429365.036
  21334957.050   -23299750.71649 -16440946.05147  21334956.337    21334965.465
  24320787.972    -6941802.15049  -5389802.10745  24320787.819    24320798.395
  22855160.175   -13015777.31349  -9831064.60346  22855159.483    22855171.012
  20774727.535   -22299463.57849 -16791402.41548  20774726.896    20774734.148
  21934903.132   -18528478.27349 -13892955.40347  21934902.573    21934912.407
 02  3  7  2 48 30.0000000  0 11G23G17G 9G29G31G15G21G26G14G18G 3
  24125330.516    -6801974.12749  -5022025.86445  24125329.722    24125340.767
  21001731.773   -25794952.42049 -20087061.32847  21001731.034    21001740.098
  23805796.144   -10786128.74949  -8395595.22845  23805795.571    23805807.232
  20613400.579   -24340154.77149 -18688154.49348  20613400.230    20613408.486
  24283612.722    -3108916.53349  -2403747.07545  24283611.976    24283625.838
  20433134.976   -27243702.10949 -20966543.51648  20433134.086    20433142.738
  21330746.248   -23321878.38549 -16458188.31947  21330745.532    21330754.647
  24341296.308    -6834029.83549  -5305823.68045  24341296.301    24341306.760
  22835415.065   -13119537.43549  -9911916.39246  22835414.352    22835425.828
  20781454.522   -22264112.98249 -16763856.45948  20781453.879    20781461.117
  21928056.582   -18564456.65549 -13920990.43847  21928056.023    21928065.872
 02  3  7  2 49  0.0000000  0 11G23G17G 9G29G31G15G21G26G14G18G 3
  24139568.290    -6727154.05649  -4963724.50445  24139567.475    24139578.584
  21008921.107   -25757172.03649 -20057622.05347  21008920.357    21008929.452
  23795310.305   -10841230.97549  -8438531.88045  23795309.861    23795321.399
  20605463.663   -24381863.19549 -18720654.47848  20605463.315    20605471.570
  24267074.968    -3195822.29949  -2471465.59345  24267074.125    24267088.063
  20436979.875   -27223496.82849 -20950799.10748  20436978.994    20436987.645
  21326574.173   -23343802.58849 -16475272.04947  21326573.451    21326582.557
  24361843.236    -6726054.94449  -5221687.39445  24361843.247    24361853.704
  22815714.762   -13223062.03249  -9992584.67546  22815714.051    22815725.485
  20788226.363   -22228526.63449 -16736126.79848  20788225.711    20788232.940
  21921312.425   -18599896.87149 -13948606.12547  21921311.882    21921321.722
 02  3  7  2 49 30.0000000  0 11G23G17G 9G29G31G15G21G26G14G18G 3
  24153800.904    -6652360.90249  -4905444.13945  24153800.092    24153811.271
  21016174.543   -25719054.79149 -20027920.28747  21016173.816    21016182.925
  23784892.578   -10895975.48849  -8481189.79545  23784892.172    23784903.755
  20597625.100   -24423054.63049 -18752751.61448  20597624.751    20597632.974
  24250600.130    -3282397.40349  -2538926.46045  24250599.250    24250613.027
  20440892.243   -27202937.23049 -20934778.61048  20440891.345    20440899.960
  21322440.806   -23365523.17649 -16492197.11347  21322440.092    21322449.185
  24382428.137    -6617880.45749  -5137395.58045  24382428.106    24382438.607
  22796059.724   -13326348.59049 -10073067.47646  22796059.057    22796070.416
  20795042.838   -22192705.65549 -16708214.30548  20795042.192    20795049.408
  21914671.004   -18634797.65449 -13975801.47347  21914670.440    21914680.270
 02  3  7  2 50  0.0000000  0 11G23G17G 9G29G31G15G21G26G14G18G 3
  24168028.422    -6577594.77549  -4847184.82745  24168027.563    24168038.730
  21023492.297   -25680599.73249 -19997955.28647  21023491.570    21023500.677
  23774543.644   -10950359.15449  -8523566.53045  23774543.276    23774554.792
  20589885.231   -24463727.59949 -18784444.75148  20589884.880    20589893.063
  24234188.738    -3368638.92249  -2606127.40545  24234187.842    24234201.547
  20444872.211   -27182022.28649 -20918481.22148  20444871.320    20444879.921
  21318346.138   -23387040.62549 -16508963.88547  21318345.417    21318354.469
  24403050.509    -6509508.77849  -5052950.10745  24403050.550    24403061.023
  22776450.654   -13429393.93049 -10153362.34046  22776450.022    22776461.253
  20801903.831   -22156650.83249 -16680119.60148  20801903.192    20801910.395
  21908132.519   -18669157.21949 -14002575.08947  21908131.946    21908141.801
 02  3  7  2 50 30.0000000  0 11G23G17G 9G29G31G15G21G26G14G18G 3
  24182250.666    -6502856.60349  -4788947.30545  24182249.826    24182260.924
  21030874.366   -25641806.82549 -19967727.03347  21030873.619    21030882.706
  23764263.858   -11004379.37549  -8565660.05545  23764263.463    23764274.971
  20582244.092   -24503881.55749 -18815733.46848  20582243.739    20582251.926
  24217841.189    -3454544.80249  -2673066.81645  24217840.358    24217853.962
  20448919.805   -27160751.85949 -20901906.83448  20448918.918    20448927.516
  21314289.930   -23408355.92449 -16525573.14747  21314289.215    21314298.220
  24423709.795    -6400943.06649  -4968353.45845  24423709.787    24423720.371
  22756887.873   -13532196.26649 -10233467.85046  22756887.225    22756898.314
  20808808.953   -22120363.91649 -16651844.04948  20808808.302    20808815.505
  21901697.187   -18702974.69849 -14028926.30447  21901696.631    21901706.479
 02  3  7  2 51  0.0000000  0 11G23G17G 9G29G31G15G21G26G14G18G 3
  24196467.370    -6428147.15349  -4730732.15545  24196466.585    24196477.681
  21038320.761   -25602675.90649 -19937235.38947  21038320.004    21038329.072
  23754053.736   -11058033.41649  -8607468.26145  23754053.242    23754064.763
  20574701.868   -24543515.85749 -18846617.25048  20574701.521    20574709.717
  24201557.966    -3540112.66149  -2739742.84945  24201557.150    24201570.759
  20453035.178   -27139125.32649 -20885054.96248  20453034.289    20453042.906
  21310271.960   -23429470.09849 -16542025.68447  21310271.246    21310280.219
  24444405.425    -6292186.63049  -4883608.19745  24444405.360    24444416.024
  22737371.800   -13634753.05449 -10313382.03046  22737371.175    22737382.174
  20815757.989   -22083846.45849 -16623388.85248  20815757.341    20815764.536
  21895365.117   -18736249.71449 -14054854.81147  21895364.555    21895374.414
 02  3  7  2 51 30.0000000  0 11G23G17G 9G29G31G15G21G26G14G18G 3
  24210678.537    -6353467.32649  -4672540.08745  24210677.746    24210688.838
  21045831.504   -25563206.72049 -19906480.17447  21045830.754    21045839.782
  23743913.715   -11111318.78849  -8648989.18345  23743913.231    23743924.783
  20567258.655   -24582629.94849 -18877095.68148  20567258.303    20567266.481
  24185339.507    -3625340.23749  -2806153.73745  24185338.669    24185352.186
  20457218.312   -27117142.55949 -20867925.50948  20457217.423    20457226.040
  21306292.132   -23450384.04349 -16558322.20447  21306291.411    21306300.376
  24465136.771    -6183242.70249  -4798716.83345  24465136.669    24465147.552
  22717902.843   -13737062.25649 -10393103.29846  22717902.224    22717913.164
  20822750.583   -22047099.92049 -16594755.15948  20822749.940    20822757.130
  21889136.451   -18768981.28949 -14080359.87147  21889135.887    21889145.743
 02  3  7  2 52  0.0000000  0 11G23G17G 9G29G31G15G21G26G14G18G 3
  24224884.090    -6278816.76849  -4614370.81745  24224883.342    24224894.422
  21053406.868   -25523398.08949 -19875460.45347  21053406.110    21053415.100
  23733844.725   -11164231.67849  -8690219.87445  23733844.251    23733855.697
  20559914.786   -24621222.00349 -18907167.32548  20559914.438    20559922.611
  24169186.458    -3710224.12249  -2872296.83445  24169185.591    24169199.071
  20461469.519   -27094802.17349 -20850517.38248  20461468.630    20461477.227
  21302350.422   -23471097.61649 -16574462.59247  21302349.700    21302358.656
  24485903.363    -6074113.20249  -4713680.86545  24485903.351    24485914.341
  22698481.688   -13839120.53949 -10472629.03246  22698481.059    22698491.953
  20829786.680   -22010124.77849 -16565943.33448  20829786.029    20829793.204
  21883011.560   -18801167.53649 -14105439.97947  21883011.007    21883020.860
 02  3  7  2 52 30.0000000  0 11G23G17G 9G29G31G15G21G26G14G18G 3
  24239084.021    -6204195.94449  -4556224.72645  24239083.241    24239094.235
  21061046.914   -25483249.35649 -19844175.71847  21061046.161    21061055.142
  23723847.173   -11216768.84749  -8731157.80545  23723846.713    23723858.097
  20552670.393   -24659291.19449 -18936831.55148  20552670.053    20552678.199
  24153099.290    -3794761.79349  -2938170.17545  24153098.448    24153111.833
  20465788.975   -27072103.24949 -20832829.88248  20465788.080    20465796.662
  21298446.700   -23491611.56849 -16590447.43747  21298445.983    21298454.903
  24506704.744    -5964801.09149  -4628502.60045  24506704.691    24506715.769
  22679108.694   -13940925.54749 -10551957.41746  22679108.050    22679118.900
  20836866.080   -21972922.27949 -16536954.36348  20836865.418    20836872.587
  21876990.701   -18832807.34849 -14130094.30447  21876990.135    21876999.968
 02  3  7  2 53  0.0000000  0 11G23G17G 9G29G31G15G21G26G14G18G 3
  24253278.002    -6129606.24249  -4498102.87245  24253277.206    24253288.229
  21068751.629   -25442760.82649 -19812626.20347  21068750.887    21068759.846
  23713921.401   -11268928.40749  -8771801.48746  23713921.044    23713932.301
  20545525.580   -24696837.27249 -18966088.14948  20545525.229    20545533.372
  24137078.328    -3878951.62449  -3003772.48245  24137077.529    24137090.851
  20470176.600   -27049045.87849 -20814863.07448  20470175.722    20470184.290
  21294580.715   -23511927.45749 -16606277.94847  21294579.989    21294588.874
  24527540.252    -5855309.90549  -4543184.80345  24527540.177    24527551.255
  22659784.268   -14042475.30349 -10631086.89146  22659783.628    22659794.401
  20843988.337   -21935494.26049 -16507789.65448  20843987.688    20843994.851
  21871073.881   -18863900.25549 -14154322.46447  21871073.321    21871083.108
 02  3  7  2 53 30.0000000  0 11G23G17G 9G29G31G15G21G26G14G18G 3
  24267466.007    -6055047.54949  -4440005.19045  24267465.193    24267476.252
  21076521.150   -25401931.57249 -19780811.19347  21076520.389    21076529.367
  23704068.179   -11320706.80349  -8812148.16146  23704067.835    23704079.058
  20538480.549   -24733858.90249 -18994936.09248  20538480.186    20538488.292
  24121124.186    -3962790.49649  -3069101.33345  24121123.344    24121136.579
  20474632.633   -27025629.10549 -20796616.20948  20474631.757    20474640.345
  21290752.473   -23532044.71549 -16621953.68347  21290751.749    21290760.614
  24548409.327    -5745642.05149  -4457729.34545  24548409.190    24548420.270
  22640508.967   -14143766.89749 -10710015.21146  22640508.293    22640519.048
  20851153.398   -21897841.50049 -16478449.81548  20851152.747    20851159.904
  21865261.364   -18894444.80849 -14178123.33247  21865260.815    21865270.578
 02  3  7  2 54  0.0000000  0 11G23G17G 9G29G31G15G21G26G14G18G 3
  24281648.135    -5980520.09449  -4381931.84645  24281647.315    24281658.342
  21084355.612   -25360761.09949 -19748730.30447  21084354.875    21084363.840
  23694288.032   -11372101.22849  -8852195.64046  23694287.676    23694298.939
  20531535.474   -24770355.21149 -19023374.69448  20531535.104    20531543.171
  24105237.317    -4046275.73349  -3134154.64445  24105236.502    24105249.723
  20479157.260   -27001852.12649 -20778088.66748  20479156.375    20479164.973
  21286961.787   -23551964.57749 -16637475.60447  21286961.064    21286969.919
  24569311.600    -5635800.21349  -4372138.31845  24569311.380    24569322.471
  22621283.278   -14244797.61349 -10788740.24646  22621282.613    22621293.319
  20858361.052   -21859965.08149 -16448935.68848  20858360.398    20858367.524
  21859553.460   -18924439.66549 -14201495.87547  21859552.916    21859562.623
 02  3  7  2 54 30.0000000  0 11G23G17G 9G29G31G15G21G26G14G18G 3
  24295824.131    -5906025.21149  -4323883.88545  24295823.331    24295834.243
  21092254.968   -25319249.50549 -19716383.59147  21092254.216    21092263.235
  23684581.393   -11423109.58549  -8891942.27746  23684581.026    23684592.223
  20524690.378   -24806326.18849 -19051403.94548  20524690.013    20524698.044
  24089418.045    -4129405.64749  -3198931.08845  24089417.234    24089430.394
  20483750.410   -26977714.94149 -20759280.44148  20483749.515    20483758.088
  21283208.452   -23571688.13649 -16652844.55947  21283207.742    21283216.620
  24590246.291    -5525787.94649  -4286414.47645  24590246.067    24590257.207
  22602107.611   -14345565.72149 -10867260.63946  22602106.947    22602117.591
  20865610.865   -21821866.89249 -16419248.75748  20865610.219    20865617.322
  21853950.241   -18953884.62049 -14224439.92047  21853949.686    21853959.346
 02  3  7  2 55  0.0000000  0 11G23G17G 9G29G31G15G21G26G14G18G 3
  24309993.925    -5831562.79049  -4265861.23645  24309993.142    24310003.993
  21100219.403   -25277395.88549 -19683770.37647  21100218.673    21100227.696
  23674948.893   -11473728.43249  -8931385.39446  23674948.485    23674959.686
  20517945.498   -24841770.41449 -19079022.74248  20517945.132    20517953.135
  24073667.027    -4212177.11649  -3263428.21945  24073666.278    24073679.272
  20488412.350   -26953216.25449 -20740190.53048  20488411.458    20488419.991
  21279492.524   -23591215.22949 -16668060.42747  21279491.814    21279500.711
  24611212.969    -5415607.54749  -4200559.62245  24611212.812    24611223.795
  22582982.463   -14446068.28549 -10945574.12446  22582981.807    22582992.338
  20872902.743   -21783547.79449 -16389389.69348  20872902.091    20872909.169
  21848451.864   -18982778.41549 -14246954.49347  21848451.302    21848460.956
 02  3  7  2 55 30.0000000  0 11G23G17G 9G29G31G15G21G26G14G18G 3
  24324157.478    -5757132.94949  -4207863.95945  24324156.677    24324167.477
  21108249.105   -25235199.45249 -19650890.03547  21108248.364    21108257.389
  23665391.053   -11523954.46749  -8970522.43046  23665390.661    23665401.944
  20511301.064   -24876686.86549 -19106230.29048  20511300.702    20511308.683
  24057984.755    -4294587.13049  -3327643.68045  24057983.975    24057997.016
  20493143.180   -26928355.52049 -20720818.50548  20493142.303    20493150.801
  21275813.936   -23610546.10649 -16683123.39947  21275813.211    21275822.096
  24632211.152    -5305261.55749  -4114575.74945  24632210.955    24632221.841
  22563908.394   -14546302.63449 -11023678.60246  22563907.742    22563918.198
  20880236.500   -21745008.67249 -16359359.18548  20880235.844    20880242.901
  21843058.649   -19011119.59349 -14269038.45947  21843058.106    21843067.742
